Wetterdaten: Sonntag, 17.12.2023
Datum Zeit Temp. I. Temp. A. Feuchte I. Feuchte A. Luftdruck Regen Wind Richtung Richtung Sonnenschein Solar Taupunkt Windchill Windböen
17.12.2023 00:00 21,7 °C 6,4 °C 53 % 91 % 1036,0 hPa 0,0 l/m² 10,8 km/h (2 Bft) SW 232 ° 0 min 0 W/m² 5,0 °C 3,1 °C 16,1 km/h (3 Bft)
17.12.2023 00:02 21,6 °C 6,3 °C 53 % 91 % 1035,9 hPa 0,0 l/m² 12,1 km/h (2 Bft) SW 216 ° 0 min 0 W/m² 4,9 °C 2,2 °C 16,1 km/h (3 Bft)
17.12.2023 00:03 21,6 °C 6,4 °C 53 % 91 % 1035,8 hPa 0,0 l/m² 11,5 km/h (2 Bft) SW 221 ° 0 min 0 W/m² 5,0 °C 2,7 °C 17,7 km/h (3 Bft)
17.12.2023 00:05 21,7 °C 6,4 °C 53 % 91 % 1035,9 hPa 0,0 l/m² 10,9 km/h (2 Bft) W-SW 243 ° 0 min 0 W/m² 5,0 °C 3,0 °C 14,5 km/h (3 Bft)
17.12.2023 00:07 21,6 °C 6,3 °C 53 % 91 % 1035,9 hPa 0,0 l/m² 10,7 km/h (2 Bft) SW 214 ° 0 min 0 W/m² 4,9 °C 3,0 °C 16,1 km/h (3 Bft)
17.12.2023 00:09 21,6 °C 6,4 °C 53 % 90 % 1035,9 hPa 0,0 l/m² 11,1 km/h (2 Bft) SW 220 ° 0 min 0 W/m² 4,9 °C 2,9 °C 19,3 km/h (3 Bft)
17.12.2023 00:10 21,6 °C 6,4 °C 53 % 90 % 1035,9 hPa 0,0 l/m² 10,8 km/h (2 Bft) SW 219 ° 0 min 0 W/m² 4,9 °C 3,1 °C 14,5 km/h (3 Bft)
17.12.2023 00:12 21,7 °C 6,4 °C 53 % 90 % 1035,9 hPa 0,0 l/m² 12,8 km/h (3 Bft) S-SW 196 ° 0 min 0 W/m² 4,9 °C 1,9 °C 19,3 km/h (3 Bft)
17.12.2023 00:13 21,6 °C 6,4 °C 53 % 90 % 1035,9 hPa 0,0 l/m² 13,9 km/h (3 Bft) S-SW 207 ° 0 min 0 W/m² 4,9 °C 1,3 °C 17,7 km/h (3 Bft)
17.12.2023 00:15 21,6 °C 6,4 °C 53 % 90 % 1036,0 hPa 0,0 l/m² 12,7 km/h (3 Bft) SW 217 ° 0 min 0 W/m² 4,9 °C 2,0 °C 19,3 km/h (3 Bft)
17.12.2023 00:17 21,6 °C 6,4 °C 53 % 90 % 1036,0 hPa 0,0 l/m² 13,0 km/h (3 Bft) S-SW 211 ° 0 min 0 W/m² 4,9 °C 1,8 °C 19,3 km/h (3 Bft)
17.12.2023 00:19 21,6 °C 6,4 °C 53 % 90 % 1036,0 hPa 0,0 l/m² 13,8 km/h (3 Bft) S-SW 202 ° 0 min 0 W/m² 4,9 °C 1,4 °C 17,7 km/h (3 Bft)
17.12.2023 00:21 21,6 °C 6,4 °C 53 % 90 % 1036,1 hPa 0,0 l/m² 12,6 km/h (3 Bft) SW 224 ° 0 min 0 W/m² 4,9 °C 2,0 °C 19,3 km/h (3 Bft)
17.12.2023 00:22 21,6 °C 6,4 °C 53 % 90 % 1036,1 hPa 0,0 l/m² 12,7 km/h (3 Bft) SW 217 ° 0 min 0 W/m² 4,9 °C 2,0 °C 17,7 km/h (3 Bft)
17.12.2023 00:23 21,6 °C 6,4 °C 53 % 90 % 1036,0 hPa 0,0 l/m² 14,6 km/h (3 Bft) SW 217 ° 0 min 0 W/m² 4,9 °C 1,0 °C 17,7 km/h (3 Bft)
17.12.2023 00:25 21,6 °C 6,4 °C 53 % 90 % 1036,1 hPa 0,0 l/m² 14,2 km/h (3 Bft) SW 220 ° 0 min 0 W/m² 4,9 °C 1,2 °C 17,7 km/h (3 Bft)
17.12.2023 00:27 21,6 °C 6,5 °C 53 % 90 % 1036,1 hPa 0,0 l/m² 15,7 km/h (3 Bft) S-SW 209 ° 0 min 0 W/m² 5,0 °C 0,6 °C 19,3 km/h (3 Bft)
17.12.2023 00:29 21,6 °C 6,5 °C 53 % 90 % 1036,1 hPa 0,0 l/m² 15,0 km/h (3 Bft) SW 234 ° 0 min 0 W/m² 5,0 °C 0,9 °C 22,5 km/h (4 Bft)
17.12.2023 00:31 21,6 °C 6,5 °C 53 % 90 % 1036,1 hPa 0,0 l/m² 11,7 km/h (2 Bft) SW 217 ° 0 min 0 W/m² 5,0 °C 2,7 °C 17,7 km/h (3 Bft)
17.12.2023 00:33 21,6 °C 6,6 °C 53 % 90 % 1036,1 hPa 0,0 l/m² 17,0 km/h (3 Bft) SW 227 ° 0 min 0 W/m² 5,1 °C 0,1 °C 25,7 km/h (4 Bft)
17.12.2023 00:34 21,6 °C 6,6 °C 53 % 91 % 1036,1 hPa 0,0 l/m² 14,6 km/h (3 Bft) SW 215 ° 0 min 0 W/m² 5,2 °C 1,2 °C 22,5 km/h (4 Bft)
17.12.2023 00:35 21,6 °C 6,6 °C 53 % 91 % 1036,1 hPa 0,0 l/m² 13,6 km/h (3 Bft) W-SW 242 ° 0 min 0 W/m² 5,2 °C 1,7 °C 20,9 km/h (4 Bft)
17.12.2023 00:37 21,6 °C 6,6 °C 53 % 90 % 1036,1 hPa 0,0 l/m² 17,8 km/h (3 Bft) W-SW 237 ° 0 min 0 W/m² 5,1 °C -0,2 °C 24,1 km/h (4 Bft)
17.12.2023 00:39 21,6 °C 6,6 °C 53 % 90 % 1036,2 hPa 0,0 l/m² 15,6 km/h (3 Bft) SW 227 ° 0 min 0 W/m² 5,1 °C 0,7 °C 24,1 km/h (4 Bft)
17.12.2023 00:41 21,6 °C 6,7 °C 53 % 90 % 1036,2 hPa 0,0 l/m² 16,9 km/h (3 Bft) SW 233 ° 0 min 0 W/m² 5,2 °C 0,3 °C 22,5 km/h (4 Bft)
17.12.2023 00:42 21,6 °C 6,7 °C 53 % 90 % 1036,2 hPa 0,0 l/m² 12,9 km/h (3 Bft) W-SW 245 ° 0 min 0 W/m² 5,2 °C 2,2 °C 16,1 km/h (3 Bft)
17.12.2023 00:43 21,6 °C 6,7 °C 53 % 90 % 1036,2 hPa 0,0 l/m² 14,9 km/h (3 Bft) W-SW 248 ° 0 min 0 W/m² 5,2 °C 1,2 °C 19,3 km/h (3 Bft)
17.12.2023 00:46 21,6 °C 6,7 °C 53 % 90 % 1036,2 hPa 0,0 l/m² 13,8 km/h (3 Bft) W-SW 244 ° 0 min 0 W/m² 5,2 °C 1,7 °C 19,3 km/h (3 Bft)
17.12.2023 00:47 21,6 °C 6,7 °C 53 % 90 % 1036,2 hPa 0,0 l/m² 16,8 km/h (3 Bft) SW 225 ° 0 min 0 W/m² 5,2 °C 0,3 °C 22,5 km/h (4 Bft)
17.12.2023 00:49 21,6 °C 6,7 °C 53 % 90 % 1036,3 hPa 0,0 l/m² 12,8 km/h (3 Bft) S-SW 205 ° 0 min 0 W/m² 5,2 °C 2,3 °C 19,3 km/h (3 Bft)
17.12.2023 00:51 21,6 °C 6,7 °C 53 % 90 % 1036,2 hPa 0,0 l/m² 15,0 km/h (3 Bft) S-SW 205 ° 0 min 0 W/m² 5,2 °C 1,1 °C 22,5 km/h (4 Bft)
17.12.2023 00:52 21,6 °C 6,7 °C 53 % 90 % 1036,2 hPa 0,0 l/m² 10,4 km/h (2 Bft) S-SW 201 ° 0 min 0 W/m² 5,2 °C 3,7 °C 16,1 km/h (3 Bft)
17.12.2023 00:53 21,6 °C 6,7 °C 53 % 90 % 1036,3 hPa 0,0 l/m² 14,7 km/h (3 Bft) SW 227 ° 0 min 0 W/m² 5,2 °C 1,3 °C 16,1 km/h (3 Bft)
17.12.2023 00:55 21,6 °C 6,7 °C 53 % 90 % 1036,3 hPa 0,0 l/m² 15,4 km/h (3 Bft) SW 217 ° 0 min 0 W/m² 5,2 °C 0,9 °C 20,9 km/h (4 Bft)
17.12.2023 00:57 21,6 °C 6,7 °C 53 % 90 % 1036,3 hPa 0,0 l/m² 14,6 km/h (3 Bft) SW 220 ° 0 min 0 W/m² 5,2 °C 1,3 °C 22,5 km/h (4 Bft)
17.12.2023 00:59 21,6 °C 6,6 °C 53 % 90 % 1036,2 hPa 0,0 l/m² 16,4 km/h (3 Bft) S-SW 212 ° 0 min 0 W/m² 5,1 °C 0,4 °C 20,9 km/h (4 Bft)
17.12.2023 01:01 21,6 °C 6,6 °C 53 % 90 % 1036,3 hPa 0,0 l/m² 17,3 km/h (3 Bft) SW 214 ° 0 min 0 W/m² 5,1 °C -0,0 °C 27,4 km/h (5 Bft)
17.12.2023 01:03 21,6 °C 6,6 °C 53 % 90 % 1036,1 hPa 0,0 l/m² 16,8 km/h (3 Bft) S-SW 212 ° 0 min 0 W/m² 5,1 °C 0,2 °C 20,9 km/h (4 Bft)
17.12.2023 01:05 21,6 °C 6,6 °C 53 % 90 % 1036,1 hPa 0,0 l/m² 16,3 km/h (3 Bft) SW 214 ° 0 min 0 W/m² 5,1 °C 0,4 °C 19,3 km/h (3 Bft)
17.12.2023 01:07 21,6 °C 6,6 °C 53 % 90 % 1036,0 hPa 0,0 l/m² 15,1 km/h (3 Bft) SW 215 ° 0 min 0 W/m² 5,1 °C 1,0 °C 20,9 km/h (4 Bft)
17.12.2023 01:09 21,6 °C 6,6 °C 53 % 89 % 1036,0 hPa 0,0 l/m² 16,3 km/h (3 Bft) S-SW 206 ° 0 min 0 W/m² 4,9 °C 0,4 °C 20,9 km/h (4 Bft)
17.12.2023 01:11 21,6 °C 6,5 °C 53 % 89 % 1035,9 hPa 0,0 l/m² 15,1 km/h (3 Bft) SW 217 ° 0 min 0 W/m² 4,8 °C 0,8 °C 19,3 km/h (3 Bft)
17.12.2023 01:12 21,6 °C 6,5 °C 53 % 89 % 1035,9 hPa 0,0 l/m² 17,8 km/h (3 Bft) S-SW 213 ° 0 min 0 W/m² 4,8 °C -0,4 °C 20,9 km/h (4 Bft)
17.12.2023 01:13 21,7 °C 6,5 °C 53 % 89 % 1035,8 hPa 0,0 l/m² 14,5 km/h (3 Bft) SW 219 ° 0 min 0 W/m² 4,8 °C 1,1 °C 19,3 km/h (3 Bft)
17.12.2023 01:15 21,6 °C 6,4 °C 53 % 89 % 1035,8 hPa 0,0 l/m² 15,5 km/h (3 Bft) S-SW 213 ° 0 min 0 W/m² 4,7 °C 0,5 °C 20,9 km/h (4 Bft)
17.12.2023 01:17 21,6 °C 6,4 °C 53 % 90 % 1035,8 hPa 0,0 l/m² 16,3 km/h (3 Bft) S-SW 205 ° 0 min 0 W/m² 4,9 °C 0,2 °C 22,5 km/h (4 Bft)
17.12.2023 01:19 21,7 °C 6,4 °C 53 % 90 % 1035,8 hPa 0,0 l/m² 18,3 km/h (3 Bft) SW 217 ° 0 min 0 W/m² 4,9 °C -0,7 °C 27,4 km/h (5 Bft)
17.12.2023 01:21 21,7 °C 6,4 °C 53 % 90 % 1035,8 hPa 0,0 l/m² 16,4 km/h (3 Bft) SW 223 ° 0 min 0 W/m² 4,9 °C 0,1 °C 22,5 km/h (4 Bft)
17.12.2023 01:23 21,6 °C 6,5 °C 53 % 90 % 1035,8 hPa 0,0 l/m² 14,7 km/h (3 Bft) SW 232 ° 0 min 0 W/m² 5,0 °C 1,0 °C 19,3 km/h (3 Bft)
17.12.2023 01:24 21,6 °C 6,5 °C 53 % 90 % 1035,8 hPa 0,0 l/m² 14,0 km/h (3 Bft) SW 215 ° 0 min 0 W/m² 5,0 °C 1,4 °C 19,3 km/h (3 Bft)
17.12.2023 01:25 21,6 °C 6,5 °C 53 % 90 % 1035,8 hPa 0,0 l/m² 16,5 km/h (3 Bft) SW 227 ° 0 min 0 W/m² 5,0 °C 0,2 °C 20,9 km/h (4 Bft)
17.12.2023 01:27 21,6 °C 6,5 °C 53 % 90 % 1035,8 hPa 0,0 l/m² 16,3 km/h (3 Bft) SW 223 ° 0 min 0 W/m² 5,0 °C 0,3 °C 22,5 km/h (4 Bft)
17.12.2023 01:28 21,6 °C 6,6 °C 53 % 90 % 1035,8 hPa 0,0 l/m² 13,0 km/h (3 Bft) SW 232 ° 0 min 0 W/m² 5,1 °C 2,0 °C 20,9 km/h (4 Bft)
17.12.2023 01:29 21,6 °C 6,5 °C 53 % 90 % 1035,8 hPa 0,0 l/m² 13,7 km/h (3 Bft) W-SW 250 ° 0 min 0 W/m² 5,0 °C 1,5 °C 20,9 km/h (4 Bft)
17.12.2023 01:31 21,6 °C 6,6 °C 53 % 90 % 1035,7 hPa 0,0 l/m² 14,9 km/h (3 Bft) SW 217 ° 0 min 0 W/m² 5,1 °C 1,1 °C 19,3 km/h (3 Bft)
17.12.2023 01:32 21,6 °C 6,6 °C 53 % 90 % 1035,7 hPa 0,0 l/m² 18,1 km/h (3 Bft) SW 219 ° 0 min 0 W/m² 5,1 °C -0,4 °C 25,7 km/h (4 Bft)
17.12.2023 01:33 21,6 °C 6,6 °C 53 % 90 % 1035,7 hPa 0,0 l/m² 13,2 km/h (3 Bft) S-SW 210 ° 0 min 0 W/m² 5,1 °C 1,9 °C 17,7 km/h (3 Bft)
17.12.2023 01:34 21,6 °C 6,6 °C 53 % 90 % 1035,7 hPa 0,0 l/m² 17,8 km/h (3 Bft) SW 228 ° 0 min 0 W/m² 5,1 °C -0,2 °C 20,9 km/h (4 Bft)
17.12.2023 01:35 21,6 °C 6,6 °C 53 % 90 % 1035,6 hPa 0,0 l/m² 16,2 km/h (3 Bft) SW 222 ° 0 min 0 W/m² 5,1 °C 0,5 °C 22,5 km/h (4 Bft)
17.12.2023 01:36 21,6 °C 6,6 °C 53 % 90 % 1035,7 hPa 0,0 l/m² 15,3 km/h (3 Bft) SW 236 ° 0 min 0 W/m² 5,1 °C 0,9 °C 20,9 km/h (4 Bft)
17.12.2023 01:37 21,6 °C 6,6 °C 53 % 89 % 1035,8 hPa 0,0 l/m² 16,6 km/h (3 Bft) SW 221 ° 0 min 0 W/m² 4,9 °C 0,3 °C 22,5 km/h (4 Bft)
17.12.2023 01:38 21,6 °C 6,6 °C 53 % 89 % 1035,8 hPa 0,0 l/m² 16,2 km/h (3 Bft) SW 220 ° 0 min 0 W/m² 4,9 °C 0,5 °C 20,9 km/h (4 Bft)
17.12.2023 01:39 21,6 °C 6,6 °C 53 % 89 % 1035,9 hPa 0,0 l/m² 12,8 km/h (3 Bft) SW 219 ° 0 min 0 W/m² 4,9 °C 2,1 °C 17,7 km/h (3 Bft)
17.12.2023 01:40 21,6 °C 6,6 °C 53 % 89 % 1035,9 hPa 0,0 l/m² 15,4 km/h (3 Bft) S-SW 205 ° 0 min 0 W/m² 4,9 °C 0,8 °C 22,5 km/h (4 Bft)
17.12.2023 01:43 21,6 °C 6,6 °C 53 % 89 % 1036,1 hPa 0,0 l/m² 12,4 km/h (2 Bft) SW 219 ° 0 min 0 W/m² 4,9 °C 2,4 °C 20,9 km/h (4 Bft)
17.12.2023 01:44 21,6 °C 6,6 °C 53 % 89 % 1036,0 hPa 0,0 l/m² 16,4 km/h (3 Bft) SW 219 ° 0 min 0 W/m² 4,9 °C 0,4 °C 20,9 km/h (4 Bft)
17.12.2023 01:45 21,6 °C 6,6 °C 53 % 89 % 1036,1 hPa 0,0 l/m² 14,9 km/h (3 Bft) W-SW 238 ° 0 min 0 W/m² 4,9 °C 1,1 °C 22,5 km/h (4 Bft)
17.12.2023 01:46 21,6 °C 6,6 °C 53 % 89 % 1036,1 hPa 0,0 l/m² 17,9 km/h (3 Bft) S-SW 208 ° 0 min 0 W/m² 4,9 °C -0,3 °C 24,1 km/h (4 Bft)
17.12.2023 01:47 21,6 °C 6,6 °C 53 % 90 % 1036,1 hPa 0,0 l/m² 19,6 km/h (3 Bft) SW 230 ° 0 min 0 W/m² 5,1 °C -1,0 °C 25,7 km/h (4 Bft)
17.12.2023 01:48 21,6 °C 6,7 °C 53 % 90 % 1036,1 hPa 0,0 l/m² 17,4 km/h (3 Bft) SW 223 ° 0 min 0 W/m² 5,2 °C 0,1 °C 25,7 km/h (4 Bft)
17.12.2023 01:49 21,6 °C 6,7 °C 53 % 90 % 1036,2 hPa 0,0 l/m² 12,7 km/h (3 Bft) SW 221 ° 0 min 0 W/m² 5,2 °C 2,3 °C 17,7 km/h (3 Bft)
17.12.2023 01:52 21,6 °C 6,7 °C 53 % 90 % 1036,2 hPa 0,0 l/m² 13,3 km/h (3 Bft) SW 221 ° 0 min 0 W/m² 5,2 °C 2,0 °C 19,3 km/h (3 Bft)
17.12.2023 01:53 21,6 °C 6,7 °C 53 % 90 % 1036,2 hPa 0,0 l/m² 16,2 km/h (3 Bft) SW 225 ° 0 min 0 W/m² 5,2 °C 0,6 °C 22,5 km/h (4 Bft)
17.12.2023 01:54 21,6 °C 6,7 °C 53 % 90 % 1036,2 hPa 0,0 l/m² 12,7 km/h (3 Bft) SW 232 ° 0 min 0 W/m² 5,2 °C 2,3 °C 16,1 km/h (3 Bft)
17.12.2023 01:55 21,6 °C 6,8 °C 53 % 89 % 1036,2 hPa 0,0 l/m² 8,7 km/h (2 Bft) W-SW 237 ° 0 min 0 W/m² 5,1 °C 5,0 °C 11,3 km/h (2 Bft)
17.12.2023 01:56 21,6 °C 6,7 °C 53 % 89 % 1036,2 hPa 0,0 l/m² 15,9 km/h (3 Bft) SW 221 ° 0 min 0 W/m² 5,0 °C 0,7 °C 24,1 km/h (4 Bft)
17.12.2023 01:57 21,6 °C 6,8 °C 53 % 89 % 1036,2 hPa 0,0 l/m² 11,9 km/h (2 Bft) W-SW 252 ° 0 min 0 W/m² 5,1 °C 2,9 °C 17,7 km/h (3 Bft)
17.12.2023 01:58 21,6 °C 6,8 °C 53 % 89 % 1036,2 hPa 0,0 l/m² 16,7 km/h (3 Bft) SW 234 ° 0 min 0 W/m² 5,1 °C 0,5 °C 20,9 km/h (4 Bft)
17.12.2023 01:59 21,6 °C 6,8 °C 53 % 89 % 1036,2 hPa 0,0 l/m² 12,6 km/h (3 Bft) SW 229 ° 0 min 0 W/m² 5,1 °C 2,5 °C 19,3 km/h (3 Bft)
17.12.2023 02:00 21,6 °C 6,8 °C 53 % 89 % 1036,2 hPa 0,0 l/m² 13,3 km/h (3 Bft) W-SW 237 ° 0 min 0 W/m² 5,1 °C 2,1 °C 17,7 km/h (3 Bft)
17.12.2023 02:03 21,6 °C 6,8 °C 53 % 89 % 1036,1 hPa 0,0 l/m² 13,3 km/h (3 Bft) SW 225 ° 0 min 0 W/m² 5,1 °C 2,1 °C 20,9 km/h (4 Bft)
17.12.2023 02:04 21,6 °C 6,8 °C 53 % 89 % 1036,1 hPa 0,0 l/m² 10,1 km/h (2 Bft) W-SW 248 ° 0 min 0 W/m² 5,1 °C 4,0 °C 12,9 km/h (3 Bft)
17.12.2023 02:05 21,6 °C 6,8 °C 53 % 89 % 1036,1 hPa 0,0 l/m² 7,8 km/h (2 Bft) SW 227 ° 0 min 0 W/m² 5,1 °C 5,6 °C 12,9 km/h (3 Bft)
17.12.2023 02:07 21,6 °C 6,7 °C 53 % 89 % 1036,0 hPa 0,0 l/m² 11,1 km/h (2 Bft) SW 223 ° 0 min 0 W/m² 5,0 °C 3,2 °C 16,1 km/h (3 Bft)
17.12.2023 02:08 21,6 °C 6,7 °C 53 % 89 % 1036,0 hPa 0,0 l/m² 13,1 km/h (3 Bft) SW 215 ° 0 min 0 W/m² 5,0 °C 2,1 °C 16,1 km/h (3 Bft)
17.12.2023 02:09 21,6 °C 6,7 °C 53 % 89 % 1036,1 hPa 0,0 l/m² 16,1 km/h (3 Bft) W-SW 242 ° 0 min 0 W/m² 5,0 °C 0,6 °C 19,3 km/h (3 Bft)
17.12.2023 02:12 21,6 °C 6,7 °C 53 % 89 % 1036,0 hPa 0,0 l/m² 10,5 km/h (2 Bft) SW 236 ° 0 min 0 W/m² 5,0 °C 3,6 °C 14,5 km/h (3 Bft)
17.12.2023 02:13 21,6 °C 6,7 °C 53 % 89 % 1036,0 hPa 0,0 l/m² 9,8 km/h (2 Bft) SW 221 ° 0 min 0 W/m² 5,0 °C 4,1 °C 12,9 km/h (3 Bft)
17.12.2023 02:14 21,6 °C 6,7 °C 53 % 89 % 1036,0 hPa 0,0 l/m² 11,7 km/h (2 Bft) S-SW 211 ° 0 min 0 W/m² 5,0 °C 2,9 °C 16,1 km/h (3 Bft)
17.12.2023 02:15 21,6 °C 6,7 °C 53 % 89 % 1035,9 hPa 0,0 l/m² 10,1 km/h (2 Bft) SW 229 ° 0 min 0 W/m² 5,0 °C 3,9 °C 12,9 km/h (3 Bft)
17.12.2023 02:16 21,6 °C 6,6 °C 53 % 89 % 1036,0 hPa 0,0 l/m² 17,3 km/h (3 Bft) SW 220 ° 0 min 0 W/m² 4,9 °C -0,0 °C 22,5 km/h (4 Bft)
17.12.2023 02:17 21,6 °C 6,6 °C 53 % 89 % 1036,0 hPa 0,0 l/m² 20,0 km/h (4 Bft) W-SW 238 ° 0 min 0 W/m² 4,9 °C -1,1 °C 27,4 km/h (5 Bft)
17.12.2023 02:18 21,6 °C 6,6 °C 53 % 89 % 1035,9 hPa 0,0 l/m² 17,4 km/h (3 Bft) SW 220 ° 0 min 0 W/m² 4,9 °C -0,1 °C 22,5 km/h (4 Bft)
17.12.2023 02:19 21,6 °C 6,6 °C 53 % 89 % 1035,9 hPa 0,0 l/m² 19,9 km/h (4 Bft) SW 232 ° 0 min 0 W/m² 4,9 °C -1,1 °C 27,4 km/h (5 Bft)
17.12.2023 02:22 21,6 °C 6,7 °C 53 % 89 % 1035,8 hPa 0,0 l/m² 16,5 km/h (3 Bft) S-SW 205 ° 0 min 0 W/m² 5,0 °C 0,4 °C 25,7 km/h (4 Bft)
17.12.2023 02:23 21,6 °C 6,7 °C 53 % 89 % 1035,8 hPa 0,0 l/m² 12,2 km/h (2 Bft) W-SW 246 ° 0 min 0 W/m² 5,0 °C 2,6 °C 14,5 km/h (3 Bft)
17.12.2023 02:24 21,6 °C 6,7 °C 53 % 89 % 1035,8 hPa 0,0 l/m² 10,7 km/h (2 Bft) SW 219 ° 0 min 0 W/m² 5,0 °C 3,5 °C 17,7 km/h (3 Bft)
17.12.2023 02:25 21,6 °C 6,7 °C 53 % 89 % 1035,9 hPa 0,0 l/m² 14,9 km/h (3 Bft) SW 225 ° 0 min 0 W/m² 5,0 °C 1,2 °C 27,4 km/h (5 Bft)
17.12.2023 02:26 21,6 °C 6,7 °C 53 % 89 % 1035,9 hPa 0,0 l/m² 16,9 km/h (3 Bft) SW 221 ° 0 min 0 W/m² 5,0 °C 0,3 °C 27,4 km/h (5 Bft)
17.12.2023 02:27 21,6 °C 6,7 °C 53 % 89 % 1035,8 hPa 0,0 l/m² 19,8 km/h (3 Bft) SW 229 ° 0 min 0 W/m² 5,0 °C -0,9 °C 30,6 km/h (5 Bft)
17.12.2023 02:28 21,6 °C 6,7 °C 53 % 89 % 1035,9 hPa 0,0 l/m² 15,1 km/h (3 Bft) SW 216 ° 0 min 0 W/m² 5,0 °C 1,1 °C 20,9 km/h (4 Bft)
17.12.2023 02:29 21,6 °C 6,7 °C 53 % 89 % 1035,9 hPa 0,0 l/m² 12,4 km/h (2 Bft) S-SW 211 ° 0 min 0 W/m² 5,0 °C 2,5 °C 19,3 km/h (3 Bft)
17.12.2023 02:32 21,6 °C 6,7 °C 53 % 89 % 1036,0 hPa 0,0 l/m² 15,6 km/h (3 Bft) W-SW 243 ° 0 min 0 W/m² 5,0 °C 0,9 °C 22,5 km/h (4 Bft)
17.12.2023 02:33 21,6 °C 6,7 °C 53 % 89 % 1036,0 hPa 0,0 l/m² 16,6 km/h (3 Bft) SW 221 ° 0 min 0 W/m² 5,0 °C 0,4 °C 25,7 km/h (4 Bft)
17.12.2023 02:34 21,6 °C 6,7 °C 53 % 89 % 1035,9 hPa 0,0 l/m² 18,9 km/h (3 Bft) SW 227 ° 0 min 0 W/m² 5,0 °C -0,6 °C 22,5 km/h (4 Bft)
17.12.2023 02:35 21,6 °C 6,7 °C 53 % 89 % 1035,8 hPa 0,0 l/m² 15,4 km/h (3 Bft) SW 218 ° 0 min 0 W/m² 5,0 °C 0,9 °C 19,3 km/h (3 Bft)
17.12.2023 02:36 21,6 °C 6,7 °C 53 % 89 % 1035,8 hPa 0,0 l/m² 14,6 km/h (3 Bft) W-SW 241 ° 0 min 0 W/m² 5,0 °C 1,3 °C 19,3 km/h (3 Bft)
17.12.2023 02:37 21,6 °C 6,7 °C 53 % 89 % 1035,8 hPa 0,0 l/m² 17,1 km/h (3 Bft) S-SW 212 ° 0 min 0 W/m² 5,0 °C 0,2 °C 27,4 km/h (5 Bft)
17.12.2023 02:38 21,6 °C 6,7 °C 53 % 89 % 1035,7 hPa 0,0 l/m² 17,8 km/h (3 Bft) W-SW 242 ° 0 min 0 W/m² 5,0 °C -0,1 °C 25,7 km/h (4 Bft)
17.12.2023 02:39 21,6 °C 6,7 °C 53 % 89 % 1035,7 hPa 0,0 l/m² 15,4 km/h (3 Bft) W-SW 238 ° 0 min 0 W/m² 5,0 °C 0,9 °C 20,9 km/h (4 Bft)
17.12.2023 02:42 21,6 °C 6,7 °C 53 % 89 % 1035,6 hPa 0,0 l/m² 17,6 km/h (3 Bft) SW 226 ° 0 min 0 W/m² 5,0 °C -0,0 °C 27,4 km/h (5 Bft)
17.12.2023 02:43 21,6 °C 6,6 °C 53 % 89 % 1035,7 hPa 0,0 l/m² 20,4 km/h (4 Bft) SW 219 ° 0 min 0 W/m² 4,9 °C -1,3 °C 25,7 km/h (4 Bft)
17.12.2023 02:44 21,6 °C 6,7 °C 53 % 89 % 1035,7 hPa 0,0 l/m² 23,9 km/h (4 Bft) SW 217 ° 0 min 0 W/m² 5,0 °C -2,3 °C 29,0 km/h (5 Bft)
17.12.2023 02:45 21,6 °C 6,7 °C 53 % 89 % 1035,7 hPa 0,0 l/m² 21,6 km/h (4 Bft) SW 232 ° 0 min 0 W/m² 5,0 °C -1,5 °C 27,4 km/h (5 Bft)
17.12.2023 02:46 21,6 °C 6,7 °C 53 % 89 % 1035,7 hPa 0,0 l/m² 18,2 km/h (3 Bft) SW 227 ° 0 min 0 W/m² 5,0 °C -0,3 °C 24,1 km/h (4 Bft)
17.12.2023 02:47 21,6 °C 6,7 °C 53 % 89 % 1035,7 hPa 0,0 l/m² 16,5 km/h (3 Bft) SW 219 ° 0 min 0 W/m² 5,0 °C 0,4 °C 20,9 km/h (4 Bft)
17.12.2023 02:48 21,6 °C 6,7 °C 53 % 89 % 1035,7 hPa 0,0 l/m² 22,8 km/h (4 Bft) S-SW 213 ° 0 min 0 W/m² 5,0 °C -2,0 °C 29,0 km/h (5 Bft)
17.12.2023 02:49 21,6 °C 6,7 °C 53 % 89 % 1035,6 hPa 0,0 l/m² 16,8 km/h (3 Bft) W-SW 255 ° 0 min 0 W/m² 5,0 °C 0,3 °C 24,1 km/h (4 Bft)
17.12.2023 02:52 21,6 °C 6,7 °C 53 % 89 % 1035,7 hPa 0,0 l/m² 18,7 km/h (3 Bft) SW 226 ° 0 min 0 W/m² 5,0 °C -0,5 °C 38,6 km/h (6 Bft)
17.12.2023 02:53 21,6 °C 6,7 °C 53 % 89 % 1035,7 hPa 0,0 l/m² 19,2 km/h (3 Bft) SW 227 ° 0 min 0 W/m² 5,0 °C -0,7 °C 25,7 km/h (4 Bft)
17.12.2023 02:54 21,6 °C 6,8 °C 53 % 89 % 1035,7 hPa 0,0 l/m² 21,1 km/h (4 Bft) S-SW 202 ° 0 min 0 W/m² 5,1 °C -1,2 °C 27,4 km/h (5 Bft)
17.12.2023 02:55 21,6 °C 6,8 °C 53 % 89 % 1035,7 hPa 0,0 l/m² 17,5 km/h (3 Bft) SW 227 ° 0 min 0 W/m² 5,1 °C 0,1 °C 22,5 km/h (4 Bft)
17.12.2023 02:56 21,6 °C 6,8 °C 53 % 89 % 1035,7 hPa 0,0 l/m² 16,5 km/h (3 Bft) SW 215 ° 0 min 0 W/m² 5,1 °C 0,6 °C 24,1 km/h (4 Bft)
17.12.2023 02:57 21,6 °C 6,8 °C 53 % 89 % 1035,7 hPa 0,0 l/m² 17,7 km/h (3 Bft) SW 232 ° 0 min 0 W/m² 5,1 °C 0,1 °C 25,7 km/h (4 Bft)
17.12.2023 02:58 21,6 °C 6,8 °C 53 % 89 % 1035,7 hPa 0,0 l/m² 18,5 km/h (3 Bft) SW 226 ° 0 min 0 W/m² 5,1 °C -0,3 °C 24,1 km/h (4 Bft)
17.12.2023 02:59 21,6 °C 6,8 °C 53 % 89 % 1035,7 hPa 0,0 l/m² 18,0 km/h (3 Bft) S-SW 211 ° 0 min 0 W/m² 5,1 °C -0,1 °C 22,5 km/h (4 Bft)
17.12.2023 03:00 21,6 °C 6,8 °C 53 % 89 % 1035,7 hPa 0,0 l/m² 17,7 km/h (3 Bft) SW 225 ° 0 min 0 W/m² 5,1 °C 0,1 °C 22,5 km/h (4 Bft)
17.12.2023 03:01 21,6 °C 6,8 °C 53 % 89 % 1035,6 hPa 0,0 l/m² 17,7 km/h (3 Bft) W-SW 247 ° 0 min 0 W/m² 5,1 °C 0,1 °C 25,7 km/h (4 Bft)
17.12.2023 03:10 21,5 °C 6,9 °C 53 % 89 % 1035,7 hPa 0,0 l/m² 14,5 km/h (3 Bft) W-SW 246 ° 0 min 0 W/m² 5,2 °C 1,6 °C 20,9 km/h (4 Bft)
17.12.2023 03:12 21,6 °C 6,9 °C 53 % 89 % 1035,7 hPa 0,0 l/m² 20,9 km/h (4 Bft) SW 232 ° 0 min 0 W/m² 5,2 °C -1,0 °C 35,4 km/h (5 Bft)
17.12.2023 03:13 21,5 °C 6,9 °C 53 % 89 % 1035,7 hPa 0,0 l/m² 18,5 km/h (3 Bft) W-SW 243 ° 0 min 0 W/m² 5,2 °C -0,1 °C 24,1 km/h (4 Bft)
17.12.2023 03:15 21,5 °C 6,9 °C 53 % 88 % 1035,8 hPa 0,0 l/m² 19,4 km/h (3 Bft) SW 236 ° 0 min 0 W/m² 5,1 °C -0,5 °C 25,7 km/h (4 Bft)
17.12.2023 03:17 21,5 °C 6,9 °C 53 % 88 % 1035,9 hPa 0,0 l/m² 18,3 km/h (3 Bft) S-SW 209 ° 0 min 0 W/m² 5,1 °C -0,1 °C 27,4 km/h (5 Bft)
17.12.2023 03:19 21,5 °C 6,9 °C 53 % 88 % 1035,9 hPa 0,0 l/m² 18,2 km/h (3 Bft) SW 227 ° 0 min 0 W/m² 5,1 °C -0,0 °C 25,7 km/h (4 Bft)
17.12.2023 03:20 21,5 °C 6,9 °C 53 % 88 % 1035,9 hPa 0,0 l/m² 21,1 km/h (4 Bft) SW 229 ° 0 min 0 W/m² 5,1 °C -1,1 °C 29,0 km/h (5 Bft)
17.12.2023 03:22 21,5 °C 6,9 °C 53 % 88 % 1036,0 hPa 0,0 l/m² 20,0 km/h (4 Bft) W-SW 243 ° 0 min 0 W/m² 5,1 °C -0,7 °C 29,0 km/h (5 Bft)
17.12.2023 03:23 21,5 °C 6,9 °C 53 % 88 % 1036,0 hPa 0,0 l/m² 20,6 km/h (4 Bft) SW 225 ° 0 min 0 W/m² 5,1 °C -0,9 °C 27,4 km/h (5 Bft)
17.12.2023 03:25 21,5 °C 6,9 °C 53 % 88 % 1036,0 hPa 0,0 l/m² 17,8 km/h (3 Bft) W-SW 249 ° 0 min 0 W/m² 5,1 °C 0,1 °C 27,4 km/h (5 Bft)
17.12.2023 03:27 21,5 °C 6,9 °C 53 % 88 % 1036,0 hPa 0,0 l/m² 21,1 km/h (4 Bft) S-SW 202 ° 0 min 0 W/m² 5,1 °C -1,1 °C 27,4 km/h (5 Bft)
17.12.2023 03:29 21,4 °C 6,9 °C 53 % 88 % 1035,9 hPa 0,0 l/m² 18,8 km/h (3 Bft) SW 234 ° 0 min 0 W/m² 5,1 °C -0,3 °C 25,7 km/h (4 Bft)
17.12.2023 03:30 21,5 °C 6,9 °C 53 % 88 % 1036,1 hPa 0,0 l/m² 14,8 km/h (3 Bft) SW 227 ° 0 min 0 W/m² 5,1 °C 1,5 °C 20,9 km/h (4 Bft)
17.12.2023 03:32 21,5 °C 6,9 °C 53 % 88 % 1036,1 hPa 0,0 l/m² 15,7 km/h (3 Bft) SW 219 ° 0 min 0 W/m² 5,1 °C 1,1 °C 22,5 km/h (4 Bft)
17.12.2023 03:33 21,5 °C 6,9 °C 53 % 88 % 1036,1 hPa 0,0 l/m² 16,7 km/h (3 Bft) W-SW 241 ° 0 min 0 W/m² 5,1 °C 0,6 °C 22,5 km/h (4 Bft)
17.12.2023 03:35 21,5 °C 6,9 °C 53 % 88 % 1036,2 hPa 0,0 l/m² 12,9 km/h (3 Bft) SW 236 ° 0 min 0 W/m² 5,1 °C 2,4 °C 19,3 km/h (3 Bft)
17.12.2023 03:37 21,5 °C 6,9 °C 53 % 88 % 1036,2 hPa 0,0 l/m² 14,6 km/h (3 Bft) SW 236 ° 0 min 0 W/m² 5,1 °C 1,6 °C 19,3 km/h (3 Bft)
17.12.2023 03:39 21,4 °C 6,9 °C 53 % 88 % 1036,2 hPa 0,0 l/m² 15,6 km/h (3 Bft) SW 221 ° 0 min 0 W/m² 5,1 °C 1,1 °C 22,5 km/h (4 Bft)
17.12.2023 03:40 21,5 °C 6,9 °C 53 % 88 % 1036,1 hPa 0,0 l/m² 17,0 km/h (3 Bft) SW 231 ° 0 min 0 W/m² 5,1 °C 0,5 °C 24,1 km/h (4 Bft)
17.12.2023 03:42 21,5 °C 6,8 °C 53 % 88 % 1036,2 hPa 0,0 l/m² 13,2 km/h (3 Bft) SW 227 ° 0 min 0 W/m² 5,0 °C 2,2 °C 19,3 km/h (3 Bft)
17.12.2023 03:43 21,5 °C 6,8 °C 53 % 88 % 1036,2 hPa 0,0 l/m² 14,6 km/h (3 Bft) SW 228 ° 0 min 0 W/m² 5,0 °C 1,5 °C 17,7 km/h (3 Bft)
17.12.2023 03:45 21,5 °C 6,8 °C 53 % 88 % 1036,2 hPa 0,0 l/m² 13,3 km/h (3 Bft) SW 214 ° 0 min 0 W/m² 5,0 °C 2,1 °C 20,9 km/h (4 Bft)
17.12.2023 03:47 21,4 °C 6,8 °C 53 % 88 % 1036,1 hPa 0,0 l/m² 17,1 km/h (3 Bft) SW 215 ° 0 min 0 W/m² 5,0 °C 0,3 °C 22,5 km/h (4 Bft)
17.12.2023 03:48 21,4 °C 6,7 °C 53 % 88 % 1036,2 hPa 0,0 l/m² 13,9 km/h (3 Bft) SW 217 ° 0 min 0 W/m² 4,9 °C 1,7 °C 17,7 km/h (3 Bft)
17.12.2023 03:50 21,4 °C 6,7 °C 53 % 88 % 1036,2 hPa 0,0 l/m² 14,7 km/h (3 Bft) SW 214 ° 0 min 0 W/m² 4,9 °C 1,3 °C 17,7 km/h (3 Bft)
17.12.2023 03:51 21,4 °C 6,7 °C 53 % 88 % 1036,1 hPa 0,0 l/m² 14,4 km/h (3 Bft) S-SW 202 ° 0 min 0 W/m² 4,9 °C 1,4 °C 17,7 km/h (3 Bft)
17.12.2023 03:52 21,4 °C 6,7 °C 53 % 88 % 1036,1 hPa 0,0 l/m² 12,8 km/h (3 Bft) S-SW 211 ° 0 min 0 W/m² 4,9 °C 2,3 °C 16,1 km/h (3 Bft)
17.12.2023 03:53 21,4 °C 6,7 °C 53 % 88 % 1036,0 hPa 0,0 l/m² 12,2 km/h (2 Bft) SW 215 ° 0 min 0 W/m² 4,9 °C 2,6 °C 14,5 km/h (3 Bft)
17.12.2023 03:54 21,4 °C 6,7 °C 53 % 88 % 1036,0 hPa 0,0 l/m² 13,8 km/h (3 Bft) SW 220 ° 0 min 0 W/m² 4,9 °C 1,7 °C 16,1 km/h (3 Bft)
17.12.2023 03:56 21,4 °C 6,6 °C 53 % 88 % 1035,9 hPa 0,0 l/m² 11,8 km/h (2 Bft) SW 219 ° 0 min 0 W/m² 4,8 °C 2,7 °C 16,1 km/h (3 Bft)
17.12.2023 03:58 21,4 °C 6,5 °C 53 % 88 % 1036,0 hPa 0,0 l/m² 12,3 km/h (2 Bft) SW 219 ° 0 min 0 W/m² 4,7 °C 2,3 °C 16,1 km/h (3 Bft)
17.12.2023 04:00 21,4 °C 6,5 °C 53 % 89 % 1036,0 hPa 0,0 l/m² 11,7 km/h (2 Bft) SW 225 ° 0 min 0 W/m² 4,8 °C 2,7 °C 14,5 km/h (3 Bft)
17.12.2023 04:01 21,4 °C 6,4 °C 53 % 89 % 1036,0 hPa 0,0 l/m² 13,3 km/h (3 Bft) SW 214 ° 0 min 0 W/m² 4,7 °C 1,6 °C 16,1 km/h (3 Bft)
17.12.2023 04:02 21,4 °C 6,4 °C 53 % 89 % 1035,9 hPa 0,0 l/m² 12,1 km/h (2 Bft) SW 216 ° 0 min 0 W/m² 4,7 °C 2,3 °C 17,7 km/h (3 Bft)
17.12.2023 04:03 21,4 °C 6,4 °C 53 % 89 % 1036,0 hPa 0,0 l/m² 11,9 km/h (2 Bft) SW 214 ° 0 min 0 W/m² 4,7 °C 2,4 °C 14,5 km/h (3 Bft)
17.12.2023 04:04 21,4 °C 6,4 °C 53 % 89 % 1036,0 hPa 0,0 l/m² 12,4 km/h (2 Bft) S-SW 205 ° 0 min 0 W/m² 4,7 °C 2,1 °C 17,7 km/h (3 Bft)
17.12.2023 04:06 21,4 °C 6,4 °C 53 % 89 % 1035,9 hPa 0,0 l/m² 12,1 km/h (2 Bft) SW 218 ° 0 min 0 W/m² 4,7 °C 2,3 °C 17,7 km/h (3 Bft)
17.12.2023 04:08 21,4 °C 6,3 °C 53 % 89 % 1035,9 hPa 0,0 l/m² 12,7 km/h (3 Bft) SW 216 ° 0 min 0 W/m² 4,6 °C 1,9 °C 16,1 km/h (3 Bft)
17.12.2023 04:10 21,4 °C 6,3 °C 53 % 89 % 1035,8 hPa 0,0 l/m² 14,0 km/h (3 Bft) S-SW 205 ° 0 min 0 W/m² 4,6 °C 1,2 °C 16,1 km/h (3 Bft)
17.12.2023 04:11 21,4 °C 6,3 °C 53 % 89 % 1035,7 hPa 0,0 l/m² 12,4 km/h (2 Bft) S-SW 205 ° 0 min 0 W/m² 4,6 °C 2,0 °C 16,1 km/h (3 Bft)
17.12.2023 04:12 21,4 °C 6,3 °C 53 % 89 % 1035,7 hPa 0,0 l/m² 11,9 km/h (2 Bft) SW 221 ° 0 min 0 W/m² 4,6 °C 2,3 °C 14,5 km/h (3 Bft)
17.12.2023 04:13 21,4 °C 6,3 °C 53 % 89 % 1035,7 hPa 0,0 l/m² 12,1 km/h (2 Bft) S-SW 194 ° 0 min 0 W/m² 4,6 °C 2,2 °C 16,1 km/h (3 Bft)
17.12.2023 04:14 21,4 °C 6,3 °C 53 % 89 % 1035,8 hPa 0,0 l/m² 11,7 km/h (2 Bft) S-SW 204 ° 0 min 0 W/m² 4,6 °C 2,4 °C 14,5 km/h (3 Bft)
17.12.2023 04:16 21,4 °C 6,3 °C 53 % 89 % 1035,8 hPa 0,0 l/m² 12,7 km/h (3 Bft) SW 223 ° 0 min 0 W/m² 4,6 °C 1,9 °C 14,5 km/h (3 Bft)
17.12.2023 04:18 21,4 °C 6,2 °C 53 % 89 % 1035,8 hPa 0,0 l/m² 13,3 km/h (3 Bft) S-SW 206 ° 0 min 0 W/m² 4,5 °C 1,4 °C 16,1 km/h (3 Bft)
17.12.2023 04:20 21,4 °C 6,2 °C 53 % 89 % 1035,8 hPa 0,0 l/m² 13,5 km/h (3 Bft) SW 215 ° 0 min 0 W/m² 4,5 °C 1,3 °C 19,3 km/h (3 Bft)
17.12.2023 04:21 21,4 °C 6,2 °C 53 % 89 % 1035,8 hPa 0,0 l/m² 12,9 km/h (3 Bft) S-SW 208 ° 0 min 0 W/m² 4,5 °C 1,6 °C 14,5 km/h (3 Bft)
17.12.2023 04:22 21,4 °C 6,2 °C 53 % 89 % 1035,8 hPa 0,0 l/m² 12,0 km/h (2 Bft) SW 224 ° 0 min 0 W/m² 4,5 °C 2,1 °C 17,7 km/h (3 Bft)
17.12.2023 04:23 21,4 °C 6,2 °C 53 % 89 % 1035,8 hPa 0,0 l/m² 12,5 km/h (2 Bft) S-SW 207 ° 0 min 0 W/m² 4,5 °C 1,8 °C 14,5 km/h (3 Bft)
17.12.2023 04:24 21,4 °C 6,2 °C 53 % 89 % 1035,8 hPa 0,0 l/m² 11,3 km/h (2 Bft) S-SW 213 ° 0 min 0 W/m² 4,5 °C 2,6 °C 12,9 km/h (3 Bft)
17.12.2023 04:26 21,4 °C 6,2 °C 53 % 90 % 1035,8 hPa 0,0 l/m² 12,9 km/h (3 Bft) S-SW 205 ° 0 min 0 W/m² 4,7 °C 1,6 °C 16,1 km/h (3 Bft)
17.12.2023 04:28 21,4 °C 6,2 °C 53 % 90 % 1035,8 hPa 0,0 l/m² 11,5 km/h (2 Bft) S-SW 208 ° 0 min 0 W/m² 4,7 °C 2,4 °C 16,1 km/h (3 Bft)
17.12.2023 04:30 21,4 °C 6,2 °C 53 % 90 % 1035,8 hPa 0,0 l/m² 14,6 km/h (3 Bft) SW 217 ° 0 min 0 W/m² 4,7 °C 0,7 °C 19,3 km/h (3 Bft)
17.12.2023 04:31 21,4 °C 6,2 °C 53 % 90 % 1035,8 hPa 0,0 l/m² 13,1 km/h (3 Bft) S-SW 205 ° 0 min 0 W/m² 4,7 °C 1,5 °C 16,1 km/h (3 Bft)
17.12.2023 04:32 21,4 °C 6,2 °C 53 % 90 % 1035,8 hPa 0,0 l/m² 13,7 km/h (3 Bft) S-SW 196 ° 0 min 0 W/m² 4,7 °C 1,2 °C 19,3 km/h (3 Bft)
17.12.2023 04:33 21,4 °C 6,2 °C 53 % 90 % 1035,9 hPa 0,0 l/m² 12,2 km/h (2 Bft) S-SW 198 ° 0 min 0 W/m² 4,7 °C 2,0 °C 14,5 km/h (3 Bft)
17.12.2023 04:34 21,4 °C 6,2 °C 53 % 90 % 1035,8 hPa 0,0 l/m² 12,1 km/h (2 Bft) S-SW 194 ° 0 min 0 W/m² 4,7 °C 2,1 °C 14,5 km/h (3 Bft)
17.12.2023 04:36 21,4 °C 6,2 °C 53 % 90 % 1035,8 hPa 0,0 l/m² 12,6 km/h (3 Bft) S-SW 203 ° 0 min 0 W/m² 4,7 °C 1,8 °C 16,1 km/h (3 Bft)
17.12.2023 04:38 21,4 °C 6,2 °C 53 % 90 % 1035,8 hPa 0,0 l/m² 9,3 km/h (2 Bft) S-SW 200 ° 0 min 0 W/m² 4,7 °C 3,9 °C 12,9 km/h (3 Bft)
17.12.2023 04:40 21,5 °C 6,2 °C 53 % 90 % 1035,7 hPa 0,0 l/m² 10,1 km/h (2 Bft) S-SW 206 ° 0 min 0 W/m² 4,7 °C 3,3 °C 14,5 km/h (3 Bft)
17.12.2023 04:41 21,5 °C 6,2 °C 53 % 90 % 1035,7 hPa 0,0 l/m² 10,9 km/h (2 Bft) S-SW 204 ° 0 min 0 W/m² 4,7 °C 2,8 °C 16,1 km/h (3 Bft)
17.12.2023 04:42 21,4 °C 6,2 °C 53 % 90 % 1035,8 hPa 0,0 l/m² 11,2 km/h (2 Bft) S-SW 209 ° 0 min 0 W/m² 4,7 °C 2,6 °C 14,5 km/h (3 Bft)
17.12.2023 04:43 21,5 °C 6,2 °C 53 % 90 % 1035,8 hPa 0,0 l/m² 11,1 km/h (2 Bft) S-SW 211 ° 0 min 0 W/m² 4,7 °C 2,7 °C 14,5 km/h (3 Bft)
17.12.2023 04:44 21,4 °C 6,2 °C 53 % 90 % 1035,7 hPa 0,0 l/m² 10,5 km/h (2 Bft) S-SW 212 ° 0 min 0 W/m² 4,7 °C 3,1 °C 14,5 km/h (3 Bft)
17.12.2023 04:46 21,4 °C 6,2 °C 53 % 90 % 1035,8 hPa 0,0 l/m² 9,9 km/h (2 Bft) S-SW 213 ° 0 min 0 W/m² 4,7 °C 3,5 °C 12,9 km/h (3 Bft)
17.12.2023 04:48 21,4 °C 6,2 °C 53 % 90 % 1035,7 hPa 0,0 l/m² 10,3 km/h (2 Bft) S-SW 195 ° 0 min 0 W/m² 4,7 °C 3,2 °C 19,3 km/h (3 Bft)
17.12.2023 04:50 21,4 °C 6,2 °C 53 % 90 % 1035,8 hPa 0,0 l/m² 11,2 km/h (2 Bft) S-SW 210 ° 0 min 0 W/m² 4,7 °C 2,6 °C 16,1 km/h (3 Bft)
17.12.2023 04:51 21,4 °C 6,1 °C 53 % 90 % 1035,7 hPa 0,0 l/m² 11,1 km/h (2 Bft) S-SW 211 ° 0 min 0 W/m² 4,6 °C 2,6 °C 14,5 km/h (3 Bft)
17.12.2023 04:52 21,5 °C 6,2 °C 53 % 90 % 1035,8 hPa 0,0 l/m² 13,0 km/h (3 Bft) SW 223 ° 0 min 0 W/m² 4,7 °C 1,6 °C 16,1 km/h (3 Bft)
17.12.2023 04:53 21,5 °C 6,2 °C 53 % 90 % 1035,7 hPa 0,0 l/m² 13,7 km/h (3 Bft) S-SW 202 ° 0 min 0 W/m² 4,7 °C 1,2 °C 17,7 km/h (3 Bft)
17.12.2023 04:54 21,4 °C 6,2 °C 53 % 90 % 1035,8 hPa 0,0 l/m² 10,7 km/h (2 Bft) S-SW 212 ° 0 min 0 W/m² 4,7 °C 2,9 °C 16,1 km/h (3 Bft)
17.12.2023 04:56 21,5 °C 6,2 °C 53 % 90 % 1035,8 hPa 0,0 l/m² 11,4 km/h (2 Bft) S-SW 202 ° 0 min 0 W/m² 4,7 °C 2,5 °C 14,5 km/h (3 Bft)
17.12.2023 04:58 21,4 °C 6,2 °C 53 % 90 % 1035,8 hPa 0,0 l/m² 9,0 km/h (2 Bft) SW 226 ° 0 min 0 W/m² 4,7 °C 4,1 °C 12,9 km/h (3 Bft)
17.12.2023 05:00 21,5 °C 6,2 °C 53 % 90 % 1035,8 hPa 0,0 l/m² 11,0 km/h (2 Bft) S-SW 205 ° 0 min 0 W/m² 4,7 °C 2,7 °C 16,1 km/h (3 Bft)
17.12.2023 05:01 21,4 °C 6,2 °C 53 % 91 % 1035,7 hPa 0,0 l/m² 13,3 km/h (3 Bft) S-SW 198 ° 0 min 0 W/m² 4,8 °C 1,4 °C 17,7 km/h (3 Bft)
17.12.2023 05:02 21,5 °C 6,3 °C 53 % 91 % 1035,7 hPa 0,0 l/m² 11,9 km/h (2 Bft) SW 215 ° 0 min 0 W/m² 4,9 °C 2,3 °C 14,5 km/h (3 Bft)
17.12.2023 05:03 21,4 °C 6,3 °C 53 % 91 % 1035,7 hPa 0,0 l/m² 13,0 km/h (3 Bft) S-SW 211 ° 0 min 0 W/m² 4,9 °C 1,7 °C 17,7 km/h (3 Bft)
17.12.2023 05:05 21,5 °C 6,2 °C 53 % 91 % 1035,6 hPa 0,0 l/m² 14,4 km/h (3 Bft) S-SW 200 ° 0 min 0 W/m² 4,8 °C 0,8 °C 22,5 km/h (4 Bft)
17.12.2023 05:07 21,5 °C 6,3 °C 53 % 91 % 1035,5 hPa 0,0 l/m² 14,5 km/h (3 Bft) SW 217 ° 0 min 0 W/m² 4,9 °C 0,9 °C 20,9 km/h (4 Bft)
17.12.2023 05:09 21,5 °C 6,3 °C 53 % 91 % 1035,6 hPa 0,0 l/m² 14,2 km/h (3 Bft) SW 229 ° 0 min 0 W/m² 4,9 °C 1,1 °C 20,9 km/h (4 Bft)
17.12.2023 05:11 21,4 °C 6,3 °C 53 % 91 % 1035,5 hPa 0,0 l/m² 15,8 km/h (3 Bft) SW 226 ° 0 min 0 W/m² 4,9 °C 0,3 °C 20,9 km/h (4 Bft)
17.12.2023 05:12 21,5 °C 6,4 °C 53 % 91 % 1035,6 hPa 0,0 l/m² 16,1 km/h (3 Bft) SW 226 ° 0 min 0 W/m² 5,0 °C 0,3 °C 19,3 km/h (3 Bft)
17.12.2023 05:13 21,4 °C 6,4 °C 53 % 91 % 1035,5 hPa 0,0 l/m² 14,0 km/h (3 Bft) SW 216 ° 0 min 0 W/m² 5,0 °C 1,3 °C 19,3 km/h (3 Bft)
17.12.2023 05:16 21,5 °C 6,4 °C 53 % 91 % 1035,6 hPa 0,0 l/m² 15,5 km/h (3 Bft) SW 214 ° 0 min 0 W/m² 5,0 °C 0,5 °C 22,5 km/h (4 Bft)
17.12.2023 05:18 21,5 °C 6,4 °C 53 % 91 % 1035,6 hPa 0,0 l/m² 12,7 km/h (3 Bft) S-SW 207 ° 0 min 0 W/m² 5,0 °C 2,0 °C 19,3 km/h (3 Bft)
17.12.2023 05:20 21,5 °C 6,5 °C 53 % 91 % 1035,6 hPa 0,0 l/m² 15,5 km/h (3 Bft) SW 224 ° 0 min 0 W/m² 5,1 °C 0,7 °C 24,1 km/h (4 Bft)
17.12.2023 05:21 21,5 °C 6,5 °C 53 % 91 % 1035,6 hPa 0,0 l/m² 17,0 km/h (3 Bft) SW 215 ° 0 min 0 W/m² 5,1 °C -0,0 °C 22,5 km/h (4 Bft)
17.12.2023 05:22 21,4 °C 6,6 °C 53 % 91 % 1035,7 hPa 0,0 l/m² 12,3 km/h (2 Bft) SW 225 ° 0 min 0 W/m² 5,2 °C 2,4 °C 19,3 km/h (3 Bft)
17.12.2023 05:23 21,4 °C 6,6 °C 53 % 91 % 1035,6 hPa 0,0 l/m² 18,2 km/h (3 Bft) S-SW 213 ° 0 min 0 W/m² 5,2 °C -0,4 °C 25,7 km/h (4 Bft)
17.12.2023 05:25 21,4 °C 6,7 °C 53 % 91 % 1035,6 hPa 0,0 l/m² 17,8 km/h (3 Bft) SW 234 ° 0 min 0 W/m² 5,3 °C -0,1 °C 25,7 km/h (4 Bft)
17.12.2023 05:27 21,5 °C 6,7 °C 53 % 91 % 1035,5 hPa 0,0 l/m² 14,4 km/h (3 Bft) SW 222 ° 0 min 0 W/m² 5,3 °C 1,4 °C 20,9 km/h (4 Bft)
17.12.2023 05:29 21,5 °C 6,7 °C 53 % 91 % 1035,6 hPa 0,0 l/m² 14,6 km/h (3 Bft) SW 220 ° 0 min 0 W/m² 5,3 °C 1,3 °C 19,3 km/h (3 Bft)
17.12.2023 05:31 21,5 °C 6,7 °C 53 % 91 % 1035,5 hPa 0,0 l/m² 16,0 km/h (3 Bft) S-SW 207 ° 0 min 0 W/m² 5,3 °C 0,7 °C 20,9 km/h (4 Bft)
17.12.2023 05:32 21,5 °C 6,7 °C 53 % 91 % 1035,5 hPa 0,0 l/m² 15,7 km/h (3 Bft) SW 215 ° 0 min 0 W/m² 5,3 °C 0,8 °C 19,3 km/h (3 Bft)
17.12.2023 05:33 21,5 °C 6,8 °C 53 % 91 % 1035,6 hPa 0,0 l/m² 17,2 km/h (3 Bft) SW 220 ° 0 min 0 W/m² 5,4 °C 0,3 °C 20,9 km/h (4 Bft)
17.12.2023 05:35 21,5 °C 6,7 °C 53 % 90 % 1035,6 hPa 0,0 l/m² 15,2 km/h (3 Bft) SW 224 ° 0 min 0 W/m² 5,2 °C 1,0 °C 22,5 km/h (4 Bft)
17.12.2023 05:37 21,5 °C 6,8 °C 53 % 90 % 1035,6 hPa 0,0 l/m² 12,1 km/h (2 Bft) SW 221 ° 0 min 0 W/m² 5,3 °C 2,8 °C 16,1 km/h (3 Bft)
17.12.2023 05:39 21,4 °C 6,8 °C 53 % 90 % 1035,7 hPa 0,0 l/m² 12,6 km/h (3 Bft) SW 214 ° 0 min 0 W/m² 5,3 °C 2,5 °C 16,1 km/h (3 Bft)
17.12.2023 05:40 21,5 °C 6,8 °C 53 % 90 % 1035,6 hPa 0,0 l/m² 11,4 km/h (2 Bft) SW 217 ° 0 min 0 W/m² 5,3 °C 3,2 °C 14,5 km/h (3 Bft)
17.12.2023 05:42 21,5 °C 6,8 °C 53 % 90 % 1035,6 hPa 0,0 l/m² 13,5 km/h (3 Bft) S-SW 208 ° 0 min 0 W/m² 5,3 °C 2,0 °C 19,3 km/h (3 Bft)
17.12.2023 05:43 21,5 °C 6,8 °C 53 % 90 % 1035,6 hPa 0,0 l/m² 12,1 km/h (2 Bft) SW 221 ° 0 min 0 W/m² 5,3 °C 2,8 °C 16,1 km/h (3 Bft)
17.12.2023 05:45 21,5 °C 6,8 °C 53 % 90 % 1035,7 hPa 0,0 l/m² 13,4 km/h (3 Bft) S-SW 204 ° 0 min 0 W/m² 5,3 °C 2,1 °C 20,9 km/h (4 Bft)
17.12.2023 05:47 21,4 °C 6,8 °C 53 % 90 % 1035,6 hPa 0,0 l/m² 14,5 km/h (3 Bft) S-SW 211 ° 0 min 0 W/m² 5,3 °C 1,5 °C 19,3 km/h (3 Bft)
17.12.2023 05:49 21,5 °C 6,9 °C 53 % 90 % 1035,7 hPa 0,0 l/m² 15,4 km/h (3 Bft) SW 218 ° 0 min 0 W/m² 5,4 °C 1,2 °C 19,3 km/h (3 Bft)
17.12.2023 05:51 21,5 °C 6,9 °C 53 % 90 % 1035,6 hPa 0,0 l/m² 14,9 km/h (3 Bft) S-SW 207 ° 0 min 0 W/m² 5,4 °C 1,4 °C 19,3 km/h (3 Bft)
17.12.2023 05:52 21,4 °C 6,9 °C 53 % 90 % 1035,6 hPa 0,0 l/m² 13,7 km/h (3 Bft) S-SW 208 ° 0 min 0 W/m² 5,4 °C 2,0 °C 16,1 km/h (3 Bft)
17.12.2023 05:53 21,4 °C 6,9 °C 53 % 90 % 1035,6 hPa 0,0 l/m² 15,0 km/h (3 Bft) SW 217 ° 0 min 0 W/m² 5,4 °C 1,4 °C 20,9 km/h (4 Bft)
17.12.2023 05:56 21,5 °C 6,9 °C 53 % 90 % 1035,6 hPa 0,0 l/m² 14,1 km/h (3 Bft) SW 223 ° 0 min 0 W/m² 5,4 °C 1,8 °C 19,3 km/h (3 Bft)
17.12.2023 05:58 21,5 °C 6,9 °C 53 % 90 % 1035,6 hPa 0,0 l/m² 13,6 km/h (3 Bft) SW 232 ° 0 min 0 W/m² 5,4 °C 2,1 °C 17,7 km/h (3 Bft)
17.12.2023 06:00 21,5 °C 6,9 °C 53 % 90 % 1035,7 hPa 0,0 l/m² 12,7 km/h (3 Bft) SW 221 ° 0 min 0 W/m² 5,4 °C 2,6 °C 17,7 km/h (3 Bft)
17.12.2023 06:01 21,4 °C 6,9 °C 53 % 90 % 1035,7 hPa 0,0 l/m² 17,9 km/h (3 Bft) SW 217 ° 0 min 0 W/m² 5,4 °C 0,1 °C 20,9 km/h (4 Bft)
17.12.2023 06:02 21,4 °C 6,9 °C 53 % 90 % 1035,7 hPa 0,0 l/m² 15,1 km/h (3 Bft) S-SW 207 ° 0 min 0 W/m² 5,4 °C 1,3 °C 19,3 km/h (3 Bft)
17.12.2023 06:03 21,5 °C 6,9 °C 53 % 90 % 1035,7 hPa 0,0 l/m² 14,7 km/h (3 Bft) SW 219 ° 0 min 0 W/m² 5,4 °C 1,5 °C 17,7 km/h (3 Bft)
17.12.2023 06:05 21,5 °C 6,9 °C 53 % 90 % 1035,7 hPa 0,0 l/m² 13,9 km/h (3 Bft) SW 228 ° 0 min 0 W/m² 5,4 °C 1,9 °C 17,7 km/h (3 Bft)
17.12.2023 06:07 21,5 °C 6,9 °C 53 % 90 % 1035,5 hPa 0,0 l/m² 15,5 km/h (3 Bft) SW 217 ° 0 min 0 W/m² 5,4 °C 1,1 °C 20,9 km/h (4 Bft)
17.12.2023 06:09 21,4 °C 6,9 °C 53 % 90 % 1035,6 hPa 0,0 l/m² 13,5 km/h (3 Bft) SW 215 ° 0 min 0 W/m² 5,4 °C 2,1 °C 17,7 km/h (3 Bft)
17.12.2023 06:11 21,4 °C 6,9 °C 53 % 90 % 1035,6 hPa 0,0 l/m² 14,6 km/h (3 Bft) S-SW 208 ° 0 min 0 W/m² 5,4 °C 1,6 °C 19,3 km/h (3 Bft)
17.12.2023 06:12 21,5 °C 6,9 °C 53 % 90 % 1035,6 hPa 0,0 l/m² 16,0 km/h (3 Bft) W-SW 243 ° 0 min 0 W/m² 5,4 °C 0,9 °C 22,5 km/h (4 Bft)
17.12.2023 06:13 21,4 °C 6,9 °C 53 % 90 % 1035,6 hPa 0,0 l/m² 17,4 km/h (3 Bft) SW 216 ° 0 min 0 W/m² 5,4 °C 0,3 °C 20,9 km/h (4 Bft)
17.12.2023 06:15 21,4 °C 6,9 °C 53 % 90 % 1035,7 hPa 0,0 l/m² 14,9 km/h (3 Bft) SW 222 ° 0 min 0 W/m² 5,4 °C 1,4 °C 20,9 km/h (4 Bft)
17.12.2023 06:17 21,4 °C 6,9 °C 53 % 90 % 1035,8 hPa 0,0 l/m² 11,4 km/h (2 Bft) SW 219 ° 0 min 0 W/m² 5,4 °C 3,3 °C 14,5 km/h (3 Bft)
17.12.2023 06:19 21,5 °C 6,9 °C 53 % 90 % 1035,9 hPa 0,0 l/m² 12,5 km/h (2 Bft) SW 231 ° 0 min 0 W/m² 5,4 °C 2,7 °C 19,3 km/h (3 Bft)
17.12.2023 06:21 21,5 °C 6,9 °C 53 % 90 % 1035,8 hPa 0,0 l/m² 11,9 km/h (2 Bft) S-SW 209 ° 0 min 0 W/m² 5,4 °C 3,0 °C 20,9 km/h (4 Bft)
17.12.2023 06:22 21,5 °C 6,9 °C 53 % 90 % 1035,9 hPa 0,0 l/m² 13,5 km/h (3 Bft) SW 227 ° 0 min 0 W/m² 5,4 °C 2,1 °C 17,7 km/h (3 Bft)
17.12.2023 06:23 21,4 °C 6,9 °C 53 % 90 % 1035,9 hPa 0,0 l/m² 11,7 km/h (2 Bft) SW 219 ° 0 min 0 W/m² 5,4 °C 3,1 °C 16,1 km/h (3 Bft)
17.12.2023 06:25 21,4 °C 6,9 °C 53 % 90 % 1035,8 hPa 0,0 l/m² 12,6 km/h (3 Bft) SW 223 ° 0 min 0 W/m² 5,4 °C 2,6 °C 17,7 km/h (3 Bft)
17.12.2023 06:27 21,5 °C 6,9 °C 53 % 90 % 1035,8 hPa 0,0 l/m² 10,6 km/h (2 Bft) SW 223 ° 0 min 0 W/m² 5,4 °C 3,8 °C 12,9 km/h (3 Bft)
17.12.2023 06:29 21,4 °C 6,9 °C 53 % 90 % 1035,8 hPa 0,0 l/m² 13,3 km/h (3 Bft) W-SW 239 ° 0 min 0 W/m² 5,4 °C 2,2 °C 22,5 km/h (4 Bft)
17.12.2023 06:31 21,4 °C 6,9 °C 53 % 90 % 1035,9 hPa 0,0 l/m² 13,3 km/h (3 Bft) SW 227 ° 0 min 0 W/m² 5,4 °C 2,2 °C 17,7 km/h (3 Bft)
17.12.2023 06:32 21,4 °C 7,0 °C 53 % 90 % 1035,7 hPa 0,0 l/m² 9,2 km/h (2 Bft) SW 235 ° 0 min 0 W/m² 5,5 °C 4,8 °C 12,9 km/h (3 Bft)
17.12.2023 06:33 21,4 °C 7,0 °C 53 % 90 % 1035,8 hPa 0,0 l/m² 13,8 km/h (3 Bft) W-SW 242 ° 0 min 0 W/m² 5,5 °C 2,1 °C 16,1 km/h (3 Bft)
17.12.2023 06:36 21,4 °C 7,0 °C 53 % 90 % 1035,8 hPa 0,0 l/m² 10,1 km/h (2 Bft) SW 225 ° 0 min 0 W/m² 5,5 °C 4,2 °C 17,7 km/h (3 Bft)
17.12.2023 06:38 21,4 °C 7,0 °C 53 % 90 % 1035,8 hPa 0,0 l/m² 13,2 km/h (3 Bft) SW 236 ° 0 min 0 W/m² 5,5 °C 2,4 °C 19,3 km/h (3 Bft)
17.12.2023 06:40 21,4 °C 7,0 °C 54 % 90 % 1035,7 hPa 0,0 l/m² 12,6 km/h (3 Bft) W-SW 251 ° 0 min 0 W/m² 5,5 °C 2,7 °C 17,7 km/h (3 Bft)
17.12.2023 06:41 21,4 °C 7,0 °C 53 % 90 % 1035,8 hPa 0,0 l/m² 11,2 km/h (2 Bft) SW 229 ° 0 min 0 W/m² 5,5 °C 3,5 °C 16,1 km/h (3 Bft)
17.12.2023 06:42 21,4 °C 7,1 °C 54 % 90 % 1035,8 hPa 0,0 l/m² 15,0 km/h (3 Bft) W-SW 239 ° 0 min 0 W/m² 5,6 °C 1,6 °C 17,7 km/h (3 Bft)
17.12.2023 06:43 21,4 °C 7,1 °C 54 % 90 % 1035,9 hPa 0,0 l/m² 13,0 km/h (3 Bft) SW 215 ° 0 min 0 W/m² 5,6 °C 2,6 °C 16,1 km/h (3 Bft)
17.12.2023 06:45 21,4 °C 7,1 °C 54 % 90 % 1035,9 hPa 0,0 l/m² 17,7 km/h (3 Bft) W-SW 243 ° 0 min 0 W/m² 5,6 °C 0,4 °C 27,4 km/h (5 Bft)
17.12.2023 06:46 21,4 °C 7,1 °C 53 % 90 % 1035,8 hPa 0,0 l/m² 17,7 km/h (3 Bft) W-SW 239 ° 0 min 0 W/m² 5,6 °C 0,4 °C 19,3 km/h (3 Bft)
17.12.2023 06:48 21,4 °C 7,1 °C 53 % 90 % 1035,8 hPa 0,0 l/m² 16,3 km/h (3 Bft) SW 220 ° 0 min 0 W/m² 5,6 °C 1,0 °C 24,1 km/h (4 Bft)
17.12.2023 06:50 21,4 °C 7,1 °C 54 % 90 % 1035,8 hPa 0,0 l/m² 14,4 km/h (3 Bft) W-SW 240 ° 0 min 0 W/m² 5,6 °C 1,9 °C 20,9 km/h (4 Bft)
17.12.2023 06:51 21,4 °C 7,1 °C 54 % 90 % 1035,8 hPa 0,0 l/m² 19,3 km/h (3 Bft) SW 226 ° 0 min 0 W/m² 5,6 °C -0,2 °C 24,1 km/h (4 Bft)
17.12.2023 06:52 21,4 °C 7,2 °C 54 % 90 % 1035,8 hPa 0,0 l/m² 19,5 km/h (3 Bft) W-SW 250 ° 0 min 0 W/m² 5,7 °C -0,1 °C 22,5 km/h (4 Bft)
17.12.2023 06:53 21,4 °C 7,2 °C 54 % 90 % 1035,7 hPa 0,0 l/m² 15,7 km/h (3 Bft) SW 220 ° 0 min 0 W/m² 5,7 °C 1,4 °C 22,5 km/h (4 Bft)
17.12.2023 06:56 21,4 °C 7,2 °C 54 % 89 % 1035,8 hPa 0,0 l/m² 12,8 km/h (3 Bft) S-SW 209 ° 0 min 0 W/m² 5,5 °C 2,8 °C 20,9 km/h (4 Bft)
17.12.2023 06:58 21,4 °C 7,2 °C 54 % 89 % 1035,7 hPa 0,0 l/m² 13,4 km/h (3 Bft) W-SW 237 ° 0 min 0 W/m² 5,5 °C 2,5 °C 20,9 km/h (4 Bft)
17.12.2023 07:00 21,4 °C 7,2 °C 54 % 89 % 1035,8 hPa 0,0 l/m² 14,2 km/h (3 Bft) SW 220 ° 0 min 0 W/m² 5,5 °C 2,1 °C 19,3 km/h (3 Bft)
17.12.2023 07:01 21,4 °C 7,2 °C 54 % 89 % 1035,8 hPa 0,0 l/m² 12,9 km/h (3 Bft) W-SW 242 ° 0 min 0 W/m² 5,5 °C 2,8 °C 20,9 km/h (4 Bft)
17.12.2023 07:02 21,4 °C 7,2 °C 54 % 89 % 1035,9 hPa 0,0 l/m² 12,1 km/h (2 Bft) SW 227 ° 0 min 0 W/m² 5,5 °C 3,2 °C 17,7 km/h (3 Bft)
17.12.2023 07:03 21,4 °C 7,2 °C 54 % 89 % 1035,9 hPa 0,0 l/m² 12,0 km/h (2 Bft) S-SW 213 ° 0 min 0 W/m² 5,5 °C 3,3 °C 17,7 km/h (3 Bft)
17.12.2023 07:06 21,4 °C 7,2 °C 54 % 89 % 1035,8 hPa 0,0 l/m² 10,7 km/h (2 Bft) SW 229 ° 0 min 0 W/m² 5,5 °C 4,1 °C 17,7 km/h (3 Bft)
17.12.2023 07:08 21,4 °C 7,1 °C 54 % 89 % 1035,9 hPa 0,0 l/m² 10,8 km/h (2 Bft) W-SW 246 ° 0 min 0 W/m² 5,4 °C 3,9 °C 14,5 km/h (3 Bft)
17.12.2023 07:10 21,4 °C 7,2 °C 54 % 89 % 1035,8 hPa 0,0 l/m² 11,0 km/h (2 Bft) W-SW 240 ° 0 min 0 W/m² 5,5 °C 3,9 °C 14,5 km/h (3 Bft)
17.12.2023 07:11 21,4 °C 7,1 °C 54 % 89 % 1035,8 hPa 0,0 l/m² 12,0 km/h (2 Bft) W-SW 239 ° 0 min 0 W/m² 5,4 °C 3,2 °C 17,7 km/h (3 Bft)
17.12.2023 07:12 21,4 °C 7,2 °C 54 % 89 % 1035,9 hPa 0,0 l/m² 13,5 km/h (3 Bft) W-SW 238 ° 0 min 0 W/m² 5,5 °C 2,5 °C 16,1 km/h (3 Bft)
17.12.2023 07:13 21,4 °C 7,2 °C 54 % 89 % 1035,9 hPa 0,0 l/m² 13,1 km/h (3 Bft) SW 221 ° 0 min 0 W/m² 5,5 °C 2,7 °C 17,7 km/h (3 Bft)
17.12.2023 07:16 21,4 °C 7,2 °C 54 % 89 % 1035,9 hPa 0,0 l/m² 12,6 km/h (3 Bft) SW 225 ° 0 min 0 W/m² 5,5 °C 3,0 °C 19,3 km/h (3 Bft)
17.12.2023 07:18 21,4 °C 7,2 °C 54 % 89 % 1035,9 hPa 0,0 l/m² 12,5 km/h (2 Bft) SW 225 ° 0 min 0 W/m² 5,5 °C 3,0 °C 22,5 km/h (4 Bft)
17.12.2023 07:20 21,4 °C 7,2 °C 54 % 89 % 1035,9 hPa 0,0 l/m² 13,4 km/h (3 Bft) S-SW 205 ° 0 min 0 W/m² 5,5 °C 2,5 °C 17,7 km/h (3 Bft)
17.12.2023 07:21 21,4 °C 7,2 °C 54 % 89 % 1035,8 hPa 0,0 l/m² 13,6 km/h (3 Bft) SW 236 ° 0 min 0 W/m² 5,5 °C 2,4 °C 16,1 km/h (3 Bft)
17.12.2023 07:22 21,4 °C 7,1 °C 54 % 89 % 1035,8 hPa 0,0 l/m² 15,8 km/h (3 Bft) SW 232 ° 0 min 0 W/m² 5,4 °C 1,3 °C 20,9 km/h (4 Bft)
17.12.2023 07:23 21,4 °C 7,1 °C 54 % 89 % 1035,8 hPa 0,0 l/m² 11,1 km/h (2 Bft) SW 236 ° 0 min 0 W/m² 5,4 °C 3,7 °C 14,5 km/h (3 Bft)
17.12.2023 07:26 21,4 °C 7,1 °C 54 % 89 % 1035,8 hPa 0,0 l/m² 14,0 km/h (3 Bft) SW 223 ° 0 min 0 W/m² 5,4 °C 2,1 °C 22,5 km/h (4 Bft)
17.12.2023 07:28 21,4 °C 7,1 °C 54 % 89 % 1035,9 hPa 0,0 l/m² 11,4 km/h (2 Bft) SW 233 ° 0 min 0 W/m² 5,4 °C 3,5 °C 16,1 km/h (3 Bft)
17.12.2023 07:30 21,4 °C 7,1 °C 54 % 89 % 1035,9 hPa 0,0 l/m² 11,7 km/h (2 Bft) SW 224 ° 0 min 0 W/m² 5,4 °C 3,3 °C 19,3 km/h (3 Bft)
17.12.2023 07:31 21,4 °C 7,1 °C 54 % 89 % 1036,0 hPa 0,0 l/m² 13,1 km/h (3 Bft) SW 231 ° 0 min 0 W/m² 5,4 °C 2,6 °C 20,9 km/h (4 Bft)
17.12.2023 07:32 21,4 °C 7,1 °C 54 % 89 % 1036,0 hPa 0,0 l/m² 13,5 km/h (3 Bft) SW 219 ° 0 min 0 W/m² 5,4 °C 2,4 °C 19,3 km/h (3 Bft)
17.12.2023 07:33 21,4 °C 7,1 °C 54 % 89 % 1036,0 hPa 0,0 l/m² 12,3 km/h (2 Bft) SW 223 ° 0 min 0 W/m² 5,4 °C 3,0 °C 17,7 km/h (3 Bft)
17.12.2023 07:36 21,4 °C 7,1 °C 54 % 89 % 1036,0 hPa 0,0 l/m² 9,4 km/h (2 Bft) W-SW 248 ° 0 min 0 W/m² 5,4 °C 4,8 °C 14,5 km/h (3 Bft)
17.12.2023 07:38 21,4 °C 7,0 °C 54 % 89 % 1036,0 hPa 0,0 l/m² 12,5 km/h (2 Bft) SW 214 ° 0 min 0 W/m² 5,3 °C 2,8 °C 19,3 km/h (3 Bft)
17.12.2023 07:40 21,4 °C 7,0 °C 54 % 89 % 1036,0 hPa 0,0 l/m² 13,6 km/h (3 Bft) SW 224 ° 0 min 0 W/m² 5,3 °C 2,2 °C 20,9 km/h (4 Bft)
17.12.2023 07:41 21,4 °C 6,9 °C 54 % 89 % 1035,9 hPa 0,0 l/m² 15,1 km/h (3 Bft) SW 223 ° 0 min 0 W/m² 5,2 °C 1,3 °C 17,7 km/h (3 Bft)
17.12.2023 07:42 21,4 °C 6,9 °C 54 % 89 % 1036,0 hPa 0,0 l/m² 13,1 km/h (3 Bft) SW 230 ° 0 min 0 W/m² 5,2 °C 2,3 °C 17,7 km/h (3 Bft)
17.12.2023 07:43 21,4 °C 6,9 °C 54 % 89 % 1036,0 hPa 0,0 l/m² 10,6 km/h (2 Bft) S-SW 209 ° 0 min 0 W/m² 5,2 °C 3,8 °C 16,1 km/h (3 Bft)
17.12.2023 07:45 21,4 °C 6,9 °C 54 % 89 % 1036,0 hPa 0,0 l/m² 11,9 km/h (2 Bft) SW 222 ° 0 min 0 W/m² 5,2 °C 3,0 °C 17,7 km/h (3 Bft)
17.12.2023 07:46 21,4 °C 6,9 °C 54 % 89 % 1035,9 hPa 0,0 l/m² 11,1 km/h (2 Bft) W-SW 248 ° 0 min 0 W/m² 5,2 °C 3,5 °C 17,7 km/h (3 Bft)
17.12.2023 07:48 21,3 °C 6,9 °C 54 % 89 % 1035,9 hPa 0,0 l/m² 13,6 km/h (3 Bft) SW 232 ° 0 min 0 W/m² 5,2 °C 2,1 °C 19,3 km/h (3 Bft)
17.12.2023 07:50 21,4 °C 6,9 °C 54 % 89 % 1035,9 hPa 0,0 l/m² 9,9 km/h (2 Bft) SW 229 ° 0 min 0 W/m² 5,2 °C 4,2 °C 14,5 km/h (3 Bft)
17.12.2023 07:51 21,4 °C 6,9 °C 54 % 89 % 1035,9 hPa 0,0 l/m² 10,3 km/h (2 Bft) SW 219 ° 0 min 0 W/m² 5,2 °C 4,0 °C 14,5 km/h (3 Bft)
17.12.2023 07:52 21,4 °C 6,9 °C 54 % 89 % 1036,0 hPa 0,0 l/m² 10,1 km/h (2 Bft) SW 223 ° 0 min 0 W/m² 5,2 °C 4,1 °C 14,5 km/h (3 Bft)
17.12.2023 07:53 21,4 °C 6,9 °C 54 % 89 % 1036,0 hPa 0,0 l/m² 13,2 km/h (3 Bft) SW 228 ° 0 min 0 W/m² 5,2 °C 2,3 °C 16,1 km/h (3 Bft)
17.12.2023 07:56 21,4 °C 6,8 °C 54 % 89 % 1036,0 hPa 0,0 l/m² 11,6 km/h (2 Bft) SW 229 ° 0 min 0 W/m² 5,1 °C 3,1 °C 17,7 km/h (3 Bft)
17.12.2023 07:58 21,4 °C 6,8 °C 54 % 88 % 1036,0 hPa 0,0 l/m² 11,0 km/h (2 Bft) SW 223 ° 0 min 0 W/m² 5,0 °C 3,4 °C 16,1 km/h (3 Bft)
17.12.2023 08:00 21,4 °C 6,7 °C 54 % 88 % 1036,0 hPa 0,0 l/m² 10,7 km/h (2 Bft) S-SW 209 ° 0 min 0 W/m² 4,9 °C 3,5 °C 16,1 km/h (3 Bft)
17.12.2023 08:01 21,4 °C 6,7 °C 53 % 88 % 1036,0 hPa 0,0 l/m² 12,0 km/h (2 Bft) SW 215 ° 0 min 0 W/m² 4,9 °C 2,7 °C 17,7 km/h (3 Bft)
17.12.2023 08:02 21,4 °C 6,7 °C 53 % 88 % 1035,9 hPa 0,0 l/m² 11,9 km/h (2 Bft) SW 232 ° 0 min 0 W/m² 4,9 °C 2,8 °C 16,1 km/h (3 Bft)
17.12.2023 08:03 21,4 °C 6,6 °C 53 % 89 % 1036,0 hPa 0,0 l/m² 11,8 km/h (2 Bft) SW 231 ° 0 min 0 W/m² 4,9 °C 2,7 °C 16,1 km/h (3 Bft)
17.12.2023 08:06 21,4 °C 6,6 °C 54 % 89 % 1036,0 hPa 0,0 l/m² 11,0 km/h (2 Bft) SW 223 ° 0 min 0 W/m² 4,9 °C 3,2 °C 16,1 km/h (3 Bft)
17.12.2023 08:08 21,4 °C 6,6 °C 53 % 89 % 1036,0 hPa 0,0 l/m² 12,3 km/h (2 Bft) S-SW 207 ° 0 min 0 W/m² 4,9 °C 2,4 °C 16,1 km/h (3 Bft)
17.12.2023 08:10 21,4 °C 6,5 °C 53 % 89 % 1035,9 hPa 0,0 l/m² 12,9 km/h (3 Bft) S-SW 211 ° 0 min 0 W/m² 4,8 °C 2,0 °C 17,7 km/h (3 Bft)
17.12.2023 08:11 21,4 °C 6,5 °C 53 % 89 % 1036,0 hPa 0,0 l/m² 13,4 km/h (3 Bft) S-SW 200 ° 0 min 0 W/m² 4,8 °C 1,7 °C 17,7 km/h (3 Bft)
17.12.2023 08:12 21,4 °C 6,5 °C 53 % 89 % 1036,0 hPa 0,0 l/m² 9,9 km/h (2 Bft) SW 219 ° 0 min 0 W/m² 4,8 °C 3,8 °C 14,5 km/h (3 Bft)
17.12.2023 08:13 21,4 °C 6,4 °C 53 % 89 % 1036,0 hPa 0,0 l/m² 9,3 km/h (2 Bft) SW 219 ° 0 min 0 W/m² 4,7 °C 4,1 °C 11,3 km/h (2 Bft)
17.12.2023 08:15 21,4 °C 6,4 °C 53 % 89 % 1036,0 hPa 0,0 l/m² 10,5 km/h (2 Bft) S-SW 212 ° 0 min 5 W/m² 4,7 °C 3,3 °C 14,5 km/h (3 Bft)
17.12.2023 08:16 21,4 °C 6,4 °C 53 % 89 % 1036,0 hPa 0,0 l/m² 10,2 km/h (2 Bft) S-SW 202 ° 0 min 5 W/m² 4,7 °C 3,5 °C 12,9 km/h (3 Bft)
17.12.2023 08:18 21,4 °C 6,4 °C 53 % 89 % 1036,0 hPa 0,0 l/m² 9,2 km/h (2 Bft) S-SW 200 ° 0 min 7 W/m² 4,7 °C 4,2 °C 11,3 km/h (2 Bft)
17.12.2023 08:20 21,4 °C 6,3 °C 53 % 89 % 1036,1 hPa 0,0 l/m² 9,2 km/h (2 Bft) S-SW 212 ° 0 min 7 W/m² 4,6 °C 4,1 °C 11,3 km/h (2 Bft)
17.12.2023 08:21 21,4 °C 6,3 °C 53 % 89 % 1036,2 hPa 0,0 l/m² 9,5 km/h (2 Bft) SW 221 ° 0 min 9 W/m² 4,6 °C 3,9 °C 12,9 km/h (3 Bft)
17.12.2023 08:22 21,4 °C 6,3 °C 53 % 89 % 1036,3 hPa 0,0 l/m² 9,8 km/h (2 Bft) SW 218 ° 0 min 9 W/m² 4,6 °C 3,6 °C 11,3 km/h (2 Bft)
17.12.2023 08:23 21,4 °C 6,3 °C 53 % 89 % 1036,2 hPa 0,0 l/m² 11,2 km/h (2 Bft) SW 225 ° 0 min 9 W/m² 4,6 °C 2,7 °C 14,5 km/h (3 Bft)
17.12.2023 08:25 21,4 °C 6,2 °C 53 % 89 % 1036,2 hPa 0,0 l/m² 9,9 km/h (2 Bft) SW 223 ° 0 min 11 W/m² 4,5 °C 3,5 °C 12,9 km/h (3 Bft)
17.12.2023 08:27 21,4 °C 6,2 °C 53 % 89 % 1036,3 hPa 0,0 l/m² 11,2 km/h (2 Bft) SW 230 ° 0 min 12 W/m² 4,5 °C 2,6 °C 16,1 km/h (3 Bft)
17.12.2023 08:29 21,4 °C 6,2 °C 54 % 89 % 1036,3 hPa 0,0 l/m² 10,9 km/h (2 Bft) S-SW 213 ° 0 min 14 W/m² 4,5 °C 2,8 °C 16,1 km/h (3 Bft)
17.12.2023 08:31 21,4 °C 6,1 °C 53 % 89 % 1036,3 hPa 0,0 l/m² 11,0 km/h (2 Bft) SW 218 ° 0 min 16 W/m² 4,4 °C 2,6 °C 17,7 km/h (3 Bft)
17.12.2023 08:32 21,5 °C 6,1 °C 54 % 89 % 1036,3 hPa 0,0 l/m² 9,0 km/h (2 Bft) SW 225 ° 0 min 18 W/m² 4,4 °C 4,0 °C 12,9 km/h (3 Bft)
17.12.2023 08:33 21,5 °C 6,1 °C 54 % 89 % 1036,3 hPa 0,0 l/m² 9,2 km/h (2 Bft) SW 221 ° 0 min 18 W/m² 4,4 °C 3,8 °C 12,9 km/h (3 Bft)
17.12.2023 08:36 21,5 °C 6,1 °C 54 % 89 % 1036,2 hPa 0,0 l/m² 9,9 km/h (2 Bft) SW 229 ° 0 min 19 W/m² 4,4 °C 3,4 °C 12,9 km/h (3 Bft)
17.12.2023 08:38 21,5 °C 6,1 °C 54 % 90 % 1036,3 hPa 0,0 l/m² 8,2 km/h (2 Bft) S-SW 206 ° 0 min 21 W/m² 4,6 °C 4,6 °C 11,3 km/h (2 Bft)
17.12.2023 08:40 21,5 °C 6,1 °C 54 % 90 % 1036,3 hPa 0,0 l/m² 8,5 km/h (2 Bft) SW 232 ° 0 min 25 W/m² 4,6 °C 4,4 °C 11,3 km/h (2 Bft)
17.12.2023 08:41 21,5 °C 6,1 °C 54 % 90 % 1036,3 hPa 0,0 l/m² 8,0 km/h (2 Bft) SW 232 ° 0 min 25 W/m² 4,6 °C 4,8 °C 12,9 km/h (3 Bft)
17.12.2023 08:42 21,6 °C 6,1 °C 54 % 90 % 1036,3 hPa 0,0 l/m² 9,0 km/h (2 Bft) SW 226 ° 0 min 26 W/m² 4,6 °C 4,0 °C 12,9 km/h (3 Bft)
17.12.2023 08:43 21,6 °C 6,1 °C 54 % 90 % 1036,3 hPa 0,0 l/m² 7,6 km/h (2 Bft) SW 228 ° 0 min 26 W/m² 4,6 °C 5,1 °C 9,7 km/h (2 Bft)
17.12.2023 08:46 21,5 °C 6,1 °C 54 % 90 % 1036,2 hPa 0,0 l/m² 8,8 km/h (2 Bft) SW 231 ° 0 min 30 W/m² 4,6 °C 4,1 °C 12,9 km/h (3 Bft)
17.12.2023 08:48 21,5 °C 6,1 °C 54 % 90 % 1036,2 hPa 0,0 l/m² 10,2 km/h (2 Bft) SW 223 ° 0 min 32 W/m² 4,6 °C 3,2 °C 14,5 km/h (3 Bft)
17.12.2023 08:50 21,6 °C 6,1 °C 54 % 90 % 1036,1 hPa 0,0 l/m² 9,8 km/h (2 Bft) SW 224 ° 0 min 33 W/m² 4,6 °C 3,4 °C 12,9 km/h (3 Bft)
17.12.2023 08:51 21,5 °C 6,1 °C 54 % 90 % 1036,1 hPa 0,0 l/m² 9,7 km/h (2 Bft) SW 235 ° 0 min 35 W/m² 4,6 °C 3,5 °C 11,3 km/h (2 Bft)
17.12.2023 08:52 21,5 °C 6,1 °C 54 % 90 % 1036,1 hPa 0,0 l/m² 10,3 km/h (2 Bft) SW 225 ° 0 min 37 W/m² 4,6 °C 3,1 °C 17,7 km/h (3 Bft)
17.12.2023 08:53 21,5 °C 6,2 °C 54 % 90 % 1036,1 hPa 0,0 l/m² 9,0 km/h (2 Bft) W-SW 240 ° 0 min 39 W/m² 4,7 °C 4,1 °C 11,3 km/h (2 Bft)
17.12.2023 08:54 21,6 °C 6,2 °C 54 % 90 % 1036,0 hPa 0,0 l/m² 10,1 km/h (2 Bft) SW 234 ° 0 min 39 W/m² 4,7 °C 3,3 °C 16,1 km/h (3 Bft)
17.12.2023 08:56 21,6 °C 6,3 °C 54 % 90 % 1036,1 hPa 0,0 l/m² 9,5 km/h (2 Bft) SW 227 ° 0 min 40 W/m² 4,8 °C 3,9 °C 14,5 km/h (3 Bft)
17.12.2023 08:58 21,6 °C 6,3 °C 54 % 90 % 1036,0 hPa 0,0 l/m² 10,0 km/h (2 Bft) SW 223 ° 0 min 44 W/m² 4,8 °C 3,5 °C 14,5 km/h (3 Bft)
17.12.2023 09:00 21,5 °C 6,2 °C 54 % 90 % 1036,1 hPa 0,0 l/m² 7,9 km/h (2 Bft) SW 221 ° 0 min 46 W/m² 4,7 °C 4,9 °C 11,3 km/h (2 Bft)
17.12.2023 09:01 21,6 °C 6,2 °C 54 % 90 % 1036,0 hPa 0,0 l/m² 6,2 km/h (2 Bft) SW 227 ° 0 min 47 W/m² 4,7 °C 6,2 °C 9,7 km/h (2 Bft)
17.12.2023 09:02 21,6 °C 6,2 °C 54 % 90 % 1036,0 hPa 0,0 l/m² 6,9 km/h (2 Bft) SW 223 ° 0 min 47 W/m² 4,7 °C 5,8 °C 8,0 km/h (2 Bft)
17.12.2023 09:03 21,6 °C 6,2 °C 54 % 90 % 1036,0 hPa 0,0 l/m² 8,0 km/h (2 Bft) SW 225 ° 0 min 49 W/m² 4,7 °C 4,9 °C 11,3 km/h (2 Bft)
17.12.2023 09:04 21,6 °C 6,2 °C 54 % 90 % 1036,0 hPa 0,0 l/m² 7,0 km/h (2 Bft) W-SW 248 ° 0 min 51 W/m² 4,7 °C 5,7 °C 11,3 km/h (2 Bft)
17.12.2023 09:06 21,6 °C 6,2 °C 54 % 90 % 1036,1 hPa 0,0 l/m² 7,2 km/h (2 Bft) SW 219 ° 2 min 53 W/m² 4,7 °C 5,5 °C 11,3 km/h (2 Bft)
17.12.2023 09:08 21,6 °C 6,2 °C 54 % 90 % 1036,1 hPa 0,0 l/m² 7,7 km/h (2 Bft) W-SW 244 ° 2 min 56 W/m² 4,7 °C 5,1 °C 11,3 km/h (2 Bft)
17.12.2023 09:10 21,6 °C 6,2 °C 54 % 90 % 1036,0 hPa 0,0 l/m² 7,6 km/h (2 Bft) SW 227 ° 2 min 60 W/m² 4,7 °C 5,2 °C 11,3 km/h (2 Bft)
17.12.2023 09:11 21,6 °C 6,2 °C 54 % 90 % 1036,1 hPa 0,0 l/m² 8,5 km/h (2 Bft) SW 230 ° 1 min 62 W/m² 4,7 °C 4,5 °C 11,3 km/h (2 Bft)
17.12.2023 09:12 21,6 °C 6,3 °C 54 % 90 % 1036,1 hPa 0,0 l/m² 10,9 km/h (2 Bft) SW 225 ° 1 min 63 W/m² 4,8 °C 2,9 °C 12,9 km/h (3 Bft)
17.12.2023 09:13 21,6 °C 6,3 °C 54 % 90 % 1036,1 hPa 0,0 l/m² 9,3 km/h (2 Bft) SW 219 ° 1 min 63 W/m² 4,8 °C 4,0 °C 11,3 km/h (2 Bft)
17.12.2023 09:15 21,6 °C 6,4 °C 54 % 90 % 1036,1 hPa 0,0 l/m² 9,5 km/h (2 Bft) SW 234 ° 2 min 67 W/m² 4,9 °C 4,0 °C 14,5 km/h (3 Bft)
17.12.2023 09:16 21,6 °C 6,4 °C 54 % 90 % 1036,2 hPa 0,0 l/m² 7,9 km/h (2 Bft) SW 232 ° 1 min 69 W/m² 4,9 °C 5,2 °C 11,3 km/h (2 Bft)
17.12.2023 09:17 21,6 °C 6,4 °C 54 % 90 % 1036,2 hPa 0,0 l/m² 7,9 km/h (2 Bft) SW 236 ° 1 min 69 W/m² 4,9 °C 5,2 °C 11,3 km/h (2 Bft)
17.12.2023 09:18 21,6 °C 6,5 °C 54 % 89 % 1036,1 hPa 0,0 l/m² 9,5 km/h (2 Bft) W-SW 257 ° 1 min 69 W/m² 4,8 °C 4,1 °C 12,9 km/h (3 Bft)
17.12.2023 09:19 21,6 °C 6,6 °C 54 % 89 % 1036,2 hPa 0,0 l/m² 9,7 km/h (2 Bft) S-SW 211 ° 1 min 70 W/m² 4,9 °C 4,0 °C 12,9 km/h (3 Bft)
17.12.2023 09:21 21,6 °C 6,6 °C 54 % 89 % 1036,1 hPa 0,0 l/m² 12,4 km/h (2 Bft) SW 219 ° 2 min 70 W/m² 4,9 °C 2,4 °C 16,1 km/h (3 Bft)
17.12.2023 09:24 21,6 °C 6,6 °C 54 % 89 % 1036,1 hPa 0,0 l/m² 11,0 km/h (2 Bft) SW 221 ° 3 min 72 W/m² 4,9 °C 3,2 °C 16,1 km/h (3 Bft)
17.12.2023 09:25 21,6 °C 6,6 °C 54 % 89 % 1036,1 hPa 0,0 l/m² 8,5 km/h (2 Bft) SW 227 ° 1 min 74 W/m² 4,9 °C 4,9 °C 11,3 km/h (2 Bft)
17.12.2023 09:26 21,6 °C 6,6 °C 54 % 89 % 1036,2 hPa 0,0 l/m² 11,5 km/h (2 Bft) SW 222 ° 1 min 76 W/m² 4,9 °C 2,9 °C 14,5 km/h (3 Bft)
17.12.2023 09:27 21,6 °C 6,7 °C 55 % 89 % 1036,2 hPa 0,0 l/m² 12,9 km/h (3 Bft) S-SW 208 ° 1 min 77 W/m² 5,0 °C 2,2 °C 17,7 km/h (3 Bft)
17.12.2023 09:28 21,7 °C 6,7 °C 55 % 89 % 1036,2 hPa 0,0 l/m² 11,4 km/h (2 Bft) SW 219 ° 1 min 77 W/m² 5,0 °C 3,1 °C 14,5 km/h (3 Bft)
17.12.2023 09:29 21,7 °C 6,7 °C 55 % 89 % 1036,2 hPa 0,0 l/m² 11,3 km/h (2 Bft) SW 216 ° 1 min 77 W/m² 5,0 °C 3,1 °C 14,5 km/h (3 Bft)
17.12.2023 09:31 21,7 °C 6,8 °C 54 % 89 % 1036,2 hPa 0,0 l/m² 9,8 km/h (2 Bft) SW 219 ° 2 min 79 W/m² 5,1 °C 4,2 °C 14,5 km/h (3 Bft)
17.12.2023 09:34 21,8 °C 6,8 °C 55 % 89 % 1036,1 hPa 0,0 l/m² 11,6 km/h (2 Bft) SW 214 ° 3 min 86 W/m² 5,1 °C 3,1 °C 16,1 km/h (3 Bft)
17.12.2023 09:35 21,8 °C 6,8 °C 54 % 89 % 1036,1 hPa 0,0 l/m² 12,1 km/h (2 Bft) SW 221 ° 1 min 88 W/m² 5,1 °C 2,8 °C 17,7 km/h (3 Bft)
17.12.2023 09:36 21,9 °C 6,8 °C 55 % 89 % 1036,1 hPa 0,0 l/m² 13,3 km/h (3 Bft) SW 216 ° 1 min 90 W/m² 5,1 °C 2,1 °C 17,7 km/h (3 Bft)
17.12.2023 09:37 21,9 °C 6,9 °C 55 % 89 % 1036,1 hPa 0,0 l/m² 10,4 km/h (2 Bft) SW 221 ° 1 min 91 W/m² 5,2 °C 3,9 °C 14,5 km/h (3 Bft)
17.12.2023 09:38 21,9 °C 6,9 °C 54 % 89 % 1036,2 hPa 0,0 l/m² 12,2 km/h (2 Bft) S-SW 205 ° 1 min 95 W/m² 5,2 °C 2,8 °C 16,1 km/h (3 Bft)
17.12.2023 09:39 21,9 °C 6,9 °C 54 % 89 % 1036,1 hPa 0,0 l/m² 14,8 km/h (3 Bft) S-SW 213 ° 1 min 97 W/m² 5,2 °C 1,5 °C 19,3 km/h (3 Bft)
17.12.2023 09:40 21,9 °C 6,9 °C 54 % 89 % 1036,0 hPa 0,0 l/m² 14,3 km/h (3 Bft) SW 217 ° 1 min 95 W/m² 5,2 °C 1,7 °C 19,3 km/h (3 Bft)
17.12.2023 09:41 21,9 °C 7,0 °C 54 % 89 % 1036,0 hPa 0,0 l/m² 11,5 km/h (2 Bft) SW 217 ° 1 min 97 W/m² 5,3 °C 3,3 °C 14,5 km/h (3 Bft)
17.12.2023 09:42 22,0 °C 7,0 °C 54 % 89 % 1036,1 hPa 0,0 l/m² 10,6 km/h (2 Bft) SW 226 ° 1 min 98 W/m² 5,3 °C 3,9 °C 16,1 km/h (3 Bft)
17.12.2023 09:43 22,1 °C 7,0 °C 54 % 89 % 1036,0 hPa 0,0 l/m² 12,5 km/h (2 Bft) SW 221 ° 1 min 100 W/m² 5,3 °C 2,8 °C 17,7 km/h (3 Bft)
17.12.2023 09:44 22,1 °C 7,1 °C 54 % 89 % 1036,1 hPa 0,0 l/m² 10,7 km/h (2 Bft) SW 225 ° 1 min 100 W/m² 5,4 °C 3,9 °C 14,5 km/h (3 Bft)
17.12.2023 09:46 22,1 °C 7,1 °C 54 % 88 % 1036,0 hPa 0,0 l/m² 11,8 km/h (2 Bft) SW 224 ° 2 min 102 W/m² 5,2 °C 3,3 °C 14,5 km/h (3 Bft)
17.12.2023 09:47 22,1 °C 7,1 °C 54 % 88 % 1036,0 hPa 0,0 l/m² 11,3 km/h (2 Bft) SW 224 ° 1 min 104 W/m² 5,2 °C 3,6 °C 16,1 km/h (3 Bft)
17.12.2023 09:48 22,1 °C 7,2 °C 54 % 88 % 1036,0 hPa 0,0 l/m² 11,5 km/h (2 Bft) SW 219 ° 1 min 104 W/m² 5,3 °C 3,6 °C 14,5 km/h (3 Bft)
17.12.2023 09:49 22,2 °C 7,2 °C 54 % 88 % 1035,9 hPa 0,0 l/m² 11,3 km/h (2 Bft) SW 229 ° 1 min 105 W/m² 5,3 °C 3,7 °C 16,1 km/h (3 Bft)
17.12.2023 09:51 22,2 °C 7,2 °C 54 % 88 % 1036,0 hPa 0,0 l/m² 15,2 km/h (3 Bft) S-SW 209 ° 2 min 109 W/m² 5,3 °C 1,6 °C 24,1 km/h (4 Bft)
17.12.2023 09:54 22,2 °C 7,2 °C 54 % 88 % 1035,8 hPa 0,0 l/m² 15,8 km/h (3 Bft) SW 231 ° 3 min 114 W/m² 5,3 °C 1,4 °C 20,9 km/h (4 Bft)
17.12.2023 09:55 22,3 °C 7,3 °C 54 % 88 % 1035,8 hPa 0,0 l/m² 15,7 km/h (3 Bft) SW 217 ° 1 min 118 W/m² 5,4 °C 1,5 °C 20,9 km/h (4 Bft)
17.12.2023 09:56 22,3 °C 7,3 °C 54 % 88 % 1035,8 hPa 0,0 l/m² 15,5 km/h (3 Bft) S-SW 213 ° 1 min 116 W/m² 5,4 °C 1,6 °C 19,3 km/h (3 Bft)
17.12.2023 09:57 22,3 °C 7,3 °C 54 % 88 % 1035,7 hPa 0,0 l/m² 15,6 km/h (3 Bft) SW 216 ° 1 min 116 W/m² 5,4 °C 1,6 °C 19,3 km/h (3 Bft)
17.12.2023 09:58 22,3 °C 7,3 °C 54 % 88 % 1035,7 hPa 0,0 l/m² 15,2 km/h (3 Bft) SW 234 ° 1 min 114 W/m² 5,4 °C 1,8 °C 19,3 km/h (3 Bft)
17.12.2023 09:59 22,3 °C 7,3 °C 54 % 88 % 1035,8 hPa 0,0 l/m² 12,9 km/h (3 Bft) S-SW 203 ° 1 min 114 W/m² 5,4 °C 2,9 °C 17,7 km/h (3 Bft)
17.12.2023 10:01 22,3 °C 7,3 °C 54 % 88 % 1035,7 hPa 0,0 l/m² 14,0 km/h (3 Bft) SW 223 ° 2 min 120 W/m² 5,4 °C 2,3 °C 19,3 km/h (3 Bft)
17.12.2023 10:04 22,3 °C 7,3 °C 54 % 88 % 1035,7 hPa 0,0 l/m² 13,6 km/h (3 Bft) SW 214 ° 3 min 123 W/m² 5,4 °C 2,5 °C 19,3 km/h (3 Bft)
17.12.2023 10:05 22,4 °C 7,3 °C 54 % 88 % 1035,7 hPa 0,0 l/m² 15,2 km/h (3 Bft) S-SW 211 ° 1 min 127 W/m² 5,4 °C 1,8 °C 20,9 km/h (4 Bft)
17.12.2023 10:07 22,4 °C 7,3 °C 54 % 88 % 1035,7 hPa 0,0 l/m² 14,7 km/h (3 Bft) SW 223 ° 2 min 130 W/m² 5,4 °C 2,0 °C 19,3 km/h (3 Bft)
17.12.2023 10:08 22,4 °C 7,3 °C 54 % 88 % 1035,7 hPa 0,0 l/m² 15,9 km/h (3 Bft) SW 223 ° 1 min 128 W/m² 5,4 °C 1,5 °C 20,9 km/h (4 Bft)
17.12.2023 10:09 22,4 °C 7,3 °C 53 % 88 % 1035,8 hPa 0,0 l/m² 14,2 km/h (3 Bft) SW 219 ° 1 min 130 W/m² 5,4 °C 2,2 °C 19,3 km/h (3 Bft)
17.12.2023 10:10 22,4 °C 7,3 °C 53 % 88 % 1035,9 hPa 0,0 l/m² 14,7 km/h (3 Bft) W-SW 238 ° 1 min 130 W/m² 5,4 °C 2,0 °C 19,3 km/h (3 Bft)
17.12.2023 10:12 22,4 °C 7,4 °C 53 % 88 % 1035,8 hPa 0,0 l/m² 17,6 km/h (3 Bft) SW 219 ° 2 min 132 W/m² 5,5 °C 0,8 °C 22,5 km/h (4 Bft)
17.12.2023 10:13 22,4 °C 7,4 °C 53 % 88 % 1035,8 hPa 0,0 l/m² 14,7 km/h (3 Bft) W-SW 238 ° 1 min 132 W/m² 5,5 °C 2,1 °C 19,3 km/h (3 Bft)
17.12.2023 10:14 22,5 °C 7,4 °C 53 % 88 % 1035,9 hPa 0,0 l/m² 17,5 km/h (3 Bft) S-SW 213 ° 1 min 135 W/m² 5,5 °C 0,9 °C 20,9 km/h (4 Bft)
17.12.2023 10:15 22,5 °C 7,4 °C 53 % 88 % 1035,9 hPa 0,0 l/m² 14,8 km/h (3 Bft) S-SW 211 ° 1 min 137 W/m² 5,5 °C 2,1 °C 19,3 km/h (3 Bft)
17.12.2023 10:16 22,5 °C 7,4 °C 53 % 88 % 1035,9 hPa 0,0 l/m² 14,8 km/h (3 Bft) SW 223 ° 1 min 139 W/m² 5,5 °C 2,1 °C 20,9 km/h (4 Bft)
17.12.2023 10:17 22,5 °C 7,5 °C 53 % 88 % 1035,8 hPa 0,0 l/m² 14,6 km/h (3 Bft) SW 234 ° 1 min 142 W/m² 5,6 °C 2,3 °C 17,7 km/h (3 Bft)
17.12.2023 10:18 22,5 °C 7,5 °C 53 % 88 % 1035,8 hPa 0,0 l/m² 20,8 km/h (4 Bft) S-SW 212 ° 1 min 146 W/m² 5,6 °C -0,2 °C 29,0 km/h (5 Bft)
17.12.2023 10:19 22,5 °C 7,5 °C 53 % 87 % 1035,8 hPa 0,0 l/m² 22,3 km/h (4 Bft) SW 233 ° 1 min 149 W/m² 5,5 °C -0,7 °C 30,6 km/h (5 Bft)
17.12.2023 10:20 22,6 °C 7,6 °C 53 % 87 % 1035,7 hPa 0,0 l/m² 18,7 km/h (3 Bft) W-SW 239 ° 1 min 151 W/m² 5,6 °C 0,7 °C 27,4 km/h (5 Bft)
17.12.2023 10:21 22,6 °C 7,6 °C 53 % 87 % 1035,7 hPa 0,0 l/m² 14,9 km/h (3 Bft) SW 221 ° 1 min 149 W/m² 5,6 °C 2,3 °C 19,3 km/h (3 Bft)
17.12.2023 10:22 22,6 °C 7,6 °C 53 % 87 % 1035,7 hPa 0,0 l/m² 19,1 km/h (3 Bft) SW 232 ° 1 min 151 W/m² 5,6 °C 0,5 °C 25,7 km/h (4 Bft)
17.12.2023 10:23 22,6 °C 7,6 °C 53 % 87 % 1035,7 hPa 0,0 l/m² 22,5 km/h (4 Bft) SW 225 ° 1 min 155 W/m² 5,6 °C -0,7 °C 29,0 km/h (5 Bft)
17.12.2023 10:24 22,6 °C 7,6 °C 53 % 87 % 1035,8 hPa 0,0 l/m² 15,8 km/h (3 Bft) SW 220 ° 1 min 158 W/m² 5,6 °C 1,9 °C 24,1 km/h (4 Bft)
17.12.2023 10:25 22,6 °C 7,6 °C 53 % 87 % 1035,8 hPa 0,0 l/m² 19,3 km/h (3 Bft) SW 227 ° 1 min 160 W/m² 5,6 °C 0,4 °C 25,7 km/h (4 Bft)
17.12.2023 10:26 22,6 °C 7,6 °C 53 % 87 % 1035,7 hPa 0,0 l/m² 16,2 km/h (3 Bft) SW 221 ° 1 min 162 W/m² 5,6 °C 1,7 °C 19,3 km/h (3 Bft)
17.12.2023 10:27 22,6 °C 7,6 °C 53 % 87 % 1035,7 hPa 0,0 l/m² 18,4 km/h (3 Bft) S-SW 203 ° 1 min 165 W/m² 5,6 °C 0,8 °C 25,7 km/h (4 Bft)
17.12.2023 10:28 22,6 °C 7,7 °C 53 % 87 % 1035,7 hPa 0,0 l/m² 18,0 km/h (3 Bft) S-SW 213 ° 1 min 167 W/m² 5,7 °C 1,1 °C 24,1 km/h (4 Bft)
17.12.2023 10:29 22,6 °C 7,7 °C 53 % 87 % 1035,7 hPa 0,0 l/m² 21,2 km/h (4 Bft) SW 234 ° 1 min 171 W/m² 5,7 °C -0,1 °C 29,0 km/h (5 Bft)
17.12.2023 10:30 22,6 °C 7,7 °C 53 % 87 % 1035,7 hPa 0,0 l/m² 23,7 km/h (4 Bft) SW 221 ° 1 min 171 W/m² 5,7 °C -0,9 °C 30,6 km/h (5 Bft)
17.12.2023 10:31 22,7 °C 7,7 °C 53 % 87 % 1035,7 hPa 0,0 l/m² 17,6 km/h (3 Bft) S-SW 209 ° 1 min 167 W/m² 5,7 °C 1,2 °C 25,7 km/h (4 Bft)
17.12.2023 10:32 22,7 °C 7,7 °C 53 % 87 % 1035,7 hPa 0,0 l/m² 22,2 km/h (4 Bft) SW 230 ° 1 min 169 W/m² 5,7 °C -0,4 °C 27,4 km/h (5 Bft)
17.12.2023 10:33 22,6 °C 7,7 °C 53 % 87 % 1035,8 hPa 0,0 l/m² 20,4 km/h (4 Bft) SW 223 ° 1 min 169 W/m² 5,7 °C 0,2 °C 29,0 km/h (5 Bft)
17.12.2023 10:34 22,7 °C 7,6 °C 53 % 87 % 1035,8 hPa 0,0 l/m² 19,6 km/h (3 Bft) SW 221 ° 1 min 172 W/m² 5,6 °C 0,3 °C 27,4 km/h (5 Bft)
17.12.2023 10:35 22,7 °C 7,6 °C 52 % 87 % 1035,8 hPa 0,0 l/m² 17,8 km/h (3 Bft) SW 236 ° 1 min 172 W/m² 5,6 °C 1,0 °C 24,1 km/h (4 Bft)
17.12.2023 10:36 22,7 °C 7,6 °C 51 % 87 % 1035,8 hPa 0,0 l/m² 23,1 km/h (4 Bft) SW 215 ° 1 min 174 W/m² 5,6 °C -0,9 °C 29,0 km/h (5 Bft)
17.12.2023 10:37 22,6 °C 7,6 °C 49 % 87 % 1035,7 hPa 0,0 l/m² 20,6 km/h (4 Bft) SW 226 ° 1 min 178 W/m² 5,6 °C -0,0 °C 27,4 km/h (5 Bft)
17.12.2023 10:38 22,7 °C 7,6 °C 48 % 87 % 1035,7 hPa 0,0 l/m² 22,8 km/h (4 Bft) W-SW 240 ° 1 min 179 W/m² 5,6 °C -0,8 °C 27,4 km/h (5 Bft)
17.12.2023 10:39 22,6 °C 7,6 °C 47 % 87 % 1035,7 hPa 0,0 l/m² 23,9 km/h (4 Bft) S-SW 210 ° 1 min 183 W/m² 5,6 °C -1,1 °C 29,0 km/h (5 Bft)
17.12.2023 10:40 22,6 °C 7,7 °C 47 % 87 % 1035,7 hPa 0,0 l/m² 20,0 km/h (4 Bft) SW 218 ° 1 min 179 W/m² 5,7 °C 0,3 °C 29,0 km/h (5 Bft)
17.12.2023 10:41 22,6 °C 7,7 °C 48 % 87 % 1035,6 hPa 0,0 l/m² 17,7 km/h (3 Bft) W-SW 253 ° 1 min 190 W/m² 5,7 °C 1,2 °C 22,5 km/h (4 Bft)
17.12.2023 10:42 22,6 °C 7,7 °C 48 % 87 % 1035,6 hPa 0,0 l/m² 19,2 km/h (3 Bft) W-SW 245 ° 1 min 190 W/m² 5,7 °C 0,6 °C 24,1 km/h (4 Bft)
17.12.2023 10:43 22,6 °C 7,7 °C 48 % 87 % 1035,6 hPa 0,0 l/m² 20,6 km/h (4 Bft) W-SW 252 ° 1 min 193 W/m² 5,7 °C 0,1 °C 27,4 km/h (5 Bft)
17.12.2023 10:44 22,6 °C 7,7 °C 48 % 87 % 1035,7 hPa 0,0 l/m² 24,3 km/h (4 Bft) SW 234 ° 1 min 193 W/m² 5,7 °C -1,1 °C 30,6 km/h (5 Bft)
17.12.2023 10:45 22,6 °C 7,7 °C 49 % 87 % 1035,7 hPa 0,0 l/m² 21,9 km/h (4 Bft) S-SW 212 ° 1 min 193 W/m² 5,7 °C -0,3 °C 29,0 km/h (5 Bft)
17.12.2023 10:46 22,6 °C 7,7 °C 49 % 87 % 1035,7 hPa 0,0 l/m² 19,2 km/h (3 Bft) S-SW 211 ° 1 min 195 W/m² 5,7 °C 0,6 °C 24,1 km/h (4 Bft)
17.12.2023 10:47 22,6 °C 7,7 °C 49 % 87 % 1035,7 hPa 0,0 l/m² 21,3 km/h (4 Bft) SW 230 ° 1 min 195 W/m² 5,7 °C -0,1 °C 27,4 km/h (5 Bft)
17.12.2023 10:48 22,6 °C 7,7 °C 49 % 86 % 1035,6 hPa 0,0 l/m² 26,3 km/h (4 Bft) SW 229 ° 1 min 190 W/m² 5,5 °C -1,6 °C 32,2 km/h (5 Bft)
17.12.2023 10:49 22,6 °C 7,7 °C 49 % 86 % 1035,6 hPa 0,0 l/m² 23,0 km/h (4 Bft) SW 223 ° 1 min 192 W/m² 5,5 °C -0,7 °C 32,2 km/h (5 Bft)
17.12.2023 10:50 22,6 °C 7,7 °C 49 % 86 % 1035,6 hPa 0,0 l/m² 22,1 km/h (4 Bft) S-SW 213 ° 1 min 190 W/m² 5,5 °C -0,4 °C 29,0 km/h (5 Bft)
17.12.2023 10:51 22,6 °C 7,7 °C 50 % 87 % 1035,6 hPa 0,0 l/m² 20,4 km/h (4 Bft) SW 219 ° 1 min 190 W/m² 5,7 °C 0,2 °C 25,7 km/h (4 Bft)
17.12.2023 10:52 22,6 °C 7,7 °C 50 % 87 % 1035,6 hPa 0,0 l/m² 19,6 km/h (3 Bft) S-SW 213 ° 1 min 190 W/m² 5,7 °C 0,5 °C 29,0 km/h (5 Bft)
17.12.2023 10:53 22,6 °C 7,7 °C 50 % 87 % 1035,7 hPa 0,0 l/m² 21,7 km/h (4 Bft) S-SW 211 ° 1 min 192 W/m² 5,7 °C -0,3 °C 27,4 km/h (5 Bft)
17.12.2023 10:54 22,6 °C 7,7 °C 50 % 87 % 1035,6 hPa 0,0 l/m² 20,3 km/h (4 Bft) SW 226 ° 1 min 193 W/m² 5,7 °C 0,2 °C 25,7 km/h (4 Bft)
17.12.2023 10:55 22,6 °C 7,7 °C 50 % 87 % 1035,6 hPa 0,0 l/m² 20,8 km/h (4 Bft) SW 214 ° 1 min 193 W/m² 5,7 °C 0,0 °C 24,1 km/h (4 Bft)
17.12.2023 10:56 22,6 °C 7,7 °C 50 % 87 % 1035,6 hPa 0,0 l/m² 19,1 km/h (3 Bft) SW 214 ° 1 min 197 W/m² 5,7 °C 0,6 °C 24,1 km/h (4 Bft)
17.12.2023 10:57 22,6 °C 7,7 °C 50 % 87 % 1035,6 hPa 0,0 l/m² 17,5 km/h (3 Bft) SW 222 ° 1 min 199 W/m² 5,7 °C 1,3 °C 24,1 km/h (4 Bft)
17.12.2023 10:58 22,6 °C 7,7 °C 50 % 87 % 1035,6 hPa 0,0 l/m² 15,6 km/h (3 Bft) SW 219 ° 1 min 202 W/m² 5,7 °C 2,1 °C 19,3 km/h (3 Bft)
17.12.2023 10:59 22,6 °C 7,7 °C 50 % 87 % 1035,7 hPa 0,0 l/m² 19,6 km/h (3 Bft) S-SW 199 ° 1 min 202 W/m² 5,7 °C 0,5 °C 24,1 km/h (4 Bft)
17.12.2023 11:00 22,6 °C 7,7 °C 50 % 87 % 1035,6 hPa 0,0 l/m² 25,7 km/h (4 Bft) S-SW 211 ° 1 min 204 W/m² 5,7 °C -1,5 °C 33,8 km/h (5 Bft)
17.12.2023 11:01 22,6 °C 7,7 °C 50 % 87 % 1035,7 hPa 0,0 l/m² 27,8 km/h (5 Bft) SW 227 ° 1 min 197 W/m² 5,7 °C -2,0 °C 32,2 km/h (5 Bft)
17.12.2023 11:02 22,6 °C 7,7 °C 50 % 86 % 1035,7 hPa 0,0 l/m² 24,5 km/h (4 Bft) SW 229 ° 1 min 193 W/m² 5,5 °C -1,1 °C 33,8 km/h (5 Bft)
17.12.2023 11:03 22,6 °C 7,7 °C 50 % 87 % 1035,8 hPa 0,0 l/m² 22,3 km/h (4 Bft) SW 215 ° 1 min 192 W/m² 5,7 °C -0,5 °C 30,6 km/h (5 Bft)
17.12.2023 11:04 22,6 °C 7,7 °C 50 % 87 % 1035,7 hPa 0,0 l/m² 22,0 km/h (4 Bft) SW 219 ° 1 min 193 W/m² 5,7 °C -0,4 °C 29,0 km/h (5 Bft)
17.12.2023 11:05 22,6 °C 7,7 °C 50 % 87 % 1035,7 hPa 0,0 l/m² 22,1 km/h (4 Bft) SW 221 ° 1 min 199 W/m² 5,7 °C -0,4 °C 30,6 km/h (5 Bft)
17.12.2023 11:06 22,6 °C 7,7 °C 50 % 87 % 1035,6 hPa 0,0 l/m² 23,1 km/h (4 Bft) W-SW 246 ° 1 min 206 W/m² 5,7 °C -0,7 °C 32,2 km/h (5 Bft)
17.12.2023 11:07 22,6 °C 7,7 °C 50 % 87 % 1035,6 hPa 0,0 l/m² 22,8 km/h (4 Bft) SW 234 ° 1 min 211 W/m² 5,7 °C -0,6 °C 30,6 km/h (5 Bft)
17.12.2023 11:08 22,6 °C 7,7 °C 49 % 87 % 1035,6 hPa 0,0 l/m² 22,5 km/h (4 Bft) SW 223 ° 1 min 211 W/m² 5,7 °C -0,5 °C 30,6 km/h (5 Bft)
17.12.2023 11:09 22,6 °C 7,7 °C 49 % 87 % 1035,6 hPa 0,0 l/m² 23,5 km/h (4 Bft) SW 223 ° 1 min 209 W/m² 5,7 °C -0,8 °C 30,6 km/h (5 Bft)
17.12.2023 11:10 22,6 °C 7,7 °C 49 % 87 % 1035,6 hPa 0,0 l/m² 20,5 km/h (4 Bft) SW 230 ° 1 min 211 W/m² 5,7 °C 0,1 °C 29,0 km/h (5 Bft)
17.12.2023 11:11 22,6 °C 7,7 °C 48 % 87 % 1035,6 hPa 0,0 l/m² 18,8 km/h (3 Bft) SW 220 ° 1 min 213 W/m² 5,7 °C 0,8 °C 22,5 km/h (4 Bft)
17.12.2023 11:12 22,6 °C 7,7 °C 48 % 87 % 1035,6 hPa 0,0 l/m² 15,5 km/h (3 Bft) SW 227 ° 1 min 214 W/m² 5,7 °C 2,1 °C 22,5 km/h (4 Bft)
17.12.2023 11:13 22,6 °C 7,7 °C 48 % 87 % 1035,5 hPa 0,0 l/m² 22,5 km/h (4 Bft) SW 227 ° 1 min 207 W/m² 5,7 °C -0,5 °C 27,4 km/h (5 Bft)
17.12.2023 11:14 22,6 °C 7,7 °C 48 % 87 % 1035,5 hPa 0,0 l/m² 23,9 km/h (4 Bft) S-SW 213 ° 1 min 209 W/m² 5,7 °C -1,0 °C 30,6 km/h (5 Bft)
17.12.2023 11:15 22,6 °C 7,7 °C 48 % 86 % 1035,6 hPa 0,0 l/m² 21,0 km/h (4 Bft) S-SW 211 ° 1 min 207 W/m² 5,5 °C -0,0 °C 24,1 km/h (4 Bft)
17.12.2023 11:16 22,6 °C 7,7 °C 48 % 86 % 1035,6 hPa 0,0 l/m² 24,2 km/h (4 Bft) SW 229 ° 1 min 207 W/m² 5,5 °C -1,1 °C 27,4 km/h (5 Bft)
17.12.2023 11:17 22,6 °C 7,8 °C 49 % 86 % 1035,6 hPa 0,0 l/m² 20,3 km/h (4 Bft) SW 224 ° 1 min 209 W/m² 5,6 °C 0,3 °C 25,7 km/h (4 Bft)
17.12.2023 11:18 22,6 °C 7,7 °C 49 % 86 % 1035,6 hPa 0,0 l/m² 16,9 km/h (3 Bft) SW 221 ° 1 min 211 W/m² 5,5 °C 1,5 °C 22,5 km/h (4 Bft)
17.12.2023 11:19 22,6 °C 7,7 °C 49 % 86 % 1035,6 hPa 0,0 l/m² 13,2 km/h (3 Bft) SW 216 ° 1 min 213 W/m² 5,5 °C 3,2 °C 17,7 km/h (3 Bft)
17.12.2023 11:20 22,6 °C 7,7 °C 49 % 86 % 1035,5 hPa 0,0 l/m² 18,5 km/h (3 Bft) SW 218 ° 1 min 221 W/m² 5,5 °C 0,9 °C 24,1 km/h (4 Bft)
17.12.2023 11:21 22,6 °C 7,8 °C 49 % 86 % 1035,7 hPa 0,0 l/m² 19,3 km/h (3 Bft) SW 223 ° 1 min 223 W/m² 5,6 °C 0,7 °C 27,4 km/h (5 Bft)
17.12.2023 11:22 22,6 °C 7,8 °C 49 % 86 % 1035,7 hPa 0,0 l/m² 18,7 km/h (3 Bft) S-SW 203 ° 1 min 230 W/m² 5,6 °C 0,9 °C 24,1 km/h (4 Bft)
17.12.2023 11:23 22,6 °C 7,8 °C 49 % 86 % 1035,5 hPa 0,0 l/m² 18,4 km/h (3 Bft) S-SW 207 ° 1 min 234 W/m² 5,6 °C 1,0 °C 22,5 km/h (4 Bft)
17.12.2023 11:24 22,6 °C 7,8 °C 49 % 86 % 1035,5 hPa 0,0 l/m² 17,8 km/h (3 Bft) SW 223 ° 1 min 236 W/m² 5,6 °C 1,3 °C 22,5 km/h (4 Bft)
17.12.2023 11:25 22,6 °C 7,8 °C 49 % 86 % 1035,5 hPa 0,0 l/m² 12,3 km/h (2 Bft) SW 221 ° 1 min 234 W/m² 5,6 °C 3,8 °C 16,1 km/h (3 Bft)
17.12.2023 11:26 22,6 °C 7,8 °C 49 % 87 % 1035,5 hPa 0,0 l/m² 12,6 km/h (3 Bft) S-SW 207 ° 1 min 229 W/m² 5,8 °C 3,7 °C 19,3 km/h (3 Bft)
17.12.2023 11:27 22,6 °C 7,8 °C 49 % 86 % 1035,5 hPa 0,0 l/m² 16,5 km/h (3 Bft) SW 217 ° 1 min 225 W/m² 5,6 °C 1,8 °C 20,9 km/h (4 Bft)
17.12.2023 11:28 22,6 °C 7,8 °C 49 % 86 % 1035,5 hPa 0,0 l/m² 13,7 km/h (3 Bft) S-SW 211 ° 1 min 223 W/m² 5,6 °C 3,1 °C 16,1 km/h (3 Bft)
17.12.2023 11:29 22,6 °C 7,8 °C 49 % 86 % 1035,5 hPa 0,0 l/m² 11,7 km/h (2 Bft) S-SW 212 ° 1 min 230 W/m² 5,6 °C 4,1 °C 14,5 km/h (3 Bft)
17.12.2023 11:30 22,6 °C 7,9 °C 49 % 87 % 1035,4 hPa 0,0 l/m² 13,2 km/h (3 Bft) S-SW 201 ° 1 min 232 W/m² 5,9 °C 3,5 °C 20,9 km/h (4 Bft)
17.12.2023 11:31 22,6 °C 7,8 °C 49 % 86 % 1035,4 hPa 0,0 l/m² 17,9 km/h (3 Bft) SW 217 ° 1 min 230 W/m² 5,6 °C 1,2 °C 20,9 km/h (4 Bft)
17.12.2023 11:32 22,6 °C 7,8 °C 49 % 86 % 1035,4 hPa 0,0 l/m² 16,1 km/h (3 Bft) SW 215 ° 1 min 232 W/m² 5,6 °C 2,0 °C 19,3 km/h (3 Bft)
17.12.2023 11:33 22,6 °C 7,8 °C 49 % 86 % 1035,5 hPa 0,0 l/m² 19,2 km/h (3 Bft) S-SW 204 ° 1 min 232 W/m² 5,6 °C 0,7 °C 22,5 km/h (4 Bft)
17.12.2023 11:34 22,6 °C 7,8 °C 49 % 86 % 1035,4 hPa 0,0 l/m² 19,7 km/h (3 Bft) SW 230 ° 1 min 239 W/m² 5,6 °C 0,6 °C 24,1 km/h (4 Bft)
17.12.2023 11:35 22,6 °C 7,8 °C 49 % 86 % 1035,4 hPa 0,0 l/m² 24,4 km/h (4 Bft) S-SW 211 ° 1 min 243 W/m² 5,6 °C -1,0 °C 32,2 km/h (5 Bft)
17.12.2023 11:36 22,6 °C 7,8 °C 50 % 86 % 1035,4 hPa 0,0 l/m² 16,4 km/h (3 Bft) SW 216 ° 1 min 239 W/m² 5,6 °C 1,8 °C 22,5 km/h (4 Bft)
17.12.2023 11:37 22,6 °C 7,8 °C 50 % 86 % 1035,4 hPa 0,0 l/m² 12,5 km/h (2 Bft) S-SW 209 ° 1 min 236 W/m² 5,6 °C 3,7 °C 16,1 km/h (3 Bft)
17.12.2023 11:38 22,6 °C 7,8 °C 50 % 86 % 1035,3 hPa 0,0 l/m² 15,7 km/h (3 Bft) SW 229 ° 1 min 237 W/m² 5,6 °C 2,2 °C 24,1 km/h (4 Bft)
17.12.2023 11:39 22,6 °C 7,9 °C 50 % 86 % 1035,3 hPa 0,0 l/m² 17,8 km/h (3 Bft) SW 214 ° 1 min 244 W/m² 5,7 °C 1,4 °C 22,5 km/h (4 Bft)
17.12.2023 11:40 22,6 °C 7,8 °C 50 % 86 % 1035,3 hPa 0,0 l/m² 18,0 km/h (3 Bft) W-SW 241 ° 1 min 244 W/m² 5,6 °C 1,2 °C 24,1 km/h (4 Bft)
17.12.2023 11:41 22,6 °C 7,9 °C 50 % 86 % 1035,3 hPa 0,0 l/m² 16,0 km/h (3 Bft) S-SW 212 ° 1 min 239 W/m² 5,7 °C 2,1 °C 19,3 km/h (3 Bft)
17.12.2023 11:42 22,6 °C 7,9 °C 50 % 86 % 1035,3 hPa 0,0 l/m² 17,9 km/h (3 Bft) S-SW 201 ° 1 min 232 W/m² 5,7 °C 1,4 °C 25,7 km/h (4 Bft)
17.12.2023 11:43 22,6 °C 7,9 °C 50 % 86 % 1035,3 hPa 0,0 l/m² 16,1 km/h (3 Bft) SW 219 ° 1 min 232 W/m² 5,7 °C 2,1 °C 19,3 km/h (3 Bft)
17.12.2023 11:44 22,5 °C 7,9 °C 50 % 87 % 1035,3 hPa 0,0 l/m² 14,4 km/h (3 Bft) S-SW 208 ° 1 min 230 W/m² 5,9 °C 2,9 °C 20,9 km/h (4 Bft)
17.12.2023 11:45 22,5 °C 7,9 °C 50 % 86 % 1035,3 hPa 0,0 l/m² 19,0 km/h (3 Bft) S-SW 204 ° 1 min 230 W/m² 5,7 °C 0,9 °C 25,7 km/h (4 Bft)
17.12.2023 11:46 22,6 °C 7,9 °C 50 % 86 % 1035,3 hPa 0,0 l/m² 19,4 km/h (3 Bft) S-SW 207 ° 1 min 237 W/m² 5,7 °C 0,8 °C 30,6 km/h (5 Bft)
17.12.2023 11:47 22,5 °C 7,9 °C 50 % 86 % 1035,2 hPa 0,0 l/m² 20,7 km/h (4 Bft) SW 236 ° 1 min 239 W/m² 5,7 °C 0,3 °C 27,4 km/h (5 Bft)
17.12.2023 11:48 22,5 °C 7,9 °C 50 % 86 % 1035,2 hPa 0,0 l/m² 23,9 km/h (4 Bft) S-SW 211 ° 1 min 232 W/m² 5,7 °C -0,7 °C 27,4 km/h (5 Bft)
17.12.2023 11:49 22,5 °C 7,9 °C 50 % 86 % 1035,3 hPa 0,0 l/m² 19,1 km/h (3 Bft) SW 224 ° 1 min 232 W/m² 5,7 °C 0,9 °C 22,5 km/h (4 Bft)
17.12.2023 11:50 22,4 °C 7,8 °C 50 % 86 % 1035,3 hPa 0,0 l/m² 16,8 km/h (3 Bft) S-SW 200 ° 1 min 237 W/m² 5,6 °C 1,7 °C 22,5 km/h (4 Bft)
17.12.2023 11:51 22,5 °C 7,8 °C 50 % 86 % 1035,2 hPa 0,0 l/m² 20,5 km/h (4 Bft) S-SW 211 ° 1 min 239 W/m² 5,6 °C 0,3 °C 29,0 km/h (5 Bft)
17.12.2023 11:52 22,4 °C 7,8 °C 50 % 86 % 1035,2 hPa 0,0 l/m² 17,8 km/h (3 Bft) SW 219 ° 1 min 246 W/m² 5,6 °C 1,3 °C 22,5 km/h (4 Bft)
17.12.2023 11:53 22,4 °C 7,8 °C 50 % 86 % 1035,2 hPa 0,0 l/m² 15,7 km/h (3 Bft) S-SW 213 ° 1 min 248 W/m² 5,6 °C 2,2 °C 19,3 km/h (3 Bft)
17.12.2023 11:54 22,4 °C 7,9 °C 50 % 86 % 1035,3 hPa 0,0 l/m² 15,8 km/h (3 Bft) SW 215 ° 1 min 246 W/m² 5,7 °C 2,2 °C 20,9 km/h (4 Bft)
17.12.2023 11:55 22,4 °C 7,9 °C 50 % 86 % 1035,3 hPa 0,0 l/m² 17,1 km/h (3 Bft) S-SW 202 ° 1 min 244 W/m² 5,7 °C 1,7 °C 20,9 km/h (4 Bft)
17.12.2023 11:56 22,4 °C 7,9 °C 50 % 86 % 1035,1 hPa 0,0 l/m² 15,6 km/h (3 Bft) SW 215 ° 1 min 244 W/m² 5,7 °C 2,3 °C 19,3 km/h (3 Bft)
17.12.2023 11:57 22,4 °C 7,9 °C 50 % 86 % 1035,1 hPa 0,0 l/m² 18,6 km/h (3 Bft) SW 214 ° 1 min 244 W/m² 5,7 °C 1,1 °C 22,5 km/h (4 Bft)
17.12.2023 11:58 22,4 °C 7,9 °C 50 % 86 % 1035,1 hPa 0,0 l/m² 15,7 km/h (3 Bft) SW 220 ° 1 min 243 W/m² 5,7 °C 2,3 °C 19,3 km/h (3 Bft)
17.12.2023 11:59 22,4 °C 7,9 °C 51 % 86 % 1035,2 hPa 0,0 l/m² 14,3 km/h (3 Bft) S-SW 207 ° 1 min 234 W/m² 5,7 °C 2,9 °C 22,5 km/h (4 Bft)
17.12.2023 12:00 22,4 °C 7,9 °C 51 % 86 % 1035,2 hPa 0,0 l/m² 15,0 km/h (3 Bft) SW 225 ° 1 min 234 W/m² 5,7 °C 2,6 °C 19,3 km/h (3 Bft)
17.12.2023 12:01 22,4 °C 8,0 °C 51 % 86 % 1035,2 hPa 0,0 l/m² 17,7 km/h (3 Bft) SW 229 ° 1 min 241 W/m² 5,8 °C 1,6 °C 24,1 km/h (4 Bft)
17.12.2023 12:02 22,4 °C 8,0 °C 51 % 86 % 1035,1 hPa 0,0 l/m² 23,4 km/h (4 Bft) SW 215 ° 1 min 243 W/m² 5,8 °C -0,4 °C 30,6 km/h (5 Bft)
17.12.2023 12:03 22,4 °C 8,0 °C 51 % 85 % 1035,1 hPa 0,0 l/m² 19,5 km/h (3 Bft) S-SW 205 ° 1 min 243 W/m² 5,6 °C 0,9 °C 24,1 km/h (4 Bft)
17.12.2023 12:04 22,4 °C 7,9 °C 51 % 85 % 1035,2 hPa 0,0 l/m² 23,5 km/h (4 Bft) S-SW 209 ° 1 min 239 W/m² 5,5 °C -0,6 °C 27,4 km/h (5 Bft)
17.12.2023 12:05 22,4 °C 7,9 °C 51 % 85 % 1035,0 hPa 0,0 l/m² 20,3 km/h (4 Bft) W-SW 246 ° 1 min 236 W/m² 5,5 °C 0,5 °C 24,1 km/h (4 Bft)
17.12.2023 12:06 22,4 °C 7,9 °C 51 % 85 % 1035,0 hPa 0,0 l/m² 17,8 km/h (3 Bft) SW 218 ° 1 min 237 W/m² 5,5 °C 1,4 °C 24,1 km/h (4 Bft)
17.12.2023 12:07 22,4 °C 7,9 °C 51 % 85 % 1035,0 hPa 0,0 l/m² 21,8 km/h (4 Bft) SW 217 ° 1 min 237 W/m² 5,5 °C -0,0 °C 27,4 km/h (5 Bft)
17.12.2023 12:08 22,4 °C 7,9 °C 51 % 85 % 1035,1 hPa 0,0 l/m² 16,1 km/h (3 Bft) S-SW 200 ° 1 min 239 W/m² 5,5 °C 2,1 °C 20,9 km/h (4 Bft)
17.12.2023 12:09 22,4 °C 7,9 °C 51 % 86 % 1035,1 hPa 0,0 l/m² 15,7 km/h (3 Bft) S-SW 205 ° 1 min 243 W/m² 5,7 °C 2,3 °C 22,5 km/h (4 Bft)
17.12.2023 12:10 22,4 °C 7,9 °C 51 % 86 % 1035,1 hPa 0,0 l/m² 15,9 km/h (3 Bft) S-SW 205 ° 1 min 236 W/m² 5,7 °C 2,2 °C 17,7 km/h (3 Bft)
17.12.2023 12:11 22,4 °C 7,9 °C 51 % 86 % 1035,2 hPa 0,0 l/m² 12,0 km/h (2 Bft) SW 221 ° 1 min 230 W/m² 5,7 °C 4,1 °C 14,5 km/h (3 Bft)
17.12.2023 12:12 22,4 °C 8,0 °C 51 % 86 % 1035,2 hPa 0,0 l/m² 17,6 km/h (3 Bft) S-SW 196 ° 1 min 229 W/m² 5,8 °C 1,6 °C 24,1 km/h (4 Bft)
17.12.2023 12:13 22,4 °C 8,0 °C 51 % 86 % 1035,1 hPa 0,0 l/m² 18,2 km/h (3 Bft) S-SW 201 ° 1 min 227 W/m² 5,8 °C 1,4 °C 24,1 km/h (4 Bft)
17.12.2023 12:14 22,4 °C 7,9 °C 52 % 85 % 1035,1 hPa 0,0 l/m² 19,2 km/h (3 Bft) SW 221 ° 1 min 229 W/m² 5,5 °C 0,9 °C 24,1 km/h (4 Bft)
17.12.2023 12:15 22,4 °C 8,0 °C 52 % 85 % 1035,1 hPa 0,0 l/m² 14,9 km/h (3 Bft) S-SW 213 ° 1 min 229 W/m² 5,6 °C 2,8 °C 20,9 km/h (4 Bft)
17.12.2023 12:16 22,4 °C 8,0 °C 52 % 85 % 1035,1 hPa 0,0 l/m² 18,2 km/h (3 Bft) SW 218 ° 1 min 225 W/m² 5,6 °C 1,4 °C 27,4 km/h (5 Bft)
17.12.2023 12:17 22,4 °C 8,0 °C 52 % 85 % 1035,2 hPa 0,0 l/m² 15,0 km/h (3 Bft) W-SW 252 ° 1 min 229 W/m² 5,6 °C 2,7 °C 22,5 km/h (4 Bft)
17.12.2023 12:18 22,4 °C 8,0 °C 52 % 85 % 1035,1 hPa 0,0 l/m² 17,4 km/h (3 Bft) SW 230 ° 1 min 225 W/m² 5,6 °C 1,7 °C 22,5 km/h (4 Bft)
17.12.2023 12:19 22,4 °C 8,0 °C 52 % 85 % 1035,2 hPa 0,0 l/m² 17,5 km/h (3 Bft) SW 221 ° 1 min 234 W/m² 5,6 °C 1,6 °C 22,5 km/h (4 Bft)
17.12.2023 12:21 22,4 °C 8,1 °C 52 % 85 % 1035,0 hPa 0,0 l/m² 15,1 km/h (3 Bft) SW 218 ° 2 min 244 W/m² 5,7 °C 2,8 °C 20,9 km/h (4 Bft)
17.12.2023 12:22 22,4 °C 8,1 °C 52 % 86 % 1034,9 hPa 0,0 l/m² 9,8 km/h (2 Bft) SW 223 ° 1 min 246 W/m² 5,9 °C 5,6 °C 12,9 km/h (3 Bft)
17.12.2023 12:23 22,4 °C 8,2 °C 52 % 86 % 1034,9 hPa 0,0 l/m² 14,8 km/h (3 Bft) S-SW 205 ° 1 min 246 W/m² 6,0 °C 3,0 °C 19,3 km/h (3 Bft)
17.12.2023 12:25 22,4 °C 8,2 °C 52 % 86 % 1035,0 hPa 0,0 l/m² 13,2 km/h (3 Bft) S 188 ° 2 min 251 W/m² 6,0 °C 3,8 °C 20,9 km/h (4 Bft)
17.12.2023 12:26 22,4 °C 8,1 °C 52 % 85 % 1035,0 hPa 0,0 l/m² 13,3 km/h (3 Bft) SW 220 ° 1 min 251 W/m² 5,7 °C 3,6 °C 19,3 km/h (3 Bft)
17.12.2023 12:27 22,4 °C 8,2 °C 53 % 86 % 1035,0 hPa 0,0 l/m² 13,7 km/h (3 Bft) S-SW 213 ° 1 min 251 W/m² 6,0 °C 3,6 °C 17,7 km/h (3 Bft)
17.12.2023 12:28 22,4 °C 8,2 °C 53 % 86 % 1035,0 hPa 0,0 l/m² 11,6 km/h (2 Bft) SW 229 ° 1 min 248 W/m² 6,0 °C 4,7 °C 16,1 km/h (3 Bft)
17.12.2023 12:29 22,5 °C 8,2 °C 53 % 86 % 1034,9 hPa 0,0 l/m² 15,1 km/h (3 Bft) S-SW 211 ° 1 min 253 W/m² 6,0 °C 2,9 °C 17,7 km/h (3 Bft)
17.12.2023 12:31 22,5 °C 8,2 °C 53 % 85 % 1034,9 hPa 0,0 l/m² 15,5 km/h (3 Bft) S-SW 198 ° 2 min 241 W/m² 5,8 °C 2,7 °C 19,3 km/h (3 Bft)
17.12.2023 12:32 22,5 °C 8,2 °C 53 % 85 % 1034,8 hPa 0,0 l/m² 14,1 km/h (3 Bft) S-SW 209 ° 1 min 244 W/m² 5,8 °C 3,4 °C 19,3 km/h (3 Bft)
17.12.2023 12:33 22,5 °C 8,1 °C 53 % 85 % 1034,8 hPa 0,0 l/m² 17,2 km/h (3 Bft) SW 216 ° 1 min 237 W/m² 5,7 °C 1,9 °C 19,3 km/h (3 Bft)
17.12.2023 12:35 22,5 °C 8,1 °C 53 % 85 % 1034,7 hPa 0,0 l/m² 16,2 km/h (3 Bft) SW 235 ° 2 min 239 W/m² 5,7 °C 2,3 °C 24,1 km/h (4 Bft)
17.12.2023 12:36 22,6 °C 8,1 °C 53 % 85 % 1034,8 hPa 0,0 l/m² 14,6 km/h (3 Bft) S-SW 194 ° 1 min 246 W/m² 5,7 °C 3,0 °C 19,3 km/h (3 Bft)
17.12.2023 12:37 22,5 °C 8,1 °C 53 % 85 % 1034,7 hPa 0,0 l/m² 14,3 km/h (3 Bft) S-SW 206 ° 1 min 250 W/m² 5,7 °C 3,2 °C 17,7 km/h (3 Bft)
17.12.2023 12:38 22,6 °C 8,1 °C 53 % 85 % 1034,8 hPa 0,0 l/m² 12,8 km/h (3 Bft) S-SW 205 ° 1 min 250 W/m² 5,7 °C 3,9 °C 17,7 km/h (3 Bft)
17.12.2023 12:39 22,6 °C 8,1 °C 53 % 85 % 1034,8 hPa 0,0 l/m² 12,9 km/h (3 Bft) SW 215 ° 1 min 250 W/m² 5,7 °C 3,8 °C 16,1 km/h (3 Bft)
17.12.2023 12:41 22,6 °C 8,2 °C 53 % 85 % 1034,7 hPa 0,0 l/m² 14,1 km/h (3 Bft) S-SW 202 ° 2 min 214 W/m² 5,8 °C 3,4 °C 19,3 km/h (3 Bft)
17.12.2023 12:42 22,6 °C 8,1 °C 53 % 85 % 1034,6 hPa 0,0 l/m² 16,2 km/h (3 Bft) S 191 ° 1 min 221 W/m² 5,7 °C 2,3 °C 22,5 km/h (4 Bft)
17.12.2023 12:43 22,6 °C 8,1 °C 53 % 85 % 1034,6 hPa 0,0 l/m² 13,5 km/h (3 Bft) S-SW 211 ° 1 min 229 W/m² 5,7 °C 3,5 °C 16,1 km/h (3 Bft)
17.12.2023 12:45 22,6 °C 8,1 °C 54 % 85 % 1034,7 hPa 0,0 l/m² 13,6 km/h (3 Bft) SW 214 ° 2 min 229 W/m² 5,7 °C 3,5 °C 19,3 km/h (3 Bft)
17.12.2023 12:47 22,6 °C 8,1 °C 54 % 85 % 1034,6 hPa 0,0 l/m² 10,1 km/h (2 Bft) SW 228 ° 2 min 246 W/m² 5,7 °C 5,4 °C 16,1 km/h (3 Bft)
17.12.2023 12:48 22,6 °C 8,2 °C 53 % 85 % 1034,6 hPa 0,0 l/m² 16,0 km/h (3 Bft) SW 218 ° 1 min 244 W/m² 5,8 °C 2,5 °C 22,5 km/h (4 Bft)
17.12.2023 12:49 22,6 °C 8,2 °C 53 % 85 % 1034,6 hPa 0,0 l/m² 18,3 km/h (3 Bft) SW 215 ° 1 min 246 W/m² 5,8 °C 1,6 °C 25,7 km/h (4 Bft)
17.12.2023 12:51 22,6 °C 8,2 °C 53 % 85 % 1034,5 hPa 0,0 l/m² 12,8 km/h (3 Bft) S-SW 201 ° 2 min 229 W/m² 5,8 °C 4,0 °C 17,7 km/h (3 Bft)
17.12.2023 12:52 22,6 °C 8,2 °C 54 % 85 % 1034,6 hPa 0,0 l/m² 11,1 km/h (2 Bft) S-SW 207 ° 1 min 234 W/m² 5,8 °C 4,9 °C 12,9 km/h (3 Bft)
17.12.2023 12:53 22,6 °C 8,2 °C 54 % 86 % 1034,6 hPa 0,0 l/m² 13,4 km/h (3 Bft) SW 217 ° 1 min 236 W/m² 6,0 °C 3,7 °C 16,1 km/h (3 Bft)
17.12.2023 12:55 22,6 °C 8,2 °C 54 % 85 % 1034,5 hPa 0,0 l/m² 12,8 km/h (3 Bft) SW 228 ° 2 min 230 W/m² 5,8 °C 4,0 °C 17,7 km/h (3 Bft)
17.12.2023 12:57 22,6 °C 8,2 °C 54 % 85 % 1034,5 hPa 0,0 l/m² 14,8 km/h (3 Bft) S-SW 212 ° 2 min 213 W/m² 5,8 °C 3,0 °C 19,3 km/h (3 Bft)
17.12.2023 12:58 22,6 °C 8,2 °C 54 % 85 % 1034,5 hPa 0,0 l/m² 17,6 km/h (3 Bft) SW 223 ° 1 min 221 W/m² 5,8 °C 1,9 °C 19,3 km/h (3 Bft)
17.12.2023 12:59 22,6 °C 8,2 °C 54 % 85 % 1034,5 hPa 0,0 l/m² 19,0 km/h (3 Bft) S-SW 204 ° 1 min 229 W/m² 5,8 °C 1,3 °C 24,1 km/h (4 Bft)
17.12.2023 13:01 22,6 °C 8,1 °C 54 % 85 % 1034,5 hPa 0,0 l/m² 17,9 km/h (3 Bft) S-SW 207 ° 2 min 225 W/m² 5,7 °C 1,6 °C 24,1 km/h (4 Bft)
17.12.2023 13:02 22,6 °C 8,1 °C 54 % 85 % 1034,5 hPa 0,0 l/m² 15,5 km/h (3 Bft) SW 221 ° 1 min 225 W/m² 5,7 °C 2,6 °C 24,1 km/h (4 Bft)
17.12.2023 13:03 22,6 °C 8,1 °C 54 % 85 % 1034,5 hPa 0,0 l/m² 15,0 km/h (3 Bft) SW 215 ° 1 min 216 W/m² 5,7 °C 2,8 °C 19,3 km/h (3 Bft)
17.12.2023 13:05 22,6 °C 8,1 °C 54 % 85 % 1034,4 hPa 0,0 l/m² 17,2 km/h (3 Bft) SW 226 ° 2 min 221 W/m² 5,7 °C 1,9 °C 24,1 km/h (4 Bft)
17.12.2023 13:06 22,6 °C 8,1 °C 54 % 85 % 1034,4 hPa 0,0 l/m² 21,7 km/h (4 Bft) S-SW 209 ° 1 min 216 W/m² 5,7 °C 0,3 °C 27,4 km/h (5 Bft)
17.12.2023 13:07 22,6 °C 8,1 °C 54 % 85 % 1034,4 hPa 0,0 l/m² 17,8 km/h (3 Bft) SW 224 ° 1 min 213 W/m² 5,7 °C 1,6 °C 20,9 km/h (4 Bft)
17.12.2023 13:08 22,6 °C 8,1 °C 54 % 85 % 1034,5 hPa 0,0 l/m² 17,5 km/h (3 Bft) S-SW 208 ° 1 min 218 W/m² 5,7 °C 1,8 °C 22,5 km/h (4 Bft)
17.12.2023 13:09 22,6 °C 8,1 °C 53 % 85 % 1034,4 hPa 0,0 l/m² 13,8 km/h (3 Bft) SW 232 ° 1 min 188 W/m² 5,7 °C 3,4 °C 20,9 km/h (4 Bft)
17.12.2023 13:11 22,6 °C 8,1 °C 53 % 85 % 1034,4 hPa 0,0 l/m² 12,9 km/h (3 Bft) SW 223 ° 2 min 183 W/m² 5,7 °C 3,8 °C 17,7 km/h (3 Bft)
17.12.2023 13:12 22,6 °C 8,0 °C 53 % 86 % 1034,3 hPa 0,0 l/m² 15,2 km/h (3 Bft) SW 216 ° 1 min 190 W/m² 5,8 °C 2,6 °C 20,9 km/h (4 Bft)
17.12.2023 13:13 22,6 °C 8,0 °C 53 % 85 % 1034,3 hPa 0,0 l/m² 19,1 km/h (3 Bft) S-SW 203 ° 1 min 188 W/m² 5,6 °C 1,0 °C 24,1 km/h (4 Bft)
17.12.2023 13:14 22,6 °C 8,0 °C 53 % 85 % 1034,3 hPa 0,0 l/m² 17,9 km/h (3 Bft) S-SW 207 ° 1 min 204 W/m² 5,6 °C 1,5 °C 24,1 km/h (4 Bft)
17.12.2023 13:15 22,6 °C 8,0 °C 53 % 85 % 1034,3 hPa 0,0 l/m² 16,9 km/h (3 Bft) S-SW 211 ° 1 min 207 W/m² 5,6 °C 1,9 °C 19,3 km/h (3 Bft)
17.12.2023 13:16 22,6 °C 7,9 °C 53 % 85 % 1034,3 hPa 0,0 l/m² 18,7 km/h (3 Bft) S-SW 211 ° 1 min 207 W/m² 5,5 °C 1,1 °C 24,1 km/h (4 Bft)
17.12.2023 13:17 22,6 °C 8,0 °C 53 % 85 % 1034,3 hPa 0,0 l/m² 14,6 km/h (3 Bft) S-SW 196 ° 1 min 199 W/m² 5,6 °C 2,9 °C 17,7 km/h (3 Bft)
17.12.2023 13:18 22,6 °C 7,9 °C 53 % 85 % 1034,3 hPa 0,0 l/m² 17,3 km/h (3 Bft) S-SW 211 ° 1 min 200 W/m² 5,5 °C 1,6 °C 19,3 km/h (3 Bft)
17.12.2023 13:19 22,5 °C 7,9 °C 53 % 85 % 1034,2 hPa 0,0 l/m² 16,3 km/h (3 Bft) S 190 ° 1 min 206 W/m² 5,5 °C 2,0 °C 19,3 km/h (3 Bft)
17.12.2023 13:21 22,6 °C 7,9 °C 53 % 85 % 1034,2 hPa 0,0 l/m² 20,4 km/h (4 Bft) S-SW 194 ° 2 min 195 W/m² 5,5 °C 0,4 °C 27,4 km/h (5 Bft)
17.12.2023 13:22 22,6 °C 7,9 °C 53 % 85 % 1034,2 hPa 0,0 l/m² 15,6 km/h (3 Bft) S-SW 206 ° 1 min 192 W/m² 5,5 °C 2,3 °C 20,9 km/h (4 Bft)
17.12.2023 13:23 22,6 °C 7,9 °C 53 % 85 % 1034,2 hPa 0,0 l/m² 17,4 km/h (3 Bft) S-SW 205 ° 1 min 185 W/m² 5,5 °C 1,6 °C 20,9 km/h (4 Bft)
17.12.2023 13:25 22,5 °C 7,8 °C 53 % 85 % 1034,2 hPa 0,0 l/m² 20,9 km/h (4 Bft) S-SW 205 ° 2 min 186 W/m² 5,4 °C 0,1 °C 25,7 km/h (4 Bft)
17.12.2023 13:26 22,5 °C 7,8 °C 53 % 85 % 1034,1 hPa 0,0 l/m² 20,5 km/h (4 Bft) S-SW 207 ° 1 min 186 W/m² 5,4 °C 0,3 °C 27,4 km/h (5 Bft)
17.12.2023 13:27 22,5 °C 7,8 °C 53 % 85 % 1034,2 hPa 0,0 l/m² 24,5 km/h (4 Bft) S-SW 203 ° 1 min 185 W/m² 5,4 °C -1,0 °C 27,4 km/h (5 Bft)
17.12.2023 13:28 22,5 °C 7,8 °C 53 % 85 % 1034,1 hPa 0,0 l/m² 21,2 km/h (4 Bft) S-SW 204 ° 1 min 185 W/m² 5,4 °C 0,0 °C 27,4 km/h (5 Bft)
17.12.2023 13:29 22,5 °C 7,8 °C 53 % 85 % 1034,1 hPa 0,0 l/m² 20,7 km/h (4 Bft) S-SW 208 ° 1 min 186 W/m² 5,4 °C 0,2 °C 25,7 km/h (4 Bft)
17.12.2023 13:31 22,5 °C 7,8 °C 53 % 85 % 1034,1 hPa 0,0 l/m² 19,9 km/h (4 Bft) S-SW 205 ° 2 min 190 W/m² 5,4 °C 0,5 °C 27,4 km/h (5 Bft)
17.12.2023 13:32 22,5 °C 7,8 °C 53 % 85 % 1034,1 hPa 0,0 l/m² 21,1 km/h (4 Bft) SW 218 ° 1 min 195 W/m² 5,4 °C 0,1 °C 24,1 km/h (4 Bft)
17.12.2023 13:33 22,5 °C 7,8 °C 53 % 85 % 1034,1 hPa 0,0 l/m² 18,3 km/h (3 Bft) SW 219 ° 1 min 197 W/m² 5,4 °C 1,1 °C 22,5 km/h (4 Bft)
17.12.2023 13:35 22,5 °C 7,8 °C 53 % 85 % 1034,1 hPa 0,0 l/m² 16,3 km/h (3 Bft) S-SW 213 ° 2 min 193 W/m² 5,4 °C 1,9 °C 22,5 km/h (4 Bft)
17.12.2023 13:36 22,4 °C 7,8 °C 53 % 86 % 1034,0 hPa 0,0 l/m² 13,1 km/h (3 Bft) SW 215 ° 1 min 190 W/m² 5,6 °C 3,4 °C 16,1 km/h (3 Bft)
17.12.2023 13:37 22,5 °C 7,8 °C 53 % 86 % 1034,0 hPa 0,0 l/m² 14,3 km/h (3 Bft) S-SW 213 ° 1 min 183 W/m² 5,6 °C 2,8 °C 17,7 km/h (3 Bft)
17.12.2023 13:38 22,4 °C 7,8 °C 53 % 86 % 1034,0 hPa 0,0 l/m² 18,5 km/h (3 Bft) S-SW 207 ° 1 min 165 W/m² 5,6 °C 1,0 °C 22,5 km/h (4 Bft)
17.12.2023 13:39 22,4 °C 7,8 °C 53 % 86 % 1033,9 hPa 0,0 l/m² 19,8 km/h (3 Bft) S-SW 211 ° 1 min 158 W/m² 5,6 °C 0,5 °C 24,1 km/h (4 Bft)
17.12.2023 13:41 22,4 °C 7,7 °C 53 % 85 % 1033,9 hPa 0,0 l/m² 18,8 km/h (3 Bft) S-SW 196 ° 2 min 160 W/m² 5,3 °C 0,8 °C 24,1 km/h (4 Bft)
17.12.2023 13:42 22,4 °C 7,7 °C 53 % 85 % 1033,9 hPa 0,0 l/m² 19,7 km/h (3 Bft) S-SW 194 ° 1 min 172 W/m² 5,3 °C 0,4 °C 24,1 km/h (4 Bft)
17.12.2023 13:43 22,4 °C 7,7 °C 53 % 85 % 1033,9 hPa 0,0 l/m² 18,7 km/h (3 Bft) S-SW 202 ° 1 min 174 W/m² 5,3 °C 0,8 °C 20,9 km/h (4 Bft)
17.12.2023 13:45 22,4 °C 7,7 °C 53 % 86 % 1033,9 hPa 0,0 l/m² 17,3 km/h (3 Bft) S-SW 196 ° 2 min 155 W/m² 5,5 °C 1,3 °C 22,5 km/h (4 Bft)
17.12.2023 13:46 22,4 °C 7,7 °C 53 % 86 % 1033,9 hPa 0,0 l/m² 18,6 km/h (3 Bft) SW 219 ° 1 min 151 W/m² 5,5 °C 0,8 °C 20,9 km/h (4 Bft)
17.12.2023 13:47 22,4 °C 7,7 °C 53 % 86 % 1033,9 hPa 0,0 l/m² 17,3 km/h (3 Bft) SW 214 ° 1 min 158 W/m² 5,5 °C 1,3 °C 20,9 km/h (4 Bft)
17.12.2023 13:48 22,4 °C 7,6 °C 53 % 85 % 1033,9 hPa 0,0 l/m² 20,0 km/h (4 Bft) S-SW 209 ° 1 min 163 W/m² 5,2 °C 0,2 °C 24,1 km/h (4 Bft)
17.12.2023 13:49 22,4 °C 7,7 °C 53 % 86 % 1033,9 hPa 0,0 l/m² 12,9 km/h (3 Bft) S-SW 207 ° 1 min 169 W/m² 5,5 °C 3,4 °C 19,3 km/h (3 Bft)
17.12.2023 13:51 22,4 °C 7,6 °C 53 % 85 % 1033,9 hPa 0,0 l/m² 18,4 km/h (3 Bft) S-SW 210 ° 2 min 167 W/m² 5,2 °C 0,8 °C 25,7 km/h (4 Bft)
17.12.2023 13:52 22,4 °C 7,7 °C 53 % 85 % 1033,9 hPa 0,0 l/m² 15,9 km/h (3 Bft) SW 227 ° 1 min 167 W/m² 5,3 °C 1,9 °C 22,5 km/h (4 Bft)
17.12.2023 13:53 22,4 °C 7,7 °C 53 % 85 % 1033,9 hPa 0,0 l/m² 14,9 km/h (3 Bft) SW 223 ° 1 min 165 W/m² 5,3 °C 2,4 °C 17,7 km/h (3 Bft)
17.12.2023 13:55 22,4 °C 7,7 °C 53 % 85 % 1033,9 hPa 0,0 l/m² 17,4 km/h (3 Bft) SW 221 ° 2 min 165 W/m² 5,3 °C 1,3 °C 22,5 km/h (4 Bft)
17.12.2023 13:56 22,4 °C 7,7 °C 53 % 85 % 1033,9 hPa 0,0 l/m² 15,0 km/h (3 Bft) S-SW 207 ° 1 min 160 W/m² 5,3 °C 2,3 °C 17,7 km/h (3 Bft)
17.12.2023 13:57 22,4 °C 7,7 °C 53 % 85 % 1033,8 hPa 0,0 l/m² 12,6 km/h (3 Bft) SW 232 ° 1 min 155 W/m² 5,3 °C 3,5 °C 16,1 km/h (3 Bft)
17.12.2023 13:58 22,4 °C 7,7 °C 53 % 85 % 1033,9 hPa 0,0 l/m² 14,9 km/h (3 Bft) S-SW 195 ° 1 min 153 W/m² 5,3 °C 2,4 °C 19,3 km/h (3 Bft)
17.12.2023 13:59 22,4 °C 7,7 °C 53 % 85 % 1033,9 hPa 0,0 l/m² 14,1 km/h (3 Bft) SW 219 ° 1 min 151 W/m² 5,3 °C 2,8 °C 20,9 km/h (4 Bft)
17.12.2023 14:01 22,4 °C 7,7 °C 53 % 85 % 1033,9 hPa 0,0 l/m² 17,6 km/h (3 Bft) S-SW 209 ° 2 min 142 W/m² 5,3 °C 1,2 °C 22,5 km/h (4 Bft)
17.12.2023 14:02 22,4 °C 7,6 °C 53 % 84 % 1033,8 hPa 0,0 l/m² 13,4 km/h (3 Bft) SW 227 ° 1 min 139 W/m² 5,1 °C 3,0 °C 16,1 km/h (3 Bft)
17.12.2023 14:03 22,4 °C 7,6 °C 53 % 85 % 1033,8 hPa 0,0 l/m² 14,6 km/h (3 Bft) SW 216 ° 1 min 139 W/m² 5,2 °C 2,4 °C 20,9 km/h (4 Bft)
17.12.2023 14:05 22,4 °C 7,6 °C 53 % 85 % 1033,7 hPa 0,0 l/m² 13,9 km/h (3 Bft) SW 219 ° 2 min 139 W/m² 5,2 °C 2,8 °C 19,3 km/h (3 Bft)
17.12.2023 14:06 22,4 °C 7,6 °C 53 % 85 % 1033,7 hPa 0,0 l/m² 15,1 km/h (3 Bft) SW 226 ° 1 min 139 W/m² 5,2 °C 2,2 °C 19,3 km/h (3 Bft)
17.12.2023 14:07 22,4 °C 7,6 °C 53 % 85 % 1033,8 hPa 0,0 l/m² 16,1 km/h (3 Bft) SW 223 ° 1 min 139 W/m² 5,2 °C 1,7 °C 20,9 km/h (4 Bft)
17.12.2023 14:08 22,4 °C 7,6 °C 53 % 84 % 1033,8 hPa 0,0 l/m² 14,8 km/h (3 Bft) S-SW 199 ° 1 min 137 W/m² 5,1 °C 2,3 °C 17,7 km/h (3 Bft)
17.12.2023 14:09 22,4 °C 7,6 °C 53 % 85 % 1033,7 hPa 0,0 l/m² 17,3 km/h (3 Bft) SW 215 ° 1 min 137 W/m² 5,2 °C 1,2 °C 19,3 km/h (3 Bft)
17.12.2023 14:11 22,4 °C 7,6 °C 53 % 85 % 1033,6 hPa 0,0 l/m² 15,8 km/h (3 Bft) SW 230 ° 2 min 137 W/m² 5,2 °C 1,9 °C 22,5 km/h (4 Bft)
17.12.2023 14:12 22,4 °C 7,6 °C 53 % 85 % 1033,8 hPa 0,0 l/m² 17,1 km/h (3 Bft) SW 223 ° 1 min 135 W/m² 5,2 °C 1,3 °C 20,9 km/h (4 Bft)
17.12.2023 14:13 22,4 °C 7,6 °C 53 % 85 % 1033,8 hPa 0,0 l/m² 15,8 km/h (3 Bft) SW 221 ° 1 min 137 W/m² 5,2 °C 1,9 °C 19,3 km/h (3 Bft)
17.12.2023 14:15 22,4 °C 7,6 °C 53 % 85 % 1033,7 hPa 0,0 l/m² 15,3 km/h (3 Bft) S-SW 212 ° 2 min 139 W/m² 5,2 °C 2,1 °C 19,3 km/h (3 Bft)
17.12.2023 14:16 22,4 °C 7,6 °C 53 % 85 % 1033,7 hPa 0,0 l/m² 14,9 km/h (3 Bft) SW 219 ° 1 min 137 W/m² 5,2 °C 2,3 °C 19,3 km/h (3 Bft)
17.12.2023 14:17 22,4 °C 7,6 °C 53 % 85 % 1033,7 hPa 0,0 l/m² 15,4 km/h (3 Bft) SW 223 ° 1 min 135 W/m² 5,2 °C 2,0 °C 19,3 km/h (3 Bft)
17.12.2023 14:18 22,4 °C 7,6 °C 53 % 85 % 1033,8 hPa 0,0 l/m² 15,6 km/h (3 Bft) S-SW 208 ° 1 min 132 W/m² 5,2 °C 2,0 °C 17,7 km/h (3 Bft)
17.12.2023 14:19 22,4 °C 7,6 °C 53 % 85 % 1033,6 hPa 0,0 l/m² 17,1 km/h (3 Bft) S-SW 200 ° 1 min 132 W/m² 5,2 °C 1,3 °C 19,3 km/h (3 Bft)
17.12.2023 14:21 22,3 °C 7,6 °C 52 % 85 % 1033,6 hPa 0,0 l/m² 15,6 km/h (3 Bft) SW 226 ° 2 min 132 W/m² 5,2 °C 2,0 °C 20,9 km/h (4 Bft)
17.12.2023 14:22 22,3 °C 7,6 °C 52 % 85 % 1033,7 hPa 0,0 l/m² 14,8 km/h (3 Bft) SW 223 ° 1 min 132 W/m² 5,2 °C 2,3 °C 17,7 km/h (3 Bft)
17.12.2023 14:23 22,3 °C 7,6 °C 52 % 85 % 1033,7 hPa 0,0 l/m² 17,3 km/h (3 Bft) S-SW 207 ° 1 min 132 W/m² 5,2 °C 1,2 °C 20,9 km/h (4 Bft)
17.12.2023 14:25 22,3 °C 7,6 °C 52 % 84 % 1033,7 hPa 0,0 l/m² 16,2 km/h (3 Bft) SW 223 ° 2 min 127 W/m² 5,1 °C 1,7 °C 20,9 km/h (4 Bft)
17.12.2023 14:26 22,3 °C 7,5 °C 51 % 84 % 1033,6 hPa 0,0 l/m² 15,3 km/h (3 Bft) SW 216 ° 1 min 123 W/m² 5,0 °C 2,0 °C 17,7 km/h (3 Bft)
17.12.2023 14:27 22,3 °C 7,6 °C 51 % 84 % 1033,5 hPa 0,0 l/m² 12,8 km/h (3 Bft) S-SW 213 ° 1 min 120 W/m² 5,1 °C 3,3 °C 19,3 km/h (3 Bft)
17.12.2023 14:28 22,3 °C 7,6 °C 51 % 84 % 1033,5 hPa 0,0 l/m² 11,4 km/h (2 Bft) W-SW 238 ° 1 min 121 W/m² 5,1 °C 4,1 °C 17,7 km/h (3 Bft)
17.12.2023 14:29 22,3 °C 7,6 °C 51 % 85 % 1033,6 hPa 0,0 l/m² 11,3 km/h (2 Bft) SW 217 ° 1 min 121 W/m² 5,2 °C 4,1 °C 12,9 km/h (3 Bft)
17.12.2023 14:31 22,3 °C 7,6 °C 51 % 84 % 1033,5 hPa 0,0 l/m² 13,2 km/h (3 Bft) SW 214 ° 2 min 118 W/m² 5,1 °C 3,1 °C 20,9 km/h (4 Bft)
17.12.2023 14:32 22,3 °C 7,6 °C 51 % 84 % 1033,5 hPa 0,0 l/m² 22,7 km/h (4 Bft) SW 220 ° 1 min 120 W/m² 5,1 °C -0,7 °C 27,4 km/h (5 Bft)
17.12.2023 14:33 22,3 °C 7,6 °C 50 % 84 % 1033,5 hPa 0,0 l/m² 16,7 km/h (3 Bft) SW 218 ° 1 min 118 W/m² 5,1 °C 1,5 °C 22,5 km/h (4 Bft)
17.12.2023 14:34 22,3 °C 7,6 °C 50 % 84 % 1033,4 hPa 0,0 l/m² 16,9 km/h (3 Bft) S-SW 198 ° 1 min 116 W/m² 5,1 °C 1,4 °C 22,5 km/h (4 Bft)
17.12.2023 14:35 22,3 °C 7,6 °C 51 % 84 % 1033,4 hPa 0,0 l/m² 17,4 km/h (3 Bft) SW 215 ° 1 min 116 W/m² 5,1 °C 1,2 °C 20,9 km/h (4 Bft)
17.12.2023 14:36 22,3 °C 7,6 °C 50 % 84 % 1033,4 hPa 0,0 l/m² 16,0 km/h (3 Bft) SW 229 ° 1 min 114 W/m² 5,1 °C 1,8 °C 20,9 km/h (4 Bft)
17.12.2023 14:37 22,3 °C 7,6 °C 51 % 84 % 1033,4 hPa 0,0 l/m² 15,7 km/h (3 Bft) SW 236 ° 1 min 113 W/m² 5,1 °C 1,9 °C 19,3 km/h (3 Bft)
17.12.2023 14:38 22,3 °C 7,6 °C 51 % 84 % 1033,4 hPa 0,0 l/m² 12,2 km/h (2 Bft) SW 220 ° 1 min 111 W/m² 5,1 °C 3,6 °C 17,7 km/h (3 Bft)
17.12.2023 14:39 22,2 °C 7,6 °C 51 % 84 % 1033,5 hPa 0,0 l/m² 15,9 km/h (3 Bft) S-SW 211 ° 1 min 111 W/m² 5,1 °C 1,8 °C 20,9 km/h (4 Bft)
17.12.2023 14:41 22,2 °C 7,6 °C 51 % 84 % 1033,4 hPa 0,0 l/m² 17,0 km/h (3 Bft) SW 223 ° 2 min 107 W/m² 5,1 °C 1,3 °C 24,1 km/h (4 Bft)
17.12.2023 14:43 22,2 °C 7,5 °C 51 % 84 % 1033,4 hPa 0,0 l/m² 17,7 km/h (3 Bft) S-SW 213 ° 2 min 97 W/m² 5,0 °C 0,9 °C 25,7 km/h (4 Bft)
17.12.2023 14:44 22,2 °C 7,5 °C 51 % 84 % 1033,3 hPa 0,0 l/m² 19,2 km/h (3 Bft) SW 225 ° 1 min 93 W/m² 5,0 °C 0,4 °C 24,1 km/h (4 Bft)
17.12.2023 14:45 22,2 °C 7,5 °C 51 % 84 % 1033,3 hPa 0,0 l/m² 18,5 km/h (3 Bft) S-SW 205 ° 1 min 91 W/m² 5,0 °C 0,6 °C 22,5 km/h (4 Bft)
17.12.2023 14:46 22,2 °C 7,4 °C 51 % 84 % 1033,3 hPa 0,0 l/m² 15,7 km/h (3 Bft) SW 229 ° 1 min 90 W/m² 4,9 °C 1,7 °C 20,9 km/h (4 Bft)
17.12.2023 14:47 22,2 °C 7,4 °C 51 % 84 % 1033,3 hPa 0,0 l/m² 13,4 km/h (3 Bft) S 191 ° 1 min 88 W/m² 4,9 °C 2,8 °C 17,7 km/h (3 Bft)
17.12.2023 14:48 22,2 °C 7,4 °C 51 % 84 % 1033,3 hPa 0,0 l/m² 10,2 km/h (2 Bft) SW 223 ° 1 min 86 W/m² 4,9 °C 4,6 °C 17,7 km/h (3 Bft)
17.12.2023 14:49 22,2 °C 7,4 °C 51 % 84 % 1033,3 hPa 0,0 l/m² 16,9 km/h (3 Bft) S-SW 213 ° 1 min 84 W/m² 4,9 °C 1,1 °C 22,5 km/h (4 Bft)
17.12.2023 14:51 22,2 °C 7,4 °C 51 % 84 % 1033,4 hPa 0,0 l/m² 14,4 km/h (3 Bft) W-SW 238 ° 2 min 79 W/m² 4,9 °C 2,3 °C 20,9 km/h (4 Bft)
17.12.2023 14:53 22,2 °C 7,3 °C 51 % 84 % 1033,3 hPa 0,0 l/m² 13,7 km/h (3 Bft) S-SW 212 ° 2 min 76 W/m² 4,8 °C 2,5 °C 20,9 km/h (4 Bft)
17.12.2023 14:54 22,2 °C 7,3 °C 51 % 84 % 1033,4 hPa 0,0 l/m² 18,5 km/h (3 Bft) W-SW 256 ° 1 min 70 W/m² 4,8 °C 0,4 °C 22,5 km/h (4 Bft)
17.12.2023 14:55 22,2 °C 7,3 °C 51 % 84 % 1033,4 hPa 0,0 l/m² 16,9 km/h (3 Bft) SW 217 ° 1 min 69 W/m² 4,8 °C 1,0 °C 20,9 km/h (4 Bft)
17.12.2023 14:56 22,2 °C 7,3 °C 51 % 84 % 1033,4 hPa 0,0 l/m² 10,0 km/h (2 Bft) SW 226 ° 1 min 67 W/m² 4,8 °C 4,6 °C 12,9 km/h (3 Bft)
17.12.2023 14:57 22,2 °C 7,3 °C 51 % 84 % 1033,4 hPa 0,0 l/m² 13,0 km/h (3 Bft) S-SW 207 ° 1 min 65 W/m² 4,8 °C 2,9 °C 17,7 km/h (3 Bft)
17.12.2023 14:58 22,1 °C 7,3 °C 51 % 84 % 1033,4 hPa 0,0 l/m² 12,4 km/h (2 Bft) SW 223 ° 1 min 63 W/m² 4,8 °C 3,2 °C 17,7 km/h (3 Bft)
17.12.2023 14:59 22,2 °C 7,3 °C 51 % 84 % 1033,5 hPa 0,0 l/m² 8,2 km/h (2 Bft) W-SW 248 ° 1 min 62 W/m² 4,8 °C 5,9 °C 11,3 km/h (2 Bft)
17.12.2023 15:01 22,2 °C 7,3 °C 51 % 84 % 1033,4 hPa 0,0 l/m² 11,7 km/h (2 Bft) SW 223 ° 2 min 58 W/m² 4,8 °C 3,6 °C 22,5 km/h (4 Bft)
17.12.2023 15:03 22,2 °C 7,3 °C 51 % 84 % 1033,3 hPa 0,0 l/m² 9,7 km/h (2 Bft) SW 226 ° 2 min 54 W/m² 4,8 °C 4,8 °C 14,5 km/h (3 Bft)
17.12.2023 15:04 22,1 °C 7,3 °C 51 % 84 % 1033,3 hPa 0,0 l/m² 10,4 km/h (2 Bft) S-SW 213 ° 1 min 54 W/m² 4,8 °C 4,4 °C 14,5 km/h (3 Bft)
17.12.2023 15:05 22,1 °C 7,3 °C 51 % 84 % 1033,3 hPa 0,0 l/m² 13,5 km/h (3 Bft) SW 218 ° 1 min 53 W/m² 4,8 °C 2,6 °C 17,7 km/h (3 Bft)
17.12.2023 15:06 22,1 °C 7,2 °C 51 % 84 % 1033,3 hPa 0,0 l/m² 12,2 km/h (2 Bft) SW 227 ° 0 min 51 W/m² 4,7 °C 3,2 °C 16,1 km/h (3 Bft)
17.12.2023 15:07 22,1 °C 7,2 °C 51 % 84 % 1033,3 hPa 0,0 l/m² 12,7 km/h (3 Bft) W-SW 248 ° 0 min 49 W/m² 4,7 °C 2,9 °C 19,3 km/h (3 Bft)
17.12.2023 15:08 22,1 °C 7,2 °C 51 % 84 % 1033,3 hPa 0,0 l/m² 10,4 km/h (2 Bft) SW 234 ° 0 min 49 W/m² 4,7 °C 4,2 °C 14,5 km/h (3 Bft)
17.12.2023 15:09 22,1 °C 7,2 °C 51 % 84 % 1033,3 hPa 0,0 l/m² 9,3 km/h (2 Bft) W-SW 244 ° 0 min 49 W/m² 4,7 °C 5,0 °C 12,9 km/h (3 Bft)
17.12.2023 15:11 22,1 °C 7,2 °C 51 % 84 % 1033,3 hPa 0,0 l/m² 10,3 km/h (2 Bft) W 263 ° 0 min 47 W/m² 4,7 °C 4,3 °C 17,7 km/h (3 Bft)
17.12.2023 15:13 22,1 °C 7,1 °C 51 % 84 % 1033,2 hPa 0,0 l/m² 12,9 km/h (3 Bft) SW 222 ° 0 min 42 W/m² 4,6 °C 2,7 °C 17,7 km/h (3 Bft)
17.12.2023 15:14 22,1 °C 7,0 °C 51 % 84 % 1033,1 hPa 0,0 l/m² 12,0 km/h (2 Bft) SW 229 ° 0 min 42 W/m² 4,5 °C 3,1 °C 16,1 km/h (3 Bft)
17.12.2023 15:15 22,1 °C 6,9 °C 51 % 84 % 1033,2 hPa 0,0 l/m² 9,3 km/h (2 Bft) SW 234 ° 0 min 40 W/m² 4,4 °C 4,6 °C 12,9 km/h (3 Bft)
17.12.2023 15:16 22,1 °C 6,9 °C 52 % 84 % 1033,2 hPa 0,0 l/m² 6,5 km/h (2 Bft) SW 225 ° 0 min 40 W/m² 4,4 °C 6,8 °C 8,0 km/h (2 Bft)
17.12.2023 15:17 22,1 °C 6,8 °C 51 % 85 % 1033,1 hPa 0,0 l/m² 6,4 km/h (2 Bft) SW 224 ° 0 min 39 W/m² 4,5 °C 6,8 °C 9,7 km/h (2 Bft)
17.12.2023 15:18 22,1 °C 6,8 °C 52 % 85 % 1033,2 hPa 0,0 l/m² 7,1 km/h (2 Bft) SW 220 ° 0 min 37 W/m² 4,5 °C 6,2 °C 11,3 km/h (2 Bft)
17.12.2023 15:19 22,1 °C 6,8 °C 52 % 85 % 1033,2 hPa 0,0 l/m² 8,2 km/h (2 Bft) SW 220 ° 0 min 37 W/m² 4,5 °C 5,3 °C 11,3 km/h (2 Bft)
17.12.2023 15:21 22,1 °C 6,7 °C 52 % 85 % 1033,2 hPa 0,0 l/m² 5,7 km/h (2 Bft) SW 225 ° 0 min 33 W/m² 4,4 °C 6,7 °C 8,0 km/h (2 Bft)
17.12.2023 15:23 22,1 °C 6,7 °C 52 % 85 % 1033,2 hPa 0,0 l/m² 3,9 km/h (1 Bft) SW 232 ° 0 min 32 W/m² 4,4 °C 6,7 °C 9,7 km/h (2 Bft)
17.12.2023 15:24 22,2 °C 6,7 °C 52 % 85 % 1033,3 hPa 0,0 l/m² 2,1 km/h (1 Bft) SW 232 ° 0 min 30 W/m² 4,4 °C 6,7 °C 4,8 km/h (1 Bft)
17.12.2023 15:25 22,2 °C 6,7 °C 52 % 85 % 1033,3 hPa 0,0 l/m² 3,4 km/h (1 Bft) SW 234 ° 0 min 30 W/m² 4,4 °C 6,7 °C 4,8 km/h (1 Bft)
17.12.2023 15:26 22,2 °C 6,7 °C 52 % 85 % 1033,3 hPa 0,0 l/m² 6,0 km/h (2 Bft) W-SW 238 ° 0 min 28 W/m² 4,4 °C 6,7 °C 8,0 km/h (2 Bft)
17.12.2023 15:27 22,2 °C 6,6 °C 52 % 85 % 1033,4 hPa 0,0 l/m² 6,7 km/h (2 Bft) S-SW 212 ° 0 min 26 W/m² 4,3 °C 6,4 °C 8,0 km/h (2 Bft)
17.12.2023 15:28 22,3 °C 6,6 °C 52 % 85 % 1033,3 hPa 0,0 l/m² 8,1 km/h (2 Bft) SW 219 ° 0 min 26 W/m² 4,3 °C 5,2 °C 11,3 km/h (2 Bft)
17.12.2023 15:29 22,3 °C 6,4 °C 52 % 85 % 1033,3 hPa 0,0 l/m² 12,3 km/h (2 Bft) SW 216 ° 0 min 25 W/m² 4,1 °C 2,2 °C 14,5 km/h (3 Bft)
17.12.2023 15:31 22,3 °C 6,4 °C 52 % 85 % 1033,5 hPa 0,0 l/m² 11,2 km/h (2 Bft) S-SW 207 ° 0 min 23 W/m² 4,1 °C 2,8 °C 17,7 km/h (3 Bft)
17.12.2023 15:33 22,3 °C 6,4 °C 52 % 86 % 1033,4 hPa 0,0 l/m² 10,2 km/h (2 Bft) SW 236 ° 0 min 21 W/m² 4,2 °C 3,5 °C 14,5 km/h (3 Bft)
17.12.2023 15:34 22,3 °C 6,4 °C 52 % 86 % 1033,4 hPa 0,0 l/m² 12,3 km/h (2 Bft) SW 233 ° 0 min 21 W/m² 4,2 °C 2,2 °C 17,7 km/h (3 Bft)
17.12.2023 15:35 22,4 °C 6,4 °C 52 % 86 % 1033,4 hPa 0,0 l/m² 13,7 km/h (3 Bft) SW 215 ° 0 min 19 W/m² 4,2 °C 1,4 °C 17,7 km/h (3 Bft)
17.12.2023 15:36 22,4 °C 6,3 °C 52 % 86 % 1033,3 hPa 0,0 l/m² 16,4 km/h (3 Bft) SW 219 ° 0 min 18 W/m² 4,1 °C -0,0 °C 24,1 km/h (4 Bft)
17.12.2023 15:37 22,4 °C 6,4 °C 52 % 86 % 1033,3 hPa 0,0 l/m² 19,0 km/h (3 Bft) SW 233 ° 0 min 18 W/m² 4,2 °C -1,0 °C 25,7 km/h (4 Bft)
17.12.2023 15:38 22,4 °C 6,4 °C 52 % 86 % 1033,2 hPa 0,0 l/m² 17,3 km/h (3 Bft) SW 222 ° 0 min 18 W/m² 4,2 °C -0,3 °C 20,9 km/h (4 Bft)
17.12.2023 15:39 22,4 °C 6,4 °C 52 % 86 % 1033,3 hPa 0,0 l/m² 19,8 km/h (3 Bft) S-SW 205 ° 0 min 16 W/m² 4,2 °C -1,3 °C 22,5 km/h (4 Bft)
17.12.2023 15:41 22,4 °C 6,4 °C 53 % 86 % 1033,2 hPa 0,0 l/m² 15,0 km/h (3 Bft) SW 224 ° 0 min 14 W/m² 4,2 °C 0,8 °C 19,3 km/h (3 Bft)
17.12.2023 15:43 22,5 °C 6,4 °C 53 % 86 % 1033,3 hPa 0,0 l/m² 17,9 km/h (3 Bft) SW 225 ° 0 min 14 W/m² 4,2 °C -0,5 °C 25,7 km/h (4 Bft)
17.12.2023 15:45 22,6 °C 6,4 °C 53 % 86 % 1033,2 hPa 0,0 l/m² 20,0 km/h (4 Bft) S-SW 212 ° 0 min 12 W/m² 4,2 °C -1,4 °C 29,0 km/h (5 Bft)
17.12.2023 15:46 22,6 °C 6,4 °C 53 % 86 % 1033,2 hPa 0,0 l/m² 16,1 km/h (3 Bft) SW 235 ° 0 min 12 W/m² 4,2 °C 0,3 °C 17,7 km/h (3 Bft)
17.12.2023 15:47 22,6 °C 6,4 °C 53 % 86 % 1033,3 hPa 0,0 l/m² 11,3 km/h (2 Bft) SW 218 ° 0 min 11 W/m² 4,2 °C 2,8 °C 16,1 km/h (3 Bft)
17.12.2023 15:48 22,6 °C 6,4 °C 53 % 86 % 1033,3 hPa 0,0 l/m² 16,9 km/h (3 Bft) S-SW 211 ° 0 min 11 W/m² 4,2 °C -0,1 °C 24,1 km/h (4 Bft)
17.12.2023 15:49 22,6 °C 6,3 °C 53 % 86 % 1033,2 hPa 0,0 l/m² 18,4 km/h (3 Bft) SW 223 ° 0 min 11 W/m² 4,1 °C -0,9 °C 24,1 km/h (4 Bft)
17.12.2023 15:51 22,6 °C 6,3 °C 53 % 86 % 1033,2 hPa 0,0 l/m² 20,1 km/h (4 Bft) SW 217 ° 0 min 9 W/m² 4,1 °C -1,5 °C 25,7 km/h (4 Bft)
17.12.2023 15:53 22,6 °C 6,3 °C 53 % 86 % 1033,3 hPa 0,0 l/m² 20,7 km/h (4 Bft) SW 220 ° 0 min 7 W/m² 4,1 °C -1,8 °C 25,7 km/h (4 Bft)
17.12.2023 15:54 22,6 °C 6,3 °C 53 % 86 % 1033,2 hPa 0,0 l/m² 19,0 km/h (3 Bft) SW 215 ° 0 min 7 W/m² 4,1 °C -1,1 °C 25,7 km/h (4 Bft)
17.12.2023 15:55 22,6 °C 6,3 °C 53 % 86 % 1033,3 hPa 0,0 l/m² 18,2 km/h (3 Bft) SW 217 ° 0 min 7 W/m² 4,1 °C -0,8 °C 22,5 km/h (4 Bft)
17.12.2023 15:56 22,7 °C 6,3 °C 53 % 86 % 1033,2 hPa 0,0 l/m² 16,8 km/h (3 Bft) SW 222 ° 0 min 7 W/m² 4,1 °C -0,2 °C 20,9 km/h (4 Bft)
17.12.2023 15:57 22,7 °C 6,3 °C 53 % 86 % 1033,2 hPa 0,0 l/m² 17,7 km/h (3 Bft) W-SW 240 ° 0 min 7 W/m² 4,1 °C -0,6 °C 25,7 km/h (4 Bft)
17.12.2023 15:58 22,7 °C 6,2 °C 53 % 86 % 1033,2 hPa 0,0 l/m² 19,2 km/h (3 Bft) SW 221 ° 0 min 5 W/m² 4,0 °C -1,3 °C 27,4 km/h (5 Bft)
17.12.2023 15:59 22,7 °C 6,2 °C 53 % 86 % 1033,3 hPa 0,0 l/m² 22,4 km/h (4 Bft) SW 216 ° 0 min 5 W/m² 4,0 °C -2,5 °C 27,4 km/h (5 Bft)
17.12.2023 16:01 22,7 °C 6,2 °C 53 % 86 % 1033,2 hPa 0,0 l/m² 18,7 km/h (3 Bft) SW 219 ° 0 min 5 W/m² 4,0 °C -1,1 °C 25,7 km/h (4 Bft)
17.12.2023 16:03 22,7 °C 6,2 °C 53 % 86 % 1033,2 hPa 0,0 l/m² 18,7 km/h (3 Bft) SW 217 ° 0 min 5 W/m² 4,0 °C -1,1 °C 22,5 km/h (4 Bft)
17.12.2023 16:04 22,7 °C 6,2 °C 53 % 86 % 1033,2 hPa 0,0 l/m² 16,9 km/h (3 Bft) SW 215 ° 0 min 5 W/m² 4,0 °C -0,4 °C 22,5 km/h (4 Bft)
17.12.2023 16:05 22,7 °C 6,2 °C 53 % 86 % 1033,3 hPa 0,0 l/m² 13,9 km/h (3 Bft) S-SW 213 ° 0 min 0 W/m² 4,0 °C 1,1 °C 19,3 km/h (3 Bft)
17.12.2023 16:06 22,7 °C 6,2 °C 53 % 86 % 1033,2 hPa 0,0 l/m² 15,9 km/h (3 Bft) SW 219 ° 0 min 0 W/m² 4,0 °C 0,1 °C 20,9 km/h (4 Bft)
17.12.2023 16:07 22,7 °C 6,2 °C 53 % 86 % 1033,3 hPa 0,0 l/m² 13,0 km/h (3 Bft) SW 230 ° 0 min 0 W/m² 4,0 °C 1,6 °C 22,5 km/h (4 Bft)
17.12.2023 16:08 22,7 °C 6,1 °C 53 % 86 % 1033,3 hPa 0,0 l/m² 16,3 km/h (3 Bft) SW 219 ° 0 min 0 W/m² 3,9 °C -0,2 °C 22,5 km/h (4 Bft)
17.12.2023 16:09 22,7 °C 6,1 °C 53 % 86 % 1033,3 hPa 0,0 l/m² 17,0 km/h (3 Bft) S-SW 211 ° 0 min 0 W/m² 3,9 °C -0,5 °C 24,1 km/h (4 Bft)
17.12.2023 16:11 22,8 °C 6,1 °C 53 % 86 % 1033,4 hPa 0,0 l/m² 17,9 km/h (3 Bft) S-SW 211 ° 0 min 5 W/m² 3,9 °C -0,9 °C 25,7 km/h (4 Bft)
17.12.2023 16:13 22,8 °C 6,1 °C 53 % 87 % 1033,3 hPa 0,0 l/m² 14,4 km/h (3 Bft) S 191 ° 0 min 5 W/m² 4,1 °C 0,7 °C 17,7 km/h (3 Bft)
17.12.2023 16:14 22,8 °C 6,1 °C 53 % 87 % 1033,2 hPa 0,0 l/m² 15,7 km/h (3 Bft) S-SW 210 ° 0 min 5 W/m² 4,1 °C 0,1 °C 22,5 km/h (4 Bft)
17.12.2023 16:15 22,7 °C 6,1 °C 53 % 87 % 1033,3 hPa 0,0 l/m² 19,9 km/h (4 Bft) SW 223 ° 0 min 5 W/m² 4,1 °C -1,7 °C 25,7 km/h (4 Bft)
17.12.2023 16:17 22,8 °C 6,0 °C 53 % 87 % 1033,4 hPa 0,0 l/m² 19,2 km/h (3 Bft) SW 221 ° 0 min 5 W/m² 4,0 °C -1,6 °C 27,4 km/h (5 Bft)
17.12.2023 16:18 22,8 °C 6,0 °C 53 % 87 % 1033,4 hPa 0,0 l/m² 14,2 km/h (3 Bft) SW 215 ° 0 min 5 W/m² 4,0 °C 0,7 °C 19,3 km/h (3 Bft)
17.12.2023 16:19 22,8 °C 6,0 °C 53 % 87 % 1033,3 hPa 0,0 l/m² 14,7 km/h (3 Bft) SW 222 ° 0 min 5 W/m² 4,0 °C 0,4 °C 19,3 km/h (3 Bft)
17.12.2023 16:21 22,8 °C 6,0 °C 53 % 87 % 1033,4 hPa 0,0 l/m² 15,2 km/h (3 Bft) S-SW 213 ° 0 min 5 W/m² 4,0 °C 0,2 °C 20,9 km/h (4 Bft)
17.12.2023 16:23 22,8 °C 6,0 °C 53 % 87 % 1033,2 hPa 0,0 l/m² 13,7 km/h (3 Bft) SW 230 ° 0 min 5 W/m² 4,0 °C 1,0 °C 19,3 km/h (3 Bft)
17.12.2023 16:24 22,8 °C 6,0 °C 53 % 87 % 1033,3 hPa 0,0 l/m² 13,1 km/h (3 Bft) SW 228 ° 0 min 5 W/m² 4,0 °C 1,3 °C 19,3 km/h (3 Bft)
17.12.2023 16:25 22,8 °C 5,9 °C 52 % 87 % 1033,3 hPa 0,0 l/m² 10,6 km/h (2 Bft) SW 227 ° 0 min 5 W/m² 3,9 °C 2,7 °C 14,5 km/h (3 Bft)
17.12.2023 16:27 22,8 °C 5,9 °C 52 % 87 % 1033,4 hPa 0,0 l/m² 12,0 km/h (2 Bft) SW 232 ° 0 min 0 W/m² 3,9 °C 1,8 °C 17,7 km/h (3 Bft)
17.12.2023 16:28 22,8 °C 5,9 °C 52 % 87 % 1033,4 hPa 0,0 l/m² 10,1 km/h (2 Bft) SW 217 ° 0 min 0 W/m² 3,9 °C 3,0 °C 11,3 km/h (2 Bft)
17.12.2023 16:29 22,8 °C 5,8 °C 52 % 87 % 1033,4 hPa 0,0 l/m² 10,2 km/h (2 Bft) SW 224 ° 0 min 0 W/m² 3,8 °C 2,8 °C 12,9 km/h (3 Bft)
17.12.2023 16:31 22,8 °C 5,8 °C 52 % 87 % 1033,4 hPa 0,0 l/m² 9,8 km/h (2 Bft) SW 217 ° 0 min 0 W/m² 3,8 °C 3,1 °C 14,5 km/h (3 Bft)
17.12.2023 16:33 22,8 °C 5,8 °C 52 % 87 % 1033,4 hPa 0,0 l/m² 9,0 km/h (2 Bft) S-SW 193 ° 0 min 0 W/m² 3,8 °C 3,7 °C 12,9 km/h (3 Bft)
17.12.2023 16:34 22,8 °C 5,8 °C 52 % 87 % 1033,4 hPa 0,0 l/m² 11,3 km/h (2 Bft) SW 216 ° 0 min 0 W/m² 3,8 °C 2,1 °C 16,1 km/h (3 Bft)
17.12.2023 16:35 22,8 °C 5,7 °C 52 % 87 % 1033,5 hPa 0,0 l/m² 11,3 km/h (2 Bft) S-SW 200 ° 0 min 0 W/m² 3,7 °C 2,0 °C 14,5 km/h (3 Bft)
17.12.2023 16:36 22,9 °C 5,7 °C 52 % 87 % 1033,4 hPa 0,0 l/m² 12,7 km/h (3 Bft) S-SW 212 ° 0 min 0 W/m² 3,7 °C 1,2 °C 17,7 km/h (3 Bft)
17.12.2023 16:37 22,9 °C 5,7 °C 52 % 87 % 1033,4 hPa 0,0 l/m² 10,4 km/h (2 Bft) S-SW 201 ° 0 min 0 W/m² 3,7 °C 2,6 °C 12,9 km/h (3 Bft)
17.12.2023 16:38 22,9 °C 5,8 °C 52 % 87 % 1033,4 hPa 0,0 l/m² 13,4 km/h (3 Bft) S-SW 207 ° 0 min 0 W/m² 3,8 °C 0,9 °C 16,1 km/h (3 Bft)
17.12.2023 16:39 22,9 °C 5,8 °C 52 % 87 % 1033,4 hPa 0,0 l/m² 15,4 km/h (3 Bft) S-SW 203 ° 0 min 0 W/m² 3,8 °C -0,2 °C 19,3 km/h (3 Bft)
17.12.2023 16:41 22,9 °C 5,8 °C 52 % 87 % 1033,4 hPa 0,0 l/m² 10,8 km/h (2 Bft) SW 227 ° 0 min 0 W/m² 3,8 °C 2,4 °C 19,3 km/h (3 Bft)
17.12.2023 16:43 22,9 °C 5,7 °C 52 % 87 % 1033,4 hPa 0,0 l/m² 10,3 km/h (2 Bft) S-SW 197 ° 0 min 0 W/m² 3,7 °C 2,6 °C 14,5 km/h (3 Bft)
17.12.2023 16:44 22,9 °C 5,7 °C 52 % 87 % 1033,3 hPa 0,0 l/m² 12,6 km/h (3 Bft) S-SW 211 ° 0 min 0 W/m² 3,7 °C 1,2 °C 16,1 km/h (3 Bft)
17.12.2023 16:45 22,9 °C 5,6 °C 52 % 87 % 1033,4 hPa 0,0 l/m² 10,5 km/h (2 Bft) S-SW 201 ° 0 min 0 W/m² 3,6 °C 2,4 °C 16,1 km/h (3 Bft)
17.12.2023 16:46 22,9 °C 5,6 °C 52 % 87 % 1033,4 hPa 0,0 l/m² 14,2 km/h (3 Bft) S-SW 206 ° 0 min 0 W/m² 3,6 °C 0,2 °C 16,1 km/h (3 Bft)
17.12.2023 16:47 22,9 °C 5,6 °C 52 % 87 % 1033,4 hPa 0,0 l/m² 8,9 km/h (2 Bft) SW 220 ° 0 min 0 W/m² 3,6 °C 3,5 °C 11,3 km/h (2 Bft)
17.12.2023 16:48 22,9 °C 5,6 °C 52 % 87 % 1033,5 hPa 0,0 l/m² 10,3 km/h (2 Bft) SW 215 ° 0 min 0 W/m² 3,6 °C 2,5 °C 14,5 km/h (3 Bft)
17.12.2023 16:49 22,9 °C 5,6 °C 52 % 88 % 1033,4 hPa 0,0 l/m² 12,7 km/h (3 Bft) SW 222 ° 0 min 0 W/m² 3,8 °C 1,0 °C 16,1 km/h (3 Bft)
17.12.2023 16:51 22,9 °C 5,5 °C 52 % 88 % 1033,4 hPa 0,0 l/m² 13,4 km/h (3 Bft) S-SW 200 ° 0 min 0 W/m² 3,7 °C 0,5 °C 16,1 km/h (3 Bft)
17.12.2023 16:53 22,9 °C 5,5 °C 52 % 88 % 1033,4 hPa 0,0 l/m² 10,4 km/h (2 Bft) S-SW 207 ° 0 min 0 W/m² 3,7 °C 2,4 °C 14,5 km/h (3 Bft)
17.12.2023 16:54 22,9 °C 5,5 °C 51 % 88 % 1033,4 hPa 0,0 l/m² 10,2 km/h (2 Bft) S-SW 209 ° 0 min 0 W/m² 3,7 °C 2,5 °C 12,9 km/h (3 Bft)
17.12.2023 16:55 22,9 °C 5,4 °C 51 % 88 % 1033,4 hPa 0,0 l/m² 10,2 km/h (2 Bft) S-SW 201 ° 0 min 0 W/m² 3,6 °C 2,4 °C 12,9 km/h (3 Bft)
17.12.2023 16:56 22,9 °C 5,4 °C 49 % 88 % 1033,4 hPa 0,0 l/m² 10,1 km/h (2 Bft) SW 233 ° 0 min 0 W/m² 3,6 °C 2,4 °C 12,9 km/h (3 Bft)
17.12.2023 16:57 22,9 °C 5,4 °C 49 % 88 % 1033,4 hPa 0,0 l/m² 10,4 km/h (2 Bft) SW 214 ° 0 min 0 W/m² 3,6 °C 2,2 °C 14,5 km/h (3 Bft)
17.12.2023 16:58 22,9 °C 5,4 °C 49 % 88 % 1033,3 hPa 0,0 l/m² 8,7 km/h (2 Bft) S-SW 209 ° 0 min 0 W/m² 3,6 °C 3,5 °C 11,3 km/h (2 Bft)
17.12.2023 16:59 22,9 °C 5,3 °C 49 % 88 % 1033,3 hPa 0,0 l/m² 11,4 km/h (2 Bft) SW 221 ° 0 min 0 W/m² 3,5 °C 1,5 °C 12,9 km/h (3 Bft)
17.12.2023 17:01 22,8 °C 5,3 °C 49 % 88 % 1033,2 hPa 0,0 l/m² 10,1 km/h (2 Bft) S-SW 199 ° 0 min 0 W/m² 3,5 °C 2,3 °C 12,9 km/h (3 Bft)
17.12.2023 17:03 22,8 °C 5,3 °C 49 % 88 % 1033,2 hPa 0,0 l/m² 10,6 km/h (2 Bft) S-SW 196 ° 0 min 0 W/m² 3,5 °C 2,0 °C 14,5 km/h (3 Bft)
17.12.2023 17:04 22,8 °C 5,3 °C 50 % 88 % 1033,2 hPa 0,0 l/m² 11,8 km/h (2 Bft) S-SW 210 ° 0 min 0 W/m² 3,5 °C 1,2 °C 14,5 km/h (3 Bft)
17.12.2023 17:05 22,7 °C 5,3 °C 50 % 88 % 1033,2 hPa 0,0 l/m² 10,1 km/h (2 Bft) S-SW 211 ° 0 min 0 W/m² 3,5 °C 2,3 °C 12,9 km/h (3 Bft)
17.12.2023 17:06 22,7 °C 5,3 °C 50 % 88 % 1033,2 hPa 0,0 l/m² 10,5 km/h (2 Bft) SW 215 ° 0 min 0 W/m² 3,5 °C 2,1 °C 12,9 km/h (3 Bft)
17.12.2023 17:07 22,7 °C 5,3 °C 50 % 88 % 1033,3 hPa 0,0 l/m² 10,1 km/h (2 Bft) S 182 ° 0 min 0 W/m² 3,5 °C 2,3 °C 12,9 km/h (3 Bft)
17.12.2023 17:08 22,7 °C 5,3 °C 50 % 88 % 1033,3 hPa 0,0 l/m² 9,6 km/h (2 Bft) S-SW 212 ° 0 min 0 W/m² 3,5 °C 2,7 °C 12,9 km/h (3 Bft)
17.12.2023 17:09 22,7 °C 5,3 °C 50 % 88 % 1033,3 hPa 0,0 l/m² 12,7 km/h (3 Bft) S-SW 213 ° 0 min 0 W/m² 3,5 °C 0,7 °C 16,1 km/h (3 Bft)
17.12.2023 17:11 22,7 °C 5,3 °C 50 % 88 % 1033,2 hPa 0,0 l/m² 11,2 km/h (2 Bft) SW 231 ° 0 min 0 W/m² 3,5 °C 1,6 °C 14,5 km/h (3 Bft)
17.12.2023 17:13 22,7 °C 5,3 °C 50 % 88 % 1033,2 hPa 0,0 l/m² 9,2 km/h (2 Bft) SW 229 ° 0 min 0 W/m² 3,5 °C 3,0 °C 11,3 km/h (2 Bft)
17.12.2023 17:14 22,7 °C 5,3 °C 50 % 88 % 1033,2 hPa 0,0 l/m² 10,4 km/h (2 Bft) SW 220 ° 0 min 0 W/m² 3,5 °C 2,1 °C 12,9 km/h (3 Bft)
17.12.2023 17:15 22,7 °C 5,3 °C 50 % 88 % 1033,2 hPa 0,0 l/m² 11,1 km/h (2 Bft) SW 221 ° 0 min 0 W/m² 3,5 °C 1,7 °C 14,5 km/h (3 Bft)
17.12.2023 17:16 22,6 °C 5,2 °C 50 % 88 % 1033,2 hPa 0,0 l/m² 10,2 km/h (2 Bft) SW 216 ° 0 min 0 W/m² 3,4 °C 2,2 °C 11,3 km/h (2 Bft)
17.12.2023 17:17 22,6 °C 5,2 °C 50 % 88 % 1033,1 hPa 0,0 l/m² 8,5 km/h (2 Bft) SW 221 ° 0 min 0 W/m² 3,4 °C 3,4 °C 11,3 km/h (2 Bft)
17.12.2023 17:18 22,6 °C 5,2 °C 50 % 88 % 1033,2 hPa 0,0 l/m² 11,0 km/h (2 Bft) S-SW 211 ° 0 min 0 W/m² 3,4 °C 1,6 °C 14,5 km/h (3 Bft)
17.12.2023 17:19 22,6 °C 5,2 °C 50 % 88 % 1033,2 hPa 0,0 l/m² 9,2 km/h (2 Bft) SW 214 ° 0 min 0 W/m² 3,4 °C 2,9 °C 11,3 km/h (2 Bft)
17.12.2023 17:21 22,6 °C 5,2 °C 51 % 88 % 1033,1 hPa 0,0 l/m² 10,5 km/h (2 Bft) SW 225 ° 0 min 0 W/m² 3,4 °C 1,9 °C 14,5 km/h (3 Bft)
17.12.2023 17:23 22,6 °C 5,2 °C 51 % 89 % 1033,1 hPa 0,0 l/m² 14,2 km/h (3 Bft) S-SW 209 ° 0 min 0 W/m² 3,5 °C -0,3 °C 19,3 km/h (3 Bft)
17.12.2023 17:24 22,6 °C 5,2 °C 51 % 89 % 1033,1 hPa 0,0 l/m² 12,3 km/h (2 Bft) SW 217 ° 0 min 0 W/m² 3,5 °C 0,8 °C 16,1 km/h (3 Bft)
17.12.2023 17:25 22,6 °C 5,3 °C 51 % 89 % 1033,1 hPa 0,0 l/m² 14,2 km/h (3 Bft) SW 229 ° 0 min 0 W/m² 3,6 °C -0,1 °C 19,3 km/h (3 Bft)
17.12.2023 17:26 22,6 °C 5,3 °C 51 % 89 % 1033,0 hPa 0,0 l/m² 12,0 km/h (2 Bft) SW 232 ° 0 min 0 W/m² 3,6 °C 1,1 °C 19,3 km/h (3 Bft)
17.12.2023 17:27 22,6 °C 5,3 °C 51 % 89 % 1033,1 hPa 0,0 l/m² 9,3 km/h (2 Bft) SW 229 ° 0 min 0 W/m² 3,6 °C 2,9 °C 14,5 km/h (3 Bft)
17.12.2023 17:28 22,6 °C 5,3 °C 51 % 89 % 1033,1 hPa 0,0 l/m² 14,2 km/h (3 Bft) SW 226 ° 0 min 0 W/m² 3,6 °C -0,1 °C 19,3 km/h (3 Bft)
17.12.2023 17:29 22,6 °C 5,3 °C 51 % 89 % 1033,0 hPa 0,0 l/m² 9,3 km/h (2 Bft) SW 219 ° 0 min 0 W/m² 3,6 °C 2,9 °C 14,5 km/h (3 Bft)
17.12.2023 17:31 22,6 °C 5,3 °C 51 % 89 % 1033,1 hPa 0,0 l/m² 12,5 km/h (2 Bft) SW 236 ° 0 min 0 W/m² 3,6 °C 0,8 °C 19,3 km/h (3 Bft)
17.12.2023 17:33 22,5 °C 5,3 °C 51 % 89 % 1033,1 hPa 0,0 l/m² 10,4 km/h (2 Bft) SW 229 ° 0 min 0 W/m² 3,6 °C 2,1 °C 14,5 km/h (3 Bft)
17.12.2023 17:34 22,5 °C 5,3 °C 51 % 89 % 1033,0 hPa 0,0 l/m² 8,6 km/h (2 Bft) SW 214 ° 0 min 0 W/m² 3,6 °C 3,4 °C 11,3 km/h (2 Bft)
17.12.2023 17:35 22,5 °C 5,4 °C 51 % 89 % 1033,1 hPa 0,0 l/m² 9,5 km/h (2 Bft) SW 223 ° 0 min 0 W/m² 3,7 °C 2,9 °C 14,5 km/h (3 Bft)
17.12.2023 17:36 22,4 °C 5,3 °C 51 % 89 % 1033,1 hPa 0,0 l/m² 13,8 km/h (3 Bft) S-SW 213 ° 0 min 0 W/m² 3,6 °C 0,1 °C 17,7 km/h (3 Bft)
17.12.2023 17:37 22,4 °C 5,4 °C 51 % 89 % 1033,0 hPa 0,0 l/m² 12,9 km/h (3 Bft) SW 215 ° 0 min 0 W/m² 3,7 °C 0,7 °C 16,1 km/h (3 Bft)
17.12.2023 17:38 22,5 °C 5,4 °C 51 % 89 % 1033,0 hPa 0,0 l/m² 13,1 km/h (3 Bft) SW 221 ° 0 min 0 W/m² 3,7 °C 0,6 °C 19,3 km/h (3 Bft)
17.12.2023 17:39 22,4 °C 5,4 °C 51 % 89 % 1033,1 hPa 0,0 l/m² 13,1 km/h (3 Bft) S-SW 208 ° 0 min 0 W/m² 3,7 °C 0,6 °C 17,7 km/h (3 Bft)
17.12.2023 17:41 22,5 °C 5,4 °C 51 % 89 % 1033,1 hPa 0,0 l/m² 10,3 km/h (2 Bft) SW 216 ° 0 min 0 W/m² 3,7 °C 2,3 °C 14,5 km/h (3 Bft)
17.12.2023 17:42 22,4 °C 5,5 °C 51 % 88 % 1033,1 hPa 0,0 l/m² 8,6 km/h (2 Bft) W-SW 246 ° 0 min 0 W/m² 3,7 °C 3,7 °C 11,3 km/h (2 Bft)
17.12.2023 17:43 22,4 °C 5,5 °C 51 % 88 % 1033,1 hPa 0,0 l/m² 9,3 km/h (2 Bft) SW 217 ° 0 min 0 W/m² 3,7 °C 3,1 °C 12,9 km/h (3 Bft)
17.12.2023 17:44 22,4 °C 5,4 °C 51 % 88 % 1033,0 hPa 0,0 l/m² 9,1 km/h (2 Bft) SW 231 ° 0 min 0 W/m² 3,6 °C 3,2 °C 11,3 km/h (2 Bft)
17.12.2023 17:45 22,4 °C 5,4 °C 51 % 88 % 1033,1 hPa 0,0 l/m² 9,6 km/h (2 Bft) SW 234 ° 0 min 0 W/m² 3,6 °C 2,8 °C 14,5 km/h (3 Bft)
17.12.2023 17:46 22,4 °C 5,4 °C 51 % 88 % 1033,1 hPa 0,0 l/m² 11,6 km/h (2 Bft) SW 236 ° 0 min 0 W/m² 3,6 °C 1,5 °C 17,7 km/h (3 Bft)
17.12.2023 17:47 22,4 °C 5,5 °C 51 % 88 % 1033,1 hPa 0,0 l/m² 8,1 km/h (2 Bft) SW 225 ° 0 min 0 W/m² 3,7 °C 4,0 °C 11,3 km/h (2 Bft)
17.12.2023 17:48 22,4 °C 5,5 °C 51 % 88 % 1033,1 hPa 0,0 l/m² 9,4 km/h (2 Bft) SW 226 ° 0 min 0 W/m² 3,7 °C 3,1 °C 14,5 km/h (3 Bft)
17.12.2023 17:49 22,4 °C 5,5 °C 51 % 88 % 1033,0 hPa 0,0 l/m² 15,5 km/h (3 Bft) SW 222 ° 0 min 0 W/m² 3,7 °C -0,6 °C 22,5 km/h (4 Bft)
17.12.2023 17:51 22,4 °C 5,5 °C 51 % 88 % 1033,1 hPa 0,0 l/m² 13,3 km/h (3 Bft) SW 223 ° 0 min 0 W/m² 3,7 °C 0,6 °C 19,3 km/h (3 Bft)
17.12.2023 17:53 22,4 °C 5,5 °C 51 % 88 % 1033,0 hPa 0,0 l/m² 12,7 km/h (3 Bft) SW 226 ° 0 min 0 W/m² 3,7 °C 0,9 °C 19,3 km/h (3 Bft)
17.12.2023 17:54 22,4 °C 5,5 °C 51 % 88 % 1033,0 hPa 0,0 l/m² 12,7 km/h (3 Bft) W-SW 239 ° 0 min 0 W/m² 3,7 °C 0,9 °C 16,1 km/h (3 Bft)
17.12.2023 17:55 22,4 °C 5,6 °C 51 % 88 % 1033,2 hPa 0,0 l/m² 12,4 km/h (2 Bft) S-SW 213 ° 0 min 0 W/m² 3,8 °C 1,2 °C 17,7 km/h (3 Bft)
17.12.2023 17:56 22,4 °C 5,6 °C 51 % 88 % 1033,2 hPa 0,0 l/m² 12,6 km/h (3 Bft) W-SW 240 ° 0 min 0 W/m² 3,8 °C 1,1 °C 17,7 km/h (3 Bft)
17.12.2023 17:57 22,4 °C 5,6 °C 51 % 88 % 1033,2 hPa 0,0 l/m² 14,2 km/h (3 Bft) SW 236 ° 0 min 0 W/m² 3,8 °C 0,2 °C 16,1 km/h (3 Bft)
17.12.2023 17:58 22,4 °C 5,6 °C 51 % 88 % 1033,2 hPa 0,0 l/m² 10,1 km/h (2 Bft) S-SW 212 ° 0 min 0 W/m² 3,8 °C 2,7 °C 12,9 km/h (3 Bft)
17.12.2023 17:59 22,4 °C 5,6 °C 51 % 88 % 1033,1 hPa 0,0 l/m² 12,9 km/h (3 Bft) W-SW 244 ° 0 min 0 W/m² 3,8 °C 0,9 °C 19,3 km/h (3 Bft)
17.12.2023 18:01 22,4 °C 5,6 °C 51 % 88 % 1033,2 hPa 0,0 l/m² 10,4 km/h (2 Bft) W-SW 240 ° 0 min 0 W/m² 3,8 °C 2,5 °C 16,1 km/h (3 Bft)
17.12.2023 18:03 22,4 °C 5,6 °C 51 % 88 % 1033,2 hPa 0,0 l/m² 12,2 km/h (2 Bft) SW 218 ° 0 min 0 W/m² 3,8 °C 1,3 °C 19,3 km/h (3 Bft)
17.12.2023 18:04 22,4 °C 5,6 °C 51 % 88 % 1033,3 hPa 0,0 l/m² 12,5 km/h (2 Bft) SW 220 ° 0 min 0 W/m² 3,8 °C 1,2 °C 14,5 km/h (3 Bft)
17.12.2023 18:05 22,4 °C 5,6 °C 51 % 88 % 1033,2 hPa 0,0 l/m² 13,1 km/h (3 Bft) SW 227 ° 0 min 0 W/m² 3,8 °C 0,8 °C 16,1 km/h (3 Bft)
17.12.2023 18:07 22,4 °C 5,6 °C 51 % 88 % 1033,1 hPa 0,0 l/m² 15,4 km/h (3 Bft) SW 225 ° 0 min 0 W/m² 3,8 °C -0,4 °C 19,3 km/h (3 Bft)
17.12.2023 18:08 22,4 °C 5,5 °C 51 % 88 % 1033,1 hPa 0,0 l/m² 13,1 km/h (3 Bft) SW 232 ° 0 min 0 W/m² 3,7 °C 0,7 °C 16,1 km/h (3 Bft)
17.12.2023 18:09 22,3 °C 5,6 °C 51 % 88 % 1033,2 hPa 0,0 l/m² 14,2 km/h (3 Bft) SW 223 ° 0 min 0 W/m² 3,8 °C 0,2 °C 17,7 km/h (3 Bft)
17.12.2023 18:11 22,3 °C 5,5 °C 51 % 88 % 1033,2 hPa 0,0 l/m² 11,9 km/h (2 Bft) SW 230 ° 0 min 0 W/m² 3,7 °C 1,4 °C 16,1 km/h (3 Bft)
17.12.2023 18:13 22,3 °C 5,5 °C 51 % 88 % 1033,1 hPa 0,0 l/m² 15,0 km/h (3 Bft) S-SW 209 ° 0 min 0 W/m² 3,7 °C -0,3 °C 17,7 km/h (3 Bft)
17.12.2023 18:14 22,3 °C 5,5 °C 51 % 88 % 1033,1 hPa 0,0 l/m² 15,4 km/h (3 Bft) SW 215 ° 0 min 0 W/m² 3,7 °C -0,5 °C 20,9 km/h (4 Bft)
17.12.2023 18:15 22,3 °C 5,5 °C 51 % 88 % 1033,1 hPa 0,0 l/m² 12,5 km/h (2 Bft) S-SW 196 ° 0 min 0 W/m² 3,7 °C 1,0 °C 16,1 km/h (3 Bft)
17.12.2023 18:16 22,3 °C 5,4 °C 51 % 88 % 1033,1 hPa 0,0 l/m² 12,7 km/h (3 Bft) S-SW 209 ° 0 min 0 W/m² 3,6 °C 0,8 °C 14,5 km/h (3 Bft)
17.12.2023 18:17 22,3 °C 5,4 °C 51 % 88 % 1033,1 hPa 0,0 l/m² 13,6 km/h (3 Bft) S-SW 205 ° 0 min 0 W/m² 3,6 °C 0,3 °C 17,7 km/h (3 Bft)
17.12.2023 18:18 22,3 °C 5,4 °C 51 % 88 % 1033,2 hPa 0,0 l/m² 15,4 km/h (3 Bft) S-SW 213 ° 0 min 0 W/m² 3,6 °C -0,6 °C 19,3 km/h (3 Bft)
17.12.2023 18:19 22,3 °C 5,4 °C 51 % 88 % 1033,2 hPa 0,0 l/m² 13,6 km/h (3 Bft) S-SW 206 ° 0 min 0 W/m² 3,6 °C 0,3 °C 17,7 km/h (3 Bft)
17.12.2023 18:20 22,3 °C 5,4 °C 52 % 88 % 1033,2 hPa 0,0 l/m² 10,7 km/h (2 Bft) S-SW 205 ° 0 min 0 W/m² 3,6 °C 2,0 °C 14,5 km/h (3 Bft)
17.12.2023 18:22 22,3 °C 5,4 °C 51 % 88 % 1033,0 hPa 0,0 l/m² 14,4 km/h (3 Bft) S-SW 202 ° 0 min 0 W/m² 3,6 °C -0,1 °C 19,3 km/h (3 Bft)
17.12.2023 18:23 22,3 °C 5,4 °C 52 % 89 % 1033,0 hPa 0,0 l/m² 16,8 km/h (3 Bft) S-SW 211 ° 0 min 0 W/m² 3,7 °C -1,3 °C 19,3 km/h (3 Bft)
17.12.2023 18:24 22,3 °C 5,4 °C 52 % 89 % 1032,9 hPa 0,0 l/m² 15,2 km/h (3 Bft) S-SW 205 ° 0 min 0 W/m² 3,7 °C -0,5 °C 19,3 km/h (3 Bft)
17.12.2023 18:25 22,3 °C 5,4 °C 52 % 89 % 1033,0 hPa 0,0 l/m² 15,8 km/h (3 Bft) S-SW 202 ° 0 min 0 W/m² 3,7 °C -0,8 °C 17,7 km/h (3 Bft)
17.12.2023 18:26 22,3 °C 5,4 °C 51 % 89 % 1033,1 hPa 0,0 l/m² 12,5 km/h (2 Bft) S-SW 200 ° 0 min 0 W/m² 3,7 °C 0,9 °C 14,5 km/h (3 Bft)
17.12.2023 18:27 22,3 °C 5,4 °C 51 % 89 % 1033,1 hPa 0,0 l/m² 11,0 km/h (2 Bft) S 188 ° 0 min 0 W/m² 3,7 °C 1,8 °C 17,7 km/h (3 Bft)
17.12.2023 18:28 22,3 °C 5,5 °C 51 % 89 % 1033,1 hPa 0,0 l/m² 16,9 km/h (3 Bft) SW 227 ° 0 min 0 W/m² 3,8 °C -1,2 °C 22,5 km/h (4 Bft)
17.12.2023 18:29 22,3 °C 5,4 °C 51 % 89 % 1033,1 hPa 0,0 l/m² 12,5 km/h (2 Bft) S-SW 201 ° 0 min 0 W/m² 3,7 °C 0,9 °C 16,1 km/h (3 Bft)
17.12.2023 18:31 22,3 °C 5,5 °C 51 % 89 % 1033,1 hPa 0,0 l/m² 12,8 km/h (3 Bft) W-SW 238 ° 0 min 0 W/m² 3,8 °C 0,9 °C 19,3 km/h (3 Bft)
17.12.2023 18:32 22,3 °C 5,4 °C 51 % 89 % 1033,1 hPa 0,0 l/m² 11,5 km/h (2 Bft) SW 219 ° 0 min 0 W/m² 3,7 °C 1,5 °C 14,5 km/h (3 Bft)
17.12.2023 18:33 22,3 °C 5,4 °C 51 % 89 % 1033,1 hPa 0,0 l/m² 14,5 km/h (3 Bft) S-SW 212 ° 0 min 0 W/m² 3,7 °C -0,2 °C 17,7 km/h (3 Bft)
17.12.2023 18:34 22,3 °C 5,4 °C 51 % 89 % 1033,2 hPa 0,0 l/m² 10,9 km/h (2 Bft) S-SW 208 ° 0 min 0 W/m² 3,7 °C 1,9 °C 12,9 km/h (3 Bft)
17.12.2023 18:35 22,3 °C 5,4 °C 51 % 89 % 1033,0 hPa 0,0 l/m² 12,2 km/h (2 Bft) SW 223 ° 0 min 0 W/m² 3,7 °C 1,1 °C 14,5 km/h (3 Bft)
17.12.2023 18:37 22,3 °C 5,4 °C 51 % 89 % 1033,1 hPa 0,0 l/m² 17,0 km/h (3 Bft) SW 223 ° 0 min 0 W/m² 3,7 °C -1,4 °C 24,1 km/h (4 Bft)
17.12.2023 18:38 22,3 °C 5,4 °C 51 % 89 % 1033,1 hPa 0,0 l/m² 14,2 km/h (3 Bft) S-SW 197 ° 0 min 0 W/m² 3,7 °C -0,0 °C 16,1 km/h (3 Bft)
17.12.2023 18:39 22,3 °C 5,4 °C 51 % 89 % 1033,1 hPa 0,0 l/m² 15,6 km/h (3 Bft) S-SW 211 ° 0 min 0 W/m² 3,7 °C -0,7 °C 22,5 km/h (4 Bft)
17.12.2023 18:41 22,3 °C 5,4 °C 51 % 89 % 1033,1 hPa 0,0 l/m² 14,4 km/h (3 Bft) S-SW 211 ° 0 min 0 W/m² 3,7 °C -0,1 °C 19,3 km/h (3 Bft)
17.12.2023 18:43 22,3 °C 5,4 °C 51 % 89 % 1033,0 hPa 0,0 l/m² 13,4 km/h (3 Bft) SW 217 ° 0 min 0 W/m² 3,7 °C 0,4 °C 17,7 km/h (3 Bft)
17.12.2023 18:44 22,3 °C 5,4 °C 51 % 89 % 1032,9 hPa 0,0 l/m² 11,6 km/h (2 Bft) S-SW 208 ° 0 min 0 W/m² 3,7 °C 1,5 °C 17,7 km/h (3 Bft)
17.12.2023 18:47 22,3 °C 5,4 °C 51 % 89 % 1033,1 hPa 0,0 l/m² 15,3 km/h (3 Bft) S-SW 212 ° 0 min 0 W/m² 3,7 °C -0,6 °C 19,3 km/h (3 Bft)
17.12.2023 18:48 22,3 °C 5,3 °C 51 % 89 % 1033,1 hPa 0,0 l/m² 15,9 km/h (3 Bft) S-SW 206 ° 0 min 0 W/m² 3,6 °C -1,0 °C 19,3 km/h (3 Bft)
17.12.2023 18:49 22,3 °C 5,3 °C 51 % 89 % 1033,0 hPa 0,0 l/m² 16,0 km/h (3 Bft) S-SW 209 ° 0 min 0 W/m² 3,6 °C -1,1 °C 19,3 km/h (3 Bft)
17.12.2023 18:51 22,3 °C 5,4 °C 51 % 89 % 1033,1 hPa 0,0 l/m² 14,4 km/h (3 Bft) SW 222 ° 0 min 0 W/m² 3,7 °C -0,1 °C 17,7 km/h (3 Bft)
17.12.2023 18:53 22,3 °C 5,4 °C 51 % 89 % 1033,0 hPa 0,0 l/m² 13,3 km/h (3 Bft) SW 221 ° 0 min 0 W/m² 3,7 °C 0,5 °C 17,7 km/h (3 Bft)
17.12.2023 18:54 22,3 °C 5,3 °C 51 % 89 % 1033,0 hPa 0,0 l/m² 11,4 km/h (2 Bft) S-SW 211 ° 0 min 0 W/m² 3,6 °C 1,5 °C 16,1 km/h (3 Bft)
17.12.2023 18:55 22,2 °C 5,3 °C 51 % 89 % 1032,9 hPa 0,0 l/m² 9,7 km/h (2 Bft) S-SW 204 ° 0 min 0 W/m² 3,6 °C 2,6 °C 12,9 km/h (3 Bft)
17.12.2023 18:56 22,3 °C 5,3 °C 51 % 89 % 1032,9 hPa 0,0 l/m² 14,9 km/h (3 Bft) SW 218 ° 0 min 0 W/m² 3,6 °C -0,5 °C 22,5 km/h (4 Bft)
17.12.2023 18:57 22,2 °C 5,3 °C 51 % 89 % 1032,8 hPa 0,0 l/m² 16,4 km/h (3 Bft) SW 214 ° 0 min 0 W/m² 3,6 °C -1,2 °C 20,9 km/h (4 Bft)
17.12.2023 18:58 22,2 °C 5,3 °C 51 % 89 % 1032,9 hPa 0,0 l/m² 11,8 km/h (2 Bft) SW 236 ° 0 min 0 W/m² 3,6 °C 1,2 °C 14,5 km/h (3 Bft)
17.12.2023 18:59 22,2 °C 5,3 °C 51 % 89 % 1033,2 hPa 0,0 l/m² 12,6 km/h (3 Bft) SW 219 ° 0 min 0 W/m² 3,6 °C 0,7 °C 17,7 km/h (3 Bft)
17.12.2023 19:01 22,2 °C 5,3 °C 51 % 89 % 1033,2 hPa 0,0 l/m² 11,2 km/h (2 Bft) SW 223 ° 0 min 0 W/m² 3,6 °C 1,6 °C 14,5 km/h (3 Bft)
17.12.2023 19:03 22,2 °C 5,3 °C 52 % 89 % 1033,3 hPa 0,0 l/m² 11,7 km/h (2 Bft) SW 223 ° 0 min 0 W/m² 3,6 °C 1,3 °C 17,7 km/h (3 Bft)
17.12.2023 19:04 22,3 °C 5,3 °C 52 % 89 % 1033,2 hPa 0,0 l/m² 12,2 km/h (2 Bft) S-SW 211 ° 0 min 0 W/m² 3,6 °C 1,0 °C 20,9 km/h (4 Bft)
17.12.2023 19:05 22,3 °C 5,3 °C 52 % 89 % 1033,2 hPa 0,0 l/m² 13,6 km/h (3 Bft) SW 217 ° 0 min 0 W/m² 3,6 °C 0,2 °C 16,1 km/h (3 Bft)
17.12.2023 19:07 22,3 °C 5,3 °C 54 % 89 % 1033,3 hPa 0,0 l/m² 12,0 km/h (2 Bft) SW 225 ° 0 min 0 W/m² 3,6 °C 1,1 °C 17,7 km/h (3 Bft)
17.12.2023 19:08 22,3 °C 5,4 °C 54 % 89 % 1033,3 hPa 0,0 l/m² 12,3 km/h (2 Bft) SW 217 ° 0 min 0 W/m² 3,7 °C 1,0 °C 14,5 km/h (3 Bft)
17.12.2023 19:09 22,3 °C 5,3 °C 54 % 89 % 1033,3 hPa 0,0 l/m² 8,4 km/h (2 Bft) S-SW 205 ° 0 min 0 W/m² 3,6 °C 3,6 °C 11,3 km/h (2 Bft)
17.12.2023 19:11 22,3 °C 5,3 °C 54 % 89 % 1033,3 hPa 0,0 l/m² 10,1 km/h (2 Bft) SW 224 ° 0 min 0 W/m² 3,6 °C 2,3 °C 16,1 km/h (3 Bft)
17.12.2023 19:13 22,3 °C 5,3 °C 55 % 89 % 1033,3 hPa 0,0 l/m² 9,4 km/h (2 Bft) SW 226 ° 0 min 0 W/m² 3,6 °C 2,8 °C 11,3 km/h (2 Bft)
17.12.2023 19:14 22,3 °C 5,3 °C 55 % 89 % 1033,3 hPa 0,0 l/m² 10,4 km/h (2 Bft) SW 214 ° 0 min 0 W/m² 3,6 °C 2,1 °C 12,9 km/h (3 Bft)
17.12.2023 19:15 22,3 °C 5,3 °C 55 % 89 % 1033,4 hPa 0,0 l/m² 10,0 km/h (2 Bft) SW 228 ° 0 min 0 W/m² 3,6 °C 2,4 °C 12,9 km/h (3 Bft)
17.12.2023 19:17 22,3 °C 5,3 °C 55 % 89 % 1033,4 hPa 0,0 l/m² 10,9 km/h (2 Bft) SW 227 ° 0 min 0 W/m² 3,6 °C 1,8 °C 16,1 km/h (3 Bft)
17.12.2023 19:18 22,3 °C 5,3 °C 55 % 89 % 1033,4 hPa 0,0 l/m² 10,6 km/h (2 Bft) SW 217 ° 0 min 0 W/m² 3,6 °C 2,0 °C 12,9 km/h (3 Bft)
17.12.2023 19:19 22,3 °C 5,3 °C 55 % 89 % 1033,4 hPa 0,0 l/m² 8,1 km/h (2 Bft) SW 219 ° 0 min 0 W/m² 3,6 °C 3,8 °C 11,3 km/h (2 Bft)
17.12.2023 19:21 22,3 °C 5,2 °C 55 % 89 % 1033,5 hPa 0,0 l/m² 8,2 km/h (2 Bft) S-SW 210 ° 0 min 0 W/m² 3,5 °C 3,6 °C 12,9 km/h (3 Bft)
17.12.2023 19:23 22,3 °C 5,2 °C 55 % 89 % 1033,5 hPa 0,0 l/m² 10,1 km/h (2 Bft) SW 220 ° 0 min 0 W/m² 3,5 °C 2,2 °C 16,1 km/h (3 Bft)
17.12.2023 19:24 22,3 °C 5,2 °C 55 % 89 % 1033,5 hPa 0,0 l/m² 12,0 km/h (2 Bft) SW 228 ° 0 min 0 W/m² 3,5 °C 1,0 °C 14,5 km/h (3 Bft)
17.12.2023 19:25 22,3 °C 5,2 °C 55 % 89 % 1033,4 hPa 0,0 l/m² 7,2 km/h (2 Bft) SW 225 ° 0 min 0 W/m² 3,5 °C 4,5 °C 9,7 km/h (2 Bft)
17.12.2023 19:26 22,3 °C 5,2 °C 55 % 89 % 1033,4 hPa 0,0 l/m² 9,7 km/h (2 Bft) SW 223 ° 0 min 0 W/m² 3,5 °C 2,5 °C 11,3 km/h (2 Bft)
17.12.2023 19:27 22,3 °C 5,1 °C 55 % 89 % 1033,3 hPa 0,0 l/m² 10,9 km/h (2 Bft) SW 223 ° 0 min 0 W/m² 3,4 °C 1,6 °C 14,5 km/h (3 Bft)
17.12.2023 19:28 22,3 °C 5,1 °C 55 % 89 % 1033,4 hPa 0,0 l/m² 13,0 km/h (3 Bft) SW 229 ° 0 min 0 W/m² 3,4 °C 0,3 °C 17,7 km/h (3 Bft)
17.12.2023 19:29 22,3 °C 5,1 °C 55 % 89 % 1033,3 hPa 0,0 l/m² 12,6 km/h (3 Bft) S-SW 204 ° 0 min 0 W/m² 3,4 °C 0,5 °C 14,5 km/h (3 Bft)
17.12.2023 19:31 22,3 °C 5,1 °C 55 % 89 % 1033,3 hPa 0,0 l/m² 15,3 km/h (3 Bft) SW 225 ° 0 min 0 W/m² 3,4 °C -1,0 °C 19,3 km/h (3 Bft)
17.12.2023 19:33 22,3 °C 5,1 °C 55 % 89 % 1033,3 hPa 0,0 l/m² 14,4 km/h (3 Bft) SW 215 ° 0 min 0 W/m² 3,4 °C -0,5 °C 17,7 km/h (3 Bft)
17.12.2023 19:34 22,3 °C 5,1 °C 55 % 89 % 1033,4 hPa 0,0 l/m² 10,0 km/h (2 Bft) SW 218 ° 0 min 0 W/m² 3,4 °C 2,2 °C 16,1 km/h (3 Bft)
17.12.2023 19:35 22,3 °C 5,0 °C 55 % 89 % 1033,4 hPa 0,0 l/m² 10,2 km/h (2 Bft) SW 217 ° 0 min 0 W/m² 3,3 °C 1,9 °C 12,9 km/h (3 Bft)
17.12.2023 19:37 22,3 °C 5,0 °C 55 % 89 % 1033,4 hPa 0,0 l/m² 11,5 km/h (2 Bft) S-SW 205 ° 0 min 0 W/m² 3,3 °C 1,1 °C 16,1 km/h (3 Bft)
17.12.2023 19:38 22,3 °C 5,0 °C 55 % 90 % 1033,4 hPa 0,0 l/m² 9,9 km/h (2 Bft) SW 215 ° 0 min 0 W/m² 3,5 °C 2,1 °C 12,9 km/h (3 Bft)
17.12.2023 19:39 22,3 °C 4,9 °C 55 % 90 % 1033,4 hPa 0,0 l/m² 10,5 km/h (2 Bft) S-SW 207 ° 0 min 0 W/m² 3,4 °C 1,6 °C 12,9 km/h (3 Bft)
17.12.2023 19:41 22,3 °C 4,9 °C 55 % 90 % 1033,4 hPa 0,0 l/m² 9,2 km/h (2 Bft) S-SW 211 ° 0 min 0 W/m² 3,4 °C 2,5 °C 11,3 km/h (2 Bft)
17.12.2023 19:43 22,3 °C 4,8 °C 55 % 89 % 1033,4 hPa 0,0 l/m² 9,1 km/h (2 Bft) S-SW 210 ° 0 min 0 W/m² 3,1 °C 2,5 °C 11,3 km/h (2 Bft)
17.12.2023 19:44 22,3 °C 4,8 °C 55 % 89 % 1033,3 hPa 0,0 l/m² 7,7 km/h (2 Bft) S-SW 209 ° 0 min 0 W/m² 3,1 °C 3,6 °C 8,0 km/h (2 Bft)
17.12.2023 19:45 22,3 °C 4,7 °C 55 % 89 % 1033,4 hPa 0,0 l/m² 8,0 km/h (2 Bft) SW 214 ° 0 min 0 W/m² 3,0 °C 3,3 °C 9,7 km/h (2 Bft)
17.12.2023 19:47 22,3 °C 4,6 °C 55 % 89 % 1033,3 hPa 0,0 l/m² 7,7 km/h (2 Bft) SW 218 ° 0 min 0 W/m² 2,9 °C 3,4 °C 9,7 km/h (2 Bft)
17.12.2023 19:48 22,3 °C 4,6 °C 55 % 89 % 1033,3 hPa 0,0 l/m² 8,0 km/h (2 Bft) SW 214 ° 0 min 0 W/m² 2,9 °C 3,2 °C 9,7 km/h (2 Bft)
17.12.2023 19:49 22,3 °C 4,5 °C 55 % 89 % 1033,3 hPa 0,0 l/m² 8,9 km/h (2 Bft) SW 215 ° 0 min 0 W/m² 2,8 °C 2,3 °C 11,3 km/h (2 Bft)
17.12.2023 19:51 22,3 °C 4,4 °C 55 % 89 % 1033,3 hPa 0,0 l/m² 7,9 km/h (2 Bft) SW 214 ° 0 min 0 W/m² 2,7 °C 3,1 °C 11,3 km/h (2 Bft)
17.12.2023 19:53 22,3 °C 4,4 °C 55 % 90 % 1033,3 hPa 0,0 l/m² 6,5 km/h (2 Bft) S-SW 213 ° 0 min 0 W/m² 2,9 °C 4,3 °C 9,7 km/h (2 Bft)
17.12.2023 19:54 22,3 °C 4,4 °C 55 % 90 % 1033,3 hPa 0,0 l/m² 5,1 km/h (1 Bft) S-SW 205 ° 0 min 0 W/m² 2,9 °C 4,4 °C 6,4 km/h (2 Bft)
17.12.2023 19:55 22,3 °C 4,4 °C 55 % 90 % 1033,3 hPa 0,0 l/m² 4,4 km/h (1 Bft) S 187 ° 0 min 0 W/m² 2,9 °C 4,4 °C 6,4 km/h (2 Bft)
17.12.2023 19:56 22,3 °C 4,4 °C 55 % 90 % 1033,3 hPa 0,0 l/m² 6,0 km/h (2 Bft) S-SW 197 ° 0 min 0 W/m² 2,9 °C 4,4 °C 8,0 km/h (2 Bft)
17.12.2023 19:57 22,3 °C 4,4 °C 55 % 90 % 1033,3 hPa 0,0 l/m² 5,3 km/h (1 Bft) S 188 ° 0 min 0 W/m² 2,9 °C 4,4 °C 8,0 km/h (2 Bft)
17.12.2023 19:58 22,3 °C 4,4 °C 55 % 90 % 1033,2 hPa 0,0 l/m² 3,1 km/h (1 Bft) S 191 ° 0 min 0 W/m² 2,9 °C 4,4 °C 4,8 km/h (1 Bft)
17.12.2023 19:59 22,3 °C 4,4 °C 55 % 90 % 1033,2 hPa 0,0 l/m² 5,4 km/h (2 Bft) S-SW 201 ° 0 min 0 W/m² 2,9 °C 4,4 °C 6,4 km/h (2 Bft)
17.12.2023 20:01 22,3 °C 4,4 °C 55 % 90 % 1033,1 hPa 0,0 l/m² 5,5 km/h (2 Bft) S-SW 200 ° 0 min 0 W/m² 2,9 °C 4,4 °C 8,0 km/h (2 Bft)
17.12.2023 20:03 22,3 °C 4,3 °C 55 % 90 % 1033,2 hPa 0,0 l/m² 8,6 km/h (2 Bft) SW 214 ° 0 min 0 W/m² 2,8 °C 2,4 °C 14,5 km/h (3 Bft)
17.12.2023 20:04 22,3 °C 4,3 °C 55 % 90 % 1033,2 hPa 0,0 l/m² 8,2 km/h (2 Bft) S-SW 205 ° 0 min 0 W/m² 2,8 °C 2,7 °C 11,3 km/h (2 Bft)
17.12.2023 20:05 22,3 °C 4,4 °C 55 % 90 % 1033,1 hPa 0,0 l/m² 10,3 km/h (2 Bft) S-SW 193 ° 0 min 0 W/m² 2,9 °C 1,2 °C 11,3 km/h (2 Bft)
17.12.2023 20:06 22,3 °C 4,4 °C 55 % 90 % 1033,1 hPa 0,0 l/m² 9,1 km/h (2 Bft) S 191 ° 0 min 0 W/m² 2,9 °C 2,1 °C 11,3 km/h (2 Bft)
17.12.2023 20:07 22,2 °C 4,4 °C 54 % 90 % 1033,1 hPa 0,0 l/m² 8,2 km/h (2 Bft) S-SW 206 ° 0 min 0 W/m² 2,9 °C 2,8 °C 9,7 km/h (2 Bft)
17.12.2023 20:08 22,3 °C 4,4 °C 54 % 90 % 1033,1 hPa 0,0 l/m² 6,8 km/h (2 Bft) S-SW 201 ° 0 min 0 W/m² 2,9 °C 4,1 °C 9,7 km/h (2 Bft)
17.12.2023 20:09 22,3 °C 4,4 °C 55 % 90 % 1033,2 hPa 0,0 l/m² 5,6 km/h (2 Bft) S 185 ° 0 min 0 W/m² 2,9 °C 4,4 °C 8,0 km/h (2 Bft)
17.12.2023 20:11 22,2 °C 4,4 °C 55 % 90 % 1033,2 hPa 0,0 l/m² 5,2 km/h (1 Bft) S 188 ° 0 min 0 W/m² 2,9 °C 4,4 °C 8,0 km/h (2 Bft)
17.12.2023 20:12 22,3 °C 4,4 °C 55 % 90 % 1033,1 hPa 0,0 l/m² 3,5 km/h (1 Bft) S 186 ° 0 min 0 W/m² 2,9 °C 4,4 °C 4,8 km/h (1 Bft)
17.12.2023 20:13 22,3 °C 4,5 °C 55 % 90 % 1033,1 hPa 0,0 l/m² 5,2 km/h (1 Bft) S 180 ° 0 min 0 W/m² 3,0 °C 4,5 °C 6,4 km/h (2 Bft)
17.12.2023 20:14 22,3 °C 4,6 °C 55 % 91 % 1033,1 hPa 0,0 l/m² 4,2 km/h (1 Bft) S-SW 193 ° 0 min 0 W/m² 3,3 °C 4,6 °C 6,4 km/h (2 Bft)
17.12.2023 20:15 22,3 °C 4,6 °C 55 % 91 % 1033,2 hPa 0,0 l/m² 5,9 km/h (2 Bft) S 185 ° 0 min 0 W/m² 3,3 °C 4,6 °C 9,7 km/h (2 Bft)
17.12.2023 20:17 22,2 °C 4,6 °C 55 % 90 % 1033,2 hPa 0,0 l/m² 5,4 km/h (2 Bft) SW 219 ° 0 min 0 W/m² 3,1 °C 4,6 °C 9,7 km/h (2 Bft)
17.12.2023 20:18 22,2 °C 4,5 °C 55 % 90 % 1033,2 hPa 0,0 l/m² 6,3 km/h (2 Bft) S-SW 207 ° 0 min 0 W/m² 3,0 °C 4,5 °C 9,7 km/h (2 Bft)
17.12.2023 20:19 22,3 °C 4,4 °C 55 % 90 % 1033,1 hPa 0,0 l/m² 8,7 km/h (2 Bft) S-SW 206 ° 0 min 0 W/m² 2,9 °C 2,4 °C 9,7 km/h (2 Bft)
17.12.2023 20:21 22,2 °C 4,4 °C 55 % 90 % 1033,1 hPa 0,0 l/m² 8,8 km/h (2 Bft) S-SW 202 ° 0 min 0 W/m² 2,9 °C 2,3 °C 11,3 km/h (2 Bft)
17.12.2023 20:23 22,2 °C 4,4 °C 55 % 90 % 1033,2 hPa 0,0 l/m² 9,6 km/h (2 Bft) S-SW 198 ° 0 min 0 W/m² 2,9 °C 1,7 °C 12,9 km/h (3 Bft)
17.12.2023 20:24 22,2 °C 4,4 °C 55 % 90 % 1033,2 hPa 0,0 l/m² 9,7 km/h (2 Bft) S-SW 205 ° 0 min 0 W/m² 2,9 °C 1,6 °C 11,3 km/h (2 Bft)
17.12.2023 20:25 22,3 °C 4,4 °C 55 % 90 % 1033,2 hPa 0,0 l/m² 5,8 km/h (2 Bft) S-SW 195 ° 0 min 0 W/m² 2,9 °C 4,4 °C 9,7 km/h (2 Bft)
17.12.2023 20:26 22,2 °C 4,3 °C 55 % 90 % 1033,2 hPa 0,0 l/m² 8,6 km/h (2 Bft) S-SW 211 ° 0 min 0 W/m² 2,8 °C 2,4 °C 9,7 km/h (2 Bft)
17.12.2023 20:27 22,3 °C 4,3 °C 55 % 90 % 1033,2 hPa 0,0 l/m² 7,3 km/h (2 Bft) S-SW 201 ° 0 min 0 W/m² 2,8 °C 3,5 °C 9,7 km/h (2 Bft)
17.12.2023 20:28 22,3 °C 4,3 °C 55 % 90 % 1033,1 hPa 0,0 l/m² 10,5 km/h (2 Bft) S-SW 204 ° 0 min 0 W/m² 2,8 °C 0,9 °C 14,5 km/h (3 Bft)
17.12.2023 20:29 22,2 °C 4,3 °C 55 % 90 % 1033,2 hPa 0,0 l/m² 10,9 km/h (2 Bft) S-SW 205 ° 0 min 0 W/m² 2,8 °C 0,7 °C 14,5 km/h (3 Bft)
17.12.2023 20:31 22,3 °C 4,3 °C 56 % 90 % 1033,2 hPa 0,0 l/m² 13,3 km/h (3 Bft) SW 219 ° 0 min 0 W/m² 2,8 °C -0,8 °C 17,7 km/h (3 Bft)
17.12.2023 20:33 22,3 °C 4,4 °C 55 % 91 % 1033,2 hPa 0,0 l/m² 15,0 km/h (3 Bft) S 187 ° 0 min 0 W/m² 3,1 °C -1,7 °C 20,9 km/h (4 Bft)
17.12.2023 20:34 22,3 °C 4,4 °C 56 % 91 % 1033,2 hPa 0,0 l/m² 15,6 km/h (3 Bft) S-SW 197 ° 0 min 0 W/m² 3,1 °C -2,0 °C 17,7 km/h (3 Bft)
17.12.2023 20:35 22,3 °C 4,4 °C 56 % 91 % 1033,2 hPa 0,0 l/m² 13,1 km/h (3 Bft) SW 219 ° 0 min 0 W/m² 3,1 °C -0,6 °C 19,3 km/h (3 Bft)
17.12.2023 20:36 22,3 °C 4,4 °C 56 % 91 % 1033,2 hPa 0,0 l/m² 14,2 km/h (3 Bft) SW 221 ° 0 min 0 W/m² 3,1 °C -1,2 °C 17,7 km/h (3 Bft)
17.12.2023 20:37 22,3 °C 4,5 °C 56 % 91 % 1033,2 hPa 0,0 l/m² 11,3 km/h (2 Bft) SW 224 ° 0 min 0 W/m² 3,2 °C 0,6 °C 17,7 km/h (3 Bft)
17.12.2023 20:38 22,3 °C 4,6 °C 56 % 91 % 1033,2 hPa 0,0 l/m² 10,6 km/h (2 Bft) S-SW 211 ° 0 min 0 W/m² 3,3 °C 1,2 °C 12,9 km/h (3 Bft)
17.12.2023 20:39 22,3 °C 4,6 °C 56 % 91 % 1033,1 hPa 0,0 l/m² 9,5 km/h (2 Bft) S-SW 210 ° 0 min 0 W/m² 3,3 °C 2,0 °C 11,3 km/h (2 Bft)
17.12.2023 20:41 22,3 °C 4,6 °C 56 % 91 % 1033,1 hPa 0,0 l/m² 12,9 km/h (3 Bft) SW 214 ° 0 min 0 W/m² 3,3 °C -0,2 °C 17,7 km/h (3 Bft)
17.12.2023 20:43 22,3 °C 4,7 °C 56 % 91 % 1033,1 hPa 0,0 l/m² 9,2 km/h (2 Bft) S-SW 213 ° 0 min 0 W/m² 3,4 °C 2,3 °C 16,1 km/h (3 Bft)
17.12.2023 20:44 22,3 °C 4,7 °C 56 % 91 % 1033,1 hPa 0,0 l/m² 4,9 km/h (1 Bft) SW 219 ° 0 min 0 W/m² 3,4 °C 4,7 °C 9,7 km/h (2 Bft)
17.12.2023 20:45 22,4 °C 4,7 °C 56 % 91 % 1033,0 hPa 0,0 l/m² 3,4 km/h (1 Bft) W-SW 254 ° 0 min 0 W/m² 3,4 °C 4,7 °C 8,0 km/h (2 Bft)
17.12.2023 20:46 22,3 °C 4,7 °C 56 % 91 % 1033,1 hPa 0,0 l/m² 2,7 km/h (1 Bft) S 173 ° 0 min 0 W/m² 3,4 °C 4,7 °C 4,8 km/h (1 Bft)
17.12.2023 20:47 22,4 °C 4,8 °C 57 % 91 % 1033,1 hPa 0,0 l/m² 3,5 km/h (1 Bft) SW 227 ° 0 min 0 W/m² 3,5 °C 4,8 °C 6,4 km/h (2 Bft)
17.12.2023 20:48 22,4 °C 4,8 °C 57 % 91 % 1033,1 hPa 0,0 l/m² 4,9 km/h (1 Bft) W 259 ° 0 min 0 W/m² 3,5 °C 4,8 °C 6,4 km/h (2 Bft)
17.12.2023 20:49 22,4 °C 4,7 °C 57 % 90 % 1033,2 hPa 0,0 l/m² 6,4 km/h (2 Bft) S-SW 204 ° 0 min 0 W/m² 3,2 °C 4,7 °C 9,7 km/h (2 Bft)
17.12.2023 20:51 22,4 °C 4,7 °C 57 % 90 % 1033,2 hPa 0,0 l/m² 6,6 km/h (2 Bft) SW 226 ° 0 min 0 W/m² 3,2 °C 4,5 °C 14,5 km/h (3 Bft)
17.12.2023 20:53 22,4 °C 4,7 °C 57 % 90 % 1033,1 hPa 0,0 l/m² 11,4 km/h (2 Bft) S-SW 202 ° 0 min 0 W/m² 3,2 °C 0,8 °C 17,7 km/h (3 Bft)
17.12.2023 20:54 22,4 °C 4,7 °C 57 % 90 % 1033,1 hPa 0,0 l/m² 11,1 km/h (2 Bft) S-SW 213 ° 0 min 0 W/m² 3,2 °C 1,0 °C 14,5 km/h (3 Bft)
17.12.2023 20:55 22,4 °C 4,7 °C 57 % 91 % 1033,2 hPa 0,0 l/m² 11,2 km/h (2 Bft) S 189 ° 0 min 0 W/m² 3,4 °C 0,9 °C 14,5 km/h (3 Bft)
17.12.2023 20:56 22,4 °C 4,7 °C 57 % 90 % 1033,2 hPa 0,0 l/m² 9,0 km/h (2 Bft) S-SW 202 ° 0 min 0 W/m² 3,2 °C 2,5 °C 11,3 km/h (2 Bft)
17.12.2023 20:57 22,4 °C 4,7 °C 57 % 91 % 1033,2 hPa 0,0 l/m² 6,6 km/h (2 Bft) S-SW 205 ° 0 min 0 W/m² 3,4 °C 4,5 °C 8,0 km/h (2 Bft)
17.12.2023 20:58 22,4 °C 4,7 °C 57 % 91 % 1033,2 hPa 0,0 l/m² 8,4 km/h (2 Bft) S-SW 205 ° 0 min 0 W/m² 3,4 °C 3,0 °C 14,5 km/h (3 Bft)
17.12.2023 20:59 22,4 °C 4,8 °C 57 % 91 % 1033,2 hPa 0,0 l/m² 8,4 km/h (2 Bft) S-SW 211 ° 0 min 0 W/m² 3,5 °C 3,1 °C 12,9 km/h (3 Bft)
17.12.2023 21:01 22,4 °C 4,8 °C 57 % 91 % 1033,1 hPa 0,0 l/m² 8,7 km/h (2 Bft) SW 235 ° 0 min 0 W/m² 3,5 °C 2,8 °C 14,5 km/h (3 Bft)
17.12.2023 21:03 22,4 °C 4,8 °C 57 % 91 % 1033,1 hPa 0,0 l/m² 5,9 km/h (2 Bft) S-SW 212 ° 0 min 0 W/m² 3,5 °C 4,8 °C 9,7 km/h (2 Bft)
17.12.2023 21:04 22,5 °C 4,8 °C 57 % 90 % 1033,2 hPa 0,0 l/m² 2,7 km/h (1 Bft) SW 222 ° 0 min 0 W/m² 3,3 °C 4,8 °C 6,4 km/h (2 Bft)
17.12.2023 21:05 22,5 °C 4,8 °C 57 % 91 % 1033,1 hPa 0,0 l/m² 0,8 km/h (0 Bft) SW 221 ° 0 min 0 W/m² 3,5 °C 4,8 °C 3,2 km/h (1 Bft)
17.12.2023 21:07 22,6 °C 4,8 °C 57 % 91 % 1033,2 hPa 0,0 l/m² 2,3 km/h (1 Bft) S-SW 196 ° 0 min 0 W/m² 3,5 °C 4,8 °C 8,0 km/h (2 Bft)
17.12.2023 21:08 22,6 °C 4,8 °C 57 % 91 % 1033,2 hPa 0,0 l/m² 2,8 km/h (1 Bft) SW 219 ° 0 min 0 W/m² 3,5 °C 4,8 °C 4,8 km/h (1 Bft)
17.12.2023 21:09 22,5 °C 4,8 °C 57 % 91 % 1033,1 hPa 0,0 l/m² 4,2 km/h (1 Bft) S-SW 202 ° 0 min 0 W/m² 3,5 °C 4,8 °C 6,4 km/h (2 Bft)
17.12.2023 21:11 22,6 °C 4,8 °C 57 % 91 % 1033,2 hPa 0,0 l/m² 0,6 km/h (0 Bft) S-SW 199 ° 0 min 0 W/m² 3,5 °C 4,8 °C 3,2 km/h (1 Bft)
17.12.2023 21:13 22,6 °C 4,8 °C 57 % 90 % 1033,1 hPa 0,0 l/m² 6,2 km/h (2 Bft) S 178 ° 0 min 0 W/m² 3,3 °C 4,8 °C 9,7 km/h (2 Bft)
17.12.2023 21:14 22,6 °C 4,8 °C 57 % 90 % 1033,1 hPa 0,0 l/m² 7,8 km/h (2 Bft) SW 224 ° 0 min 0 W/m² 3,3 °C 3,6 °C 9,7 km/h (2 Bft)
17.12.2023 21:15 22,6 °C 4,8 °C 57 % 90 % 1033,0 hPa 0,0 l/m² 5,6 km/h (2 Bft) S-SW 202 ° 0 min 0 W/m² 3,3 °C 4,8 °C 8,0 km/h (2 Bft)
17.12.2023 21:16 22,6 °C 4,8 °C 57 % 91 % 1033,0 hPa 0,0 l/m² 7,6 km/h (2 Bft) S-SW 201 ° 0 min 0 W/m² 3,5 °C 3,7 °C 11,3 km/h (2 Bft)
17.12.2023 21:17 22,6 °C 4,8 °C 57 % 90 % 1033,0 hPa 0,0 l/m² 7,0 km/h (2 Bft) S 180 ° 0 min 0 W/m² 3,3 °C 4,3 °C 9,7 km/h (2 Bft)
17.12.2023 21:18 22,6 °C 4,8 °C 57 % 90 % 1032,9 hPa 0,0 l/m² 7,3 km/h (2 Bft) S 184 ° 0 min 0 W/m² 3,3 °C 4,0 °C 14,5 km/h (3 Bft)
17.12.2023 21:19 22,6 °C 4,8 °C 57 % 90 % 1032,9 hPa 0,0 l/m² 7,7 km/h (2 Bft) SW 216 ° 0 min 0 W/m² 3,3 °C 3,6 °C 11,3 km/h (2 Bft)
17.12.2023 21:21 22,6 °C 4,8 °C 57 % 90 % 1033,0 hPa 0,0 l/m² 4,6 km/h (1 Bft) SW 215 ° 0 min 0 W/m² 3,3 °C 4,8 °C 8,0 km/h (2 Bft)
17.12.2023 21:23 22,6 °C 4,7 °C 57 % 90 % 1032,9 hPa 0,0 l/m² 3,2 km/h (1 Bft) S-SW 211 ° 0 min 0 W/m² 3,2 °C 4,7 °C 8,0 km/h (2 Bft)
17.12.2023 21:24 22,6 °C 4,7 °C 57 % 90 % 1032,9 hPa 0,0 l/m² 4,3 km/h (1 Bft) S 175 ° 0 min 0 W/m² 3,2 °C 4,7 °C 6,4 km/h (2 Bft)
17.12.2023 21:25 22,6 °C 4,7 °C 57 % 90 % 1032,9 hPa 0,0 l/m² 5,2 km/h (1 Bft) W-SW 248 ° 0 min 0 W/m² 3,2 °C 4,7 °C 8,0 km/h (2 Bft)
17.12.2023 21:26 22,6 °C 4,7 °C 57 % 90 % 1033,0 hPa 0,0 l/m² 5,8 km/h (2 Bft) SW 228 ° 0 min 0 W/m² 3,2 °C 4,7 °C 8,0 km/h (2 Bft)
17.12.2023 21:27 22,6 °C 4,8 °C 57 % 90 % 1033,0 hPa 0,0 l/m² 5,6 km/h (2 Bft) W-SW 242 ° 0 min 0 W/m² 3,3 °C 4,8 °C 9,7 km/h (2 Bft)
17.12.2023 21:28 22,6 °C 4,8 °C 57 % 91 % 1032,9 hPa 0,0 l/m² 7,2 km/h (2 Bft) SW 225 ° 0 min 0 W/m² 3,5 °C 4,1 °C 11,3 km/h (2 Bft)
17.12.2023 21:29 22,6 °C 4,8 °C 57 % 90 % 1033,1 hPa 0,0 l/m² 7,7 km/h (2 Bft) SW 214 ° 0 min 0 W/m² 3,3 °C 3,6 °C 11,3 km/h (2 Bft)
17.12.2023 21:30 22,7 °C 4,8 °C 57 % 90 % 1032,9 hPa 0,0 l/m² 8,8 km/h (2 Bft) S-SW 200 ° 0 min 0 W/m² 3,3 °C 2,7 °C 11,3 km/h (2 Bft)
17.12.2023 21:32 22,7 °C 4,8 °C 57 % 90 % 1033,0 hPa 0,0 l/m² 7,6 km/h (2 Bft) SW 218 ° 0 min 0 W/m² 3,3 °C 3,7 °C 12,9 km/h (3 Bft)
17.12.2023 21:34 22,6 °C 4,8 °C 56 % 91 % 1032,9 hPa 0,0 l/m² 12,7 km/h (3 Bft) S-SW 201 ° 0 min 0 W/m² 3,5 °C 0,1 °C 20,9 km/h (4 Bft)
17.12.2023 21:35 22,6 °C 4,8 °C 57 % 91 % 1032,9 hPa 0,0 l/m² 15,3 km/h (3 Bft) S-SW 209 ° 0 min 0 W/m² 3,5 °C -1,3 °C 19,3 km/h (3 Bft)
17.12.2023 21:36 22,6 °C 4,9 °C 56 % 91 % 1032,9 hPa 0,0 l/m² 13,7 km/h (3 Bft) S-SW 192 ° 0 min 0 W/m² 3,6 °C -0,4 °C 19,3 km/h (3 Bft)
17.12.2023 21:37 22,7 °C 4,9 °C 56 % 91 % 1033,0 hPa 0,0 l/m² 11,7 km/h (2 Bft) S-SW 213 ° 0 min 0 W/m² 3,6 °C 0,8 °C 14,5 km/h (3 Bft)
17.12.2023 21:38 22,6 °C 4,9 °C 56 % 91 % 1033,1 hPa 0,0 l/m² 8,0 km/h (2 Bft) S 183 ° 0 min 0 W/m² 3,6 °C 3,5 °C 12,9 km/h (3 Bft)
17.12.2023 21:39 22,7 °C 4,9 °C 56 % 91 % 1033,0 hPa 0,0 l/m² 15,4 km/h (3 Bft) SW 229 ° 0 min 0 W/m² 3,6 °C -1,2 °C 19,3 km/h (3 Bft)
17.12.2023 21:40 22,7 °C 4,9 °C 56 % 90 % 1033,0 hPa 0,0 l/m² 15,2 km/h (3 Bft) S-SW 211 ° 0 min 0 W/m² 3,4 °C -1,1 °C 17,7 km/h (3 Bft)
17.12.2023 21:42 22,7 °C 5,0 °C 56 % 90 % 1032,9 hPa 0,0 l/m² 11,4 km/h (2 Bft) SW 214 ° 0 min 0 W/m² 3,5 °C 1,1 °C 14,5 km/h (3 Bft)
17.12.2023 21:43 22,7 °C 5,0 °C 56 % 90 % 1032,9 hPa 0,0 l/m² 9,3 km/h (2 Bft) SW 217 ° 0 min 0 W/m² 3,5 °C 2,6 °C 12,9 km/h (3 Bft)
17.12.2023 21:44 22,7 °C 4,9 °C 56 % 90 % 1033,0 hPa 0,0 l/m² 17,7 km/h (3 Bft) S-SW 209 ° 0 min 0 W/m² 3,4 °C -2,3 °C 19,3 km/h (3 Bft)
17.12.2023 21:46 22,7 °C 4,9 °C 56 % 90 % 1032,9 hPa 0,0 l/m² 13,5 km/h (3 Bft) SW 236 ° 0 min 0 W/m² 3,4 °C -0,2 °C 19,3 km/h (3 Bft)
17.12.2023 21:47 22,7 °C 4,9 °C 56 % 90 % 1032,9 hPa 0,0 l/m² 9,5 km/h (2 Bft) W-SW 248 ° 0 min 0 W/m² 3,4 °C 2,3 °C 12,9 km/h (3 Bft)
17.12.2023 21:48 22,7 °C 4,9 °C 56 % 90 % 1032,9 hPa 0,0 l/m² 11,3 km/h (2 Bft) SW 226 ° 0 min 0 W/m² 3,4 °C 1,1 °C 16,1 km/h (3 Bft)
17.12.2023 21:49 22,7 °C 4,9 °C 56 % 90 % 1032,9 hPa 0,0 l/m² 8,2 km/h (2 Bft) SW 221 ° 0 min 0 W/m² 3,4 °C 3,3 °C 12,9 km/h (3 Bft)
17.12.2023 21:50 22,7 °C 4,9 °C 56 % 90 % 1033,1 hPa 0,0 l/m² 8,3 km/h (2 Bft) SW 232 ° 0 min 0 W/m² 3,4 °C 3,3 °C 12,9 km/h (3 Bft)
17.12.2023 21:51 22,7 °C 4,9 °C 56 % 90 % 1033,1 hPa 0,0 l/m² 8,0 km/h (2 Bft) W-SW 240 ° 0 min 0 W/m² 3,4 °C 3,5 °C 9,7 km/h (2 Bft)
17.12.2023 21:52 22,7 °C 4,9 °C 56 % 90 % 1033,1 hPa 0,0 l/m² 8,3 km/h (2 Bft) W-SW 244 ° 0 min 0 W/m² 3,4 °C 3,3 °C 14,5 km/h (3 Bft)
17.12.2023 21:53 22,7 °C 4,9 °C 56 % 90 % 1033,1 hPa 0,0 l/m² 10,1 km/h (2 Bft) W-SW 243 ° 0 min 0 W/m² 3,4 °C 1,9 °C 12,9 km/h (3 Bft)
17.12.2023 21:54 22,7 °C 4,9 °C 56 % 90 % 1033,0 hPa 0,0 l/m² 10,1 km/h (2 Bft) W-SW 237 ° 0 min 0 W/m² 3,4 °C 1,9 °C 16,1 km/h (3 Bft)
17.12.2023 21:55 22,7 °C 4,9 °C 56 % 90 % 1033,0 hPa 0,0 l/m² 11,3 km/h (2 Bft) W-SW 245 ° 0 min 0 W/m² 3,4 °C 1,1 °C 17,7 km/h (3 Bft)
17.12.2023 21:56 22,7 °C 4,9 °C 56 % 90 % 1032,9 hPa 0,0 l/m² 9,0 km/h (2 Bft) SW 222 ° 0 min 0 W/m² 3,4 °C 2,7 °C 12,9 km/h (3 Bft)
17.12.2023 21:57 22,7 °C 4,9 °C 56 % 90 % 1033,0 hPa 0,0 l/m² 9,3 km/h (2 Bft) SW 227 ° 0 min 0 W/m² 3,4 °C 2,5 °C 12,9 km/h (3 Bft)
17.12.2023 21:58 22,7 °C 4,9 °C 56 % 90 % 1032,9 hPa 0,0 l/m² 7,6 km/h (2 Bft) W-SW 242 ° 0 min 0 W/m² 3,4 °C 3,8 °C 9,7 km/h (2 Bft)
17.12.2023 21:59 22,7 °C 4,9 °C 56 % 90 % 1033,0 hPa 0,0 l/m² 10,6 km/h (2 Bft) W-SW 255 ° 0 min 0 W/m² 3,4 °C 1,5 °C 14,5 km/h (3 Bft)
17.12.2023 22:01 22,7 °C 5,0 °C 56 % 90 % 1033,0 hPa 0,0 l/m² 7,2 km/h (2 Bft) W 259 ° 0 min 0 W/m² 3,5 °C 4,3 °C 12,9 km/h (3 Bft)
17.12.2023 22:03 22,7 °C 4,9 °C 56 % 90 % 1033,1 hPa 0,0 l/m² 4,4 km/h (1 Bft) W 270 ° 0 min 0 W/m² 3,4 °C 4,9 °C 8,0 km/h (2 Bft)
17.12.2023 22:04 22,7 °C 4,9 °C 56 % 90 % 1033,1 hPa 0,0 l/m² 4,3 km/h (1 Bft) W 263 ° 0 min 0 W/m² 3,4 °C 4,9 °C 6,4 km/h (2 Bft)
17.12.2023 22:05 22,7 °C 4,8 °C 56 % 90 % 1033,1 hPa 0,0 l/m² 3,8 km/h (1 Bft) W-SW 255 ° 0 min 0 W/m² 3,3 °C 4,8 °C 6,4 km/h (2 Bft)
17.12.2023 22:07 22,7 °C 4,8 °C 55 % 90 % 1033,1 hPa 0,0 l/m² 6,6 km/h (2 Bft) W-SW 246 ° 0 min 0 W/m² 3,3 °C 4,6 °C 11,3 km/h (2 Bft)
17.12.2023 22:08 22,7 °C 4,7 °C 55 % 90 % 1033,1 hPa 0,0 l/m² 4,2 km/h (1 Bft) W 263 ° 0 min 0 W/m² 3,2 °C 4,7 °C 6,4 km/h (2 Bft)
17.12.2023 22:09 22,7 °C 4,7 °C 55 % 90 % 1033,0 hPa 0,0 l/m² 4,7 km/h (1 Bft) SW 219 ° 0 min 0 W/m² 3,2 °C 4,7 °C 6,4 km/h (2 Bft)
17.12.2023 22:11 22,7 °C 4,7 °C 55 % 90 % 1033,0 hPa 0,0 l/m² 6,9 km/h (2 Bft) W-SW 252 ° 0 min 0 W/m² 3,2 °C 4,3 °C 11,3 km/h (2 Bft)
17.12.2023 22:13 22,6 °C 4,8 °C 55 % 90 % 1033,1 hPa 0,0 l/m² 7,4 km/h (2 Bft) W-SW 244 ° 0 min 0 W/m² 3,3 °C 3,9 °C 14,5 km/h (3 Bft)
17.12.2023 22:14 22,6 °C 4,8 °C 55 % 90 % 1033,0 hPa 0,0 l/m² 9,8 km/h (2 Bft) SW 235 ° 0 min 0 W/m² 3,3 °C 2,0 °C 12,9 km/h (3 Bft)
17.12.2023 22:15 22,6 °C 4,8 °C 55 % 90 % 1033,1 hPa 0,0 l/m² 9,7 km/h (2 Bft) W-SW 242 ° 0 min 0 W/m² 3,3 °C 2,1 °C 14,5 km/h (3 Bft)
17.12.2023 22:16 22,6 °C 4,8 °C 55 % 90 % 1033,0 hPa 0,0 l/m² 12,0 km/h (2 Bft) W 261 ° 0 min 0 W/m² 3,3 °C 0,5 °C 14,5 km/h (3 Bft)
17.12.2023 22:17 22,6 °C 4,8 °C 55 % 91 % 1033,0 hPa 0,0 l/m² 8,8 km/h (2 Bft) W-SW 252 ° 0 min 0 W/m² 3,5 °C 2,7 °C 12,9 km/h (3 Bft)
17.12.2023 22:18 22,6 °C 4,9 °C 55 % 91 % 1033,0 hPa 0,0 l/m² 12,3 km/h (2 Bft) W-SW 242 ° 0 min 0 W/m² 3,6 °C 0,5 °C 19,3 km/h (3 Bft)
17.12.2023 22:19 22,6 °C 4,9 °C 55 % 91 % 1033,1 hPa 0,0 l/m² 11,2 km/h (2 Bft) W 262 ° 0 min 0 W/m² 3,6 °C 1,1 °C 14,5 km/h (3 Bft)
17.12.2023 22:21 22,5 °C 4,9 °C 54 % 90 % 1033,0 hPa 0,0 l/m² 10,7 km/h (2 Bft) W-SW 238 ° 0 min 0 W/m² 3,4 °C 1,5 °C 19,3 km/h (3 Bft)
17.12.2023 22:23 22,5 °C 4,9 °C 54 % 90 % 1033,0 hPa 0,0 l/m² 10,9 km/h (2 Bft) SW 228 ° 0 min 0 W/m² 3,4 °C 1,3 °C 14,5 km/h (3 Bft)
17.12.2023 22:24 22,5 °C 4,9 °C 54 % 90 % 1033,0 hPa 0,0 l/m² 11,4 km/h (2 Bft) W-SW 244 ° 0 min 0 W/m² 3,4 °C 1,0 °C 14,5 km/h (3 Bft)
17.12.2023 22:25 22,5 °C 5,0 °C 54 % 90 % 1032,9 hPa 0,0 l/m² 8,1 km/h (2 Bft) SW 234 ° 0 min 0 W/m² 3,5 °C 3,5 °C 12,9 km/h (3 Bft)
17.12.2023 22:26 22,4 °C 5,0 °C 54 % 90 % 1032,9 hPa 0,0 l/m² 13,0 km/h (3 Bft) W-SW 245 ° 0 min 0 W/m² 3,5 °C 0,2 °C 16,1 km/h (3 Bft)
17.12.2023 22:27 22,4 °C 5,0 °C 54 % 90 % 1032,8 hPa 0,0 l/m² 13,4 km/h (3 Bft) W-SW 242 ° 0 min 0 W/m² 3,5 °C -0,1 °C 19,3 km/h (3 Bft)
17.12.2023 22:28 22,4 °C 5,0 °C 54 % 90 % 1032,8 hPa 0,0 l/m² 10,7 km/h (2 Bft) SW 228 ° 0 min 0 W/m² 3,5 °C 1,6 °C 12,9 km/h (3 Bft)
17.12.2023 22:29 22,4 °C 5,1 °C 54 % 90 % 1032,8 hPa 0,0 l/m² 10,5 km/h (2 Bft) SW 229 ° 0 min 0 W/m² 3,6 °C 1,8 °C 16,1 km/h (3 Bft)
17.12.2023 22:31 22,4 °C 5,1 °C 54 % 90 % 1032,8 hPa 0,0 l/m² 11,7 km/h (2 Bft) W-SW 244 ° 0 min 0 W/m² 3,6 °C 1,1 °C 17,7 km/h (3 Bft)
17.12.2023 22:33 22,4 °C 5,1 °C 54 % 90 % 1032,8 hPa 0,0 l/m² 7,7 km/h (2 Bft) W-SW 242 ° 0 min 0 W/m² 3,6 °C 4,0 °C 11,3 km/h (2 Bft)
17.12.2023 22:34 22,4 °C 5,1 °C 54 % 90 % 1032,8 hPa 0,0 l/m² 12,7 km/h (3 Bft) W-SW 239 ° 0 min 0 W/m² 3,6 °C 0,5 °C 19,3 km/h (3 Bft)
17.12.2023 22:35 22,3 °C 5,2 °C 54 % 90 % 1032,8 hPa 0,0 l/m² 12,2 km/h (2 Bft) W-SW 257 ° 0 min 0 W/m² 3,7 °C 0,9 °C 16,1 km/h (3 Bft)
17.12.2023 22:36 22,4 °C 5,2 °C 54 % 90 % 1032,8 hPa 0,0 l/m² 10,0 km/h (2 Bft) W-SW 239 ° 0 min 0 W/m² 3,7 °C 2,3 °C 16,1 km/h (3 Bft)
17.12.2023 22:37 22,3 °C 5,2 °C 55 % 90 % 1032,8 hPa 0,0 l/m² 9,9 km/h (2 Bft) W-SW 238 ° 0 min 0 W/m² 3,7 °C 2,4 °C 12,9 km/h (3 Bft)
17.12.2023 22:38 22,3 °C 5,2 °C 55 % 90 % 1032,8 hPa 0,0 l/m² 7,8 km/h (2 Bft) W-SW 251 ° 0 min 0 W/m² 3,7 °C 4,0 °C 14,5 km/h (3 Bft)
17.12.2023 22:39 22,3 °C 5,2 °C 54 % 90 % 1032,8 hPa 0,0 l/m² 9,2 km/h (2 Bft) SW 236 ° 0 min 0 W/m² 3,7 °C 2,9 °C 14,5 km/h (3 Bft)
17.12.2023 22:41 22,3 °C 5,2 °C 55 % 90 % 1032,7 hPa 0,0 l/m² 8,9 km/h (2 Bft) SW 223 ° 0 min 0 W/m² 3,7 °C 3,1 °C 14,5 km/h (3 Bft)
17.12.2023 22:43 22,3 °C 5,2 °C 55 % 90 % 1032,8 hPa 0,0 l/m² 12,8 km/h (3 Bft) W-SW 245 ° 0 min 0 W/m² 3,7 °C 0,5 °C 19,3 km/h (3 Bft)
17.12.2023 22:44 22,3 °C 5,2 °C 55 % 90 % 1032,8 hPa 0,0 l/m² 7,0 km/h (2 Bft) SW 235 ° 0 min 0 W/m² 3,7 °C 4,7 °C 14,5 km/h (3 Bft)
17.12.2023 22:45 22,3 °C 5,2 °C 55 % 90 % 1032,9 hPa 0,0 l/m² 8,6 km/h (2 Bft) SW 236 ° 0 min 0 W/m² 3,7 °C 3,3 °C 12,9 km/h (3 Bft)
17.12.2023 22:46 22,3 °C 5,2 °C 55 % 90 % 1032,8 hPa 0,0 l/m² 9,9 km/h (2 Bft) W-SW 246 ° 0 min 0 W/m² 3,7 °C 2,4 °C 14,5 km/h (3 Bft)
17.12.2023 22:47 22,3 °C 5,2 °C 55 % 90 % 1033,0 hPa 0,0 l/m² 13,0 km/h (3 Bft) SW 230 ° 0 min 0 W/m² 3,7 °C 0,4 °C 17,7 km/h (3 Bft)
17.12.2023 22:48 22,3 °C 5,2 °C 55 % 90 % 1032,9 hPa 0,0 l/m² 9,3 km/h (2 Bft) SW 216 ° 0 min 0 W/m² 3,7 °C 2,8 °C 17,7 km/h (3 Bft)
17.12.2023 22:49 22,3 °C 5,2 °C 55 % 90 % 1033,0 hPa 0,0 l/m² 9,3 km/h (2 Bft) W-SW 254 ° 0 min 0 W/m² 3,7 °C 2,8 °C 12,9 km/h (3 Bft)
17.12.2023 22:50 22,3 °C 5,2 °C 55 % 90 % 1033,0 hPa 0,0 l/m² 10,2 km/h (2 Bft) W-NW 284 ° 0 min 0 W/m² 3,7 °C 2,2 °C 14,5 km/h (3 Bft)
17.12.2023 22:52 22,3 °C 5,1 °C 55 % 90 % 1033,0 hPa 0,0 l/m² 8,6 km/h (2 Bft) SW 224 ° 0 min 0 W/m² 3,6 °C 3,2 °C 14,5 km/h (3 Bft)
17.12.2023 22:53 22,3 °C 5,2 °C 55 % 90 % 1033,0 hPa 0,0 l/m² 8,8 km/h (2 Bft) SW 233 ° 0 min 0 W/m² 3,7 °C 3,2 °C 12,9 km/h (3 Bft)
17.12.2023 22:54 22,3 °C 5,2 °C 55 % 90 % 1033,0 hPa 0,0 l/m² 11,7 km/h (2 Bft) SW 227 ° 0 min 0 W/m² 3,7 °C 1,2 °C 16,1 km/h (3 Bft)
17.12.2023 22:55 22,3 °C 5,1 °C 55 % 90 % 1033,0 hPa 0,0 l/m² 8,4 km/h (2 Bft) SW 229 ° 0 min 0 W/m² 3,6 °C 3,4 °C 9,7 km/h (2 Bft)
17.12.2023 22:56 22,3 °C 5,1 °C 55 % 90 % 1033,0 hPa 0,0 l/m² 13,5 km/h (3 Bft) W-SW 245 ° 0 min 0 W/m² 3,6 °C -0,0 °C 19,3 km/h (3 Bft)
17.12.2023 22:57 22,3 °C 5,1 °C 55 % 90 % 1032,9 hPa 0,0 l/m² 14,7 km/h (3 Bft) SW 215 ° 0 min 0 W/m² 3,6 °C -0,6 °C 19,3 km/h (3 Bft)
17.12.2023 22:58 22,3 °C 5,1 °C 55 % 90 % 1032,8 hPa 0,0 l/m² 13,0 km/h (3 Bft) SW 217 ° 0 min 0 W/m² 3,6 °C 0,3 °C 17,7 km/h (3 Bft)
17.12.2023 22:59 22,3 °C 5,1 °C 55 % 90 % 1032,8 hPa 0,0 l/m² 15,4 km/h (3 Bft) S-SW 209 ° 0 min 0 W/m² 3,6 °C -1,0 °C 19,3 km/h (3 Bft)
17.12.2023 23:01 22,2 °C 5,1 °C 55 % 90 % 1032,8 hPa 0,0 l/m² 18,6 km/h (3 Bft) SW 227 ° 0 min 0 W/m² 3,6 °C -2,5 °C 24,1 km/h (4 Bft)
17.12.2023 23:03 22,2 °C 5,1 °C 55 % 90 % 1032,6 hPa 0,0 l/m² 18,0 km/h (3 Bft) S-SW 205 ° 0 min 0 W/m² 3,6 °C -2,2 °C 22,5 km/h (4 Bft)
17.12.2023 23:04 22,2 °C 5,1 °C 55 % 90 % 1032,6 hPa 0,0 l/m² 16,7 km/h (3 Bft) S-SW 203 ° 0 min 0 W/m² 3,6 °C -1,6 °C 20,9 km/h (4 Bft)
17.12.2023 23:05 22,2 °C 5,0 °C 55 % 90 % 1032,6 hPa 0,0 l/m² 21,0 km/h (4 Bft) S-SW 210 ° 0 min 0 W/m² 3,5 °C -3,6 °C 25,7 km/h (4 Bft)
17.12.2023 23:06 22,2 °C 5,1 °C 55 % 90 % 1032,7 hPa 0,0 l/m² 21,3 km/h (4 Bft) SW 214 ° 0 min 0 W/m² 3,6 °C -3,5 °C 24,1 km/h (4 Bft)
17.12.2023 23:07 22,2 °C 5,1 °C 55 % 90 % 1032,6 hPa 0,0 l/m² 19,6 km/h (3 Bft) S 190 ° 0 min 0 W/m² 3,6 °C -2,9 °C 24,1 km/h (4 Bft)
17.12.2023 23:08 22,2 °C 5,1 °C 55 % 90 % 1032,6 hPa 0,0 l/m² 21,4 km/h (4 Bft) SW 215 ° 0 min 0 W/m² 3,6 °C -3,6 °C 27,4 km/h (5 Bft)
17.12.2023 23:09 22,2 °C 5,1 °C 55 % 90 % 1032,7 hPa 0,0 l/m² 23,4 km/h (4 Bft) SW 221 ° 0 min 0 W/m² 3,6 °C -4,3 °C 29,0 km/h (5 Bft)
17.12.2023 23:11 22,2 °C 5,1 °C 55 % 90 % 1032,7 hPa 0,0 l/m² 16,4 km/h (3 Bft) S-SW 198 ° 0 min 0 W/m² 3,6 °C -1,5 °C 25,7 km/h (4 Bft)
17.12.2023 23:13 22,2 °C 5,1 °C 55 % 91 % 1032,7 hPa 0,0 l/m² 14,6 km/h (3 Bft) SW 221 ° 0 min 0 W/m² 3,8 °C -0,6 °C 20,9 km/h (4 Bft)
17.12.2023 23:14 22,2 °C 5,1 °C 55 % 90 % 1032,7 hPa 0,0 l/m² 11,2 km/h (2 Bft) S-SW 203 ° 0 min 0 W/m² 3,6 °C 1,4 °C 16,1 km/h (3 Bft)
17.12.2023 23:15 22,2 °C 5,1 °C 55 % 90 % 1032,7 hPa 0,0 l/m² 11,1 km/h (2 Bft) SW 229 ° 0 min 0 W/m² 3,6 °C 1,4 °C 14,5 km/h (3 Bft)
17.12.2023 23:16 22,2 °C 5,0 °C 55 % 90 % 1032,7 hPa 0,0 l/m² 11,3 km/h (2 Bft) S-SW 202 ° 0 min 0 W/m² 3,5 °C 1,2 °C 14,5 km/h (3 Bft)
17.12.2023 23:17 22,2 °C 5,1 °C 55 % 90 % 1032,7 hPa 0,0 l/m² 6,4 km/h (2 Bft) SW 225 ° 0 min 0 W/m² 3,6 °C 5,1 °C 11,3 km/h (2 Bft)
17.12.2023 23:23 22,2 °C 5,1 °C 55 % 91 % 1032,8 hPa 0,0 l/m² 10,0 km/h (2 Bft) SW 232 ° 0 min 0 W/m² 3,8 °C 2,2 °C 14,5 km/h (3 Bft)
17.12.2023 23:25 22,2 °C 5,1 °C 55 % 91 % 1032,9 hPa 0,0 l/m² 10,3 km/h (2 Bft) SW 214 ° 0 min 0 W/m² 3,8 °C 2,0 °C 12,9 km/h (3 Bft)
17.12.2023 23:27 22,2 °C 5,1 °C 55 % 91 % 1033,0 hPa 0,0 l/m² 9,0 km/h (2 Bft) W-SW 246 ° 0 min 0 W/m² 3,8 °C 2,9 °C 14,5 km/h (3 Bft)
17.12.2023 23:29 22,1 °C 5,1 °C 55 % 91 % 1032,9 hPa 0,0 l/m² 6,7 km/h (2 Bft) SW 232 ° 0 min 0 W/m² 3,8 °C 4,9 °C 11,3 km/h (2 Bft)
17.12.2023 23:30 22,1 °C 5,2 °C 55 % 91 % 1032,9 hPa 0,0 l/m² 9,9 km/h (2 Bft) SW 236 ° 0 min 0 W/m² 3,9 °C 2,4 °C 14,5 km/h (3 Bft)
17.12.2023 23:31 22,1 °C 5,1 °C 55 % 91 % 1033,1 hPa 0,0 l/m² 9,5 km/h (2 Bft) SW 217 ° 0 min 0 W/m² 3,8 °C 2,5 °C 14,5 km/h (3 Bft)
17.12.2023 23:32 22,2 °C 5,2 °C 55 % 91 % 1033,1 hPa 0,0 l/m² 5,2 km/h (1 Bft) SW 233 ° 0 min 0 W/m² 3,9 °C 5,2 °C 8,0 km/h (2 Bft)
17.12.2023 23:34 22,1 °C 5,2 °C 55 % 91 % 1033,1 hPa 0,0 l/m² 9,3 km/h (2 Bft) SW 228 ° 0 min 0 W/m² 3,9 °C 2,8 °C 14,5 km/h (3 Bft)
17.12.2023 23:35 22,1 °C 5,2 °C 55 % 91 % 1033,1 hPa 0,0 l/m² 10,6 km/h (2 Bft) SW 232 ° 0 min 0 W/m² 3,9 °C 1,9 °C 17,7 km/h (3 Bft)
17.12.2023 23:37 22,2 °C 5,2 °C 55 % 91 % 1033,0 hPa 0,0 l/m² 11,2 km/h (2 Bft) SW 217 ° 0 min 0 W/m² 3,9 °C 1,5 °C 16,1 km/h (3 Bft)
17.12.2023 23:39 22,1 °C 5,2 °C 55 % 91 % 1033,0 hPa 0,0 l/m² 12,5 km/h (2 Bft) SW 226 ° 0 min 0 W/m² 3,9 °C 0,7 °C 20,9 km/h (4 Bft)
17.12.2023 23:40 22,1 °C 5,2 °C 55 % 91 % 1033,0 hPa 0,0 l/m² 12,1 km/h (2 Bft) SW 234 ° 0 min 0 W/m² 3,9 °C 0,9 °C 16,1 km/h (3 Bft)
17.12.2023 23:41 22,2 °C 5,2 °C 55 % 91 % 1032,9 hPa 0,0 l/m² 14,3 km/h (3 Bft) SW 222 ° 0 min 0 W/m² 3,9 °C -0,3 °C 17,7 km/h (3 Bft)
17.12.2023 23:42 22,1 °C 5,2 °C 55 % 91 % 1032,9 hPa 0,0 l/m² 12,1 km/h (2 Bft) S-SW 211 ° 0 min 0 W/m² 3,9 °C 0,9 °C 17,7 km/h (3 Bft)
17.12.2023 23:44 22,1 °C 5,3 °C 55 % 91 % 1033,0 hPa 0,0 l/m² 11,4 km/h (2 Bft) SW 226 ° 0 min 0 W/m² 4,0 °C 1,5 °C 16,1 km/h (3 Bft)
17.12.2023 23:45 22,1 °C 5,3 °C 55 % 91 % 1033,0 hPa 0,0 l/m² 13,8 km/h (3 Bft) W-SW 257 ° 0 min 0 W/m² 4,0 °C 0,1 °C 22,5 km/h (4 Bft)
17.12.2023 23:47 22,1 °C 5,3 °C 55 % 91 % 1033,0 hPa 0,0 l/m² 14,3 km/h (3 Bft) S-SW 203 ° 0 min 0 W/m² 4,0 °C -0,2 °C 25,7 km/h (4 Bft)
17.12.2023 23:49 22,2 °C 5,3 °C 55 % 91 % 1032,9 hPa 0,0 l/m² 17,4 km/h (3 Bft) SW 224 ° 0 min 0 W/m² 4,0 °C -1,7 °C 22,5 km/h (4 Bft)
17.12.2023 23:50 22,1 °C 5,4 °C 55 % 92 % 1032,9 hPa 0,0 l/m² 17,9 km/h (3 Bft) SW 229 ° 0 min 0 W/m² 4,2 °C -1,8 °C 25,7 km/h (4 Bft)
17.12.2023 23:51 22,1 °C 5,4 °C 55 % 92 % 1032,8 hPa 0,0 l/m² 18,8 km/h (3 Bft) SW 236 ° 0 min 0 W/m² 4,2 °C -2,2 °C 25,7 km/h (4 Bft)
17.12.2023 23:52 22,1 °C 5,4 °C 55 % 92 % 1032,9 hPa 0,0 l/m² 19,3 km/h (3 Bft) SW 223 ° 0 min 0 W/m² 4,2 °C -2,4 °C 24,1 km/h (4 Bft)
17.12.2023 23:54 22,1 °C 5,5 °C 55 % 92 % 1032,8 hPa 0,0 l/m² 18,1 km/h (3 Bft) S-SW 201 ° 0 min 0 W/m² 4,3 °C -1,8 °C 27,4 km/h (5 Bft)
17.12.2023 23:55 22,1 °C 5,6 °C 54 % 92 % 1032,8 hPa 0,0 l/m² 16,0 km/h (3 Bft) SW 219 ° 0 min 0 W/m² 4,4 °C -0,7 °C 20,9 km/h (4 Bft)
17.12.2023 23:57 22,1 °C 5,6 °C 54 % 92 % 1032,8 hPa 0,0 l/m² 20,3 km/h (4 Bft) W-SW 238 ° 0 min 0 W/m² 4,4 °C -2,5 °C 27,4 km/h (5 Bft)
17.12.2023 23:59 22,1 °C 5,7 °C 54 % 92 % 1032,8 hPa 0,0 l/m² 20,3 km/h (4 Bft) S-SW 210 ° 0 min 0 W/m² 4,5 °C -2,4 °C 30,6 km/h (5 Bft)
_ Min-Zeit 07:48 20:31 10:40 15:16 23:08 - 21:11 - - - - 19:51 23:09 21:11
Minimum _ 21,3 °C 4,3 °C 47 % 84 % 1032,6 hPa - 0,6 km/h (0 Bft) - - - - 2,7 °C -4,3 °C 3,2 km/h (1 Bft)
_ Max-Zeit 16:59 12:59 21:35 23:59 08:43 23:59 11:01 - - 10:04 12:29 12:53 15:16 02:52
Maximum _ 22,9 °C 8,2 °C 57 % 92 % 1036,3 hPa 0,0 l/m² 27,8 km/h
SW (5 Bft)
- - 3 min 253 W/m² 6,0 °C 6,8 °C 38,6 km/h
SW (6 Bft)
Durchschnitt _ 22,1 °C 6,4 °C 53 % 88 % 1034,6 hPa #0,0 l/m² 13,4 km/h (3 Bft) SW - #6:01 h 44 W/m² 4,6 °C 1,9 °C 18,4 km/h (3 Bft)
© 2009 Mathias Hoßbach